<?xml version='1.0' encoding='UTF-8'?><gpx version="1.1" creator="JPX - https://github.com/jenetics/jpx" xmlns="http://www.topografix.com/GPX/1/1"><trk><trkseg><trkpt lat="53.7717197" lon="-1.6773209"><ele>152.0</ele><time>2026-04-01T13:58:13.365Z</time></trkpt><trkpt lat="53.7717958" lon="-1.677353"><ele>152.0</ele><time>2026-04-01T13:58:16.369Z</time></trkpt><trkpt lat="53.7717515" lon="-1.6774921"><ele>152.0</ele><time>2026-04-01T13:58:19.368Z</time></trkpt><trkpt lat="53.7717054" lon="-1.6775844"><ele>152.0</ele><time>2026-04-01T13:58:21.368Z</time></trkpt><trkpt lat="53.7716569" lon="-1.6776876"><ele>152.0</ele><time>2026-04-01T13:58:23.368Z</time></trkpt><trkpt lat="53.7716235" lon="-1.6777858"><ele>152.0</ele><time>2026-04-01T13:58:26.37Z</time></trkpt><trkpt lat="53.7716391" lon="-1.6776743"><ele>152.0</ele><time>2026-04-01T13:58:29.37Z</time></trkpt><trkpt lat="53.7716802" lon="-1.6775621"><ele>152.0</ele><time>2026-04-01T13:58:31.367Z</time></trkpt><trkpt lat="53.7717451" lon="-1.6774806"><ele>152.0</ele><time>2026-04-01T13:58:34.371Z</time></trkpt><trkpt lat="53.7717815" lon="-1.6773935"><ele>152.0</ele><time>2026-04-01T13:58:37.371Z</time></trkpt><trkpt lat="53.771778" lon="-1.6772688"><ele>152.0</ele><time>2026-04-01T13:58:40.371Z</time></trkpt><trkpt lat="53.7717263" lon="-1.6773706"><ele>152.0</ele><time>2026-04-01T13:58:43.369Z</time></trkpt><trkpt lat="53.7717126" lon="-1.6775169"><ele>152.0</ele><time>2026-04-01T13:58:58.368Z</time></trkpt><trkpt lat="53.7716808" lon="-1.6776184"><ele>152.0</ele><time>2026-04-01T13:59:00.366Z</time></trkpt><trkpt lat="53.7716379" lon="-1.6777437"><ele>152.0</ele><time>2026-04-01T13:59:02.372Z</time></trkpt><trkpt lat="53.7716167" lon="-1.6776394"><ele>152.0</ele><time>2026-04-01T13:59:08.37Z</time></trkpt><trkpt lat="53.771677" lon="-1.677551"><ele>152.0</ele><time>2026-04-01T13:59:11.373Z</time></trkpt><trkpt lat="53.7717329" lon="-1.6774864"><ele>152.0</ele><time>2026-04-01T13:59:16.367Z</time></trkpt><trkpt lat="53.7717549" lon="-1.6773809"><ele>152.0</ele><time>2026-04-01T14:00:21.366Z</time></trkpt><trkpt lat="53.7717961" lon="-1.6772585"><ele>152.0</ele><time>2026-04-01T14:00:22.365Z</time></trkpt><trkpt lat="53.7718315" lon="-1.6771268"><ele>152.0</ele><time>2026-04-01T14:00:23.367Z</time></trkpt><trkpt lat="53.7718709" lon="-1.6770026"><ele>152.0</ele><time>2026-04-01T14:00:24.367Z</time></trkpt><trkpt lat="53.7719178" lon="-1.6768871"><ele>152.0</ele><time>2026-04-01T14:00:25.368Z</time></trkpt><trkpt lat="53.7719761" lon="-1.6767705"><ele>152.0</ele><time>2026-04-01T14:00:26.368Z</time></trkpt><trkpt lat="53.772035" lon="-1.6766613"><ele>152.0</ele><time>2026-04-01T14:00:27.368Z</time></trkpt><trkpt lat="53.7720933" lon="-1.6765474"><ele>151.2</ele><time>2026-04-01T14:00:28.365Z</time></trkpt><trkpt lat="53.7721561" lon="-1.6764257"><ele>150.39999999999998</ele><time>2026-04-01T14:00:29.369Z</time></trkpt><trkpt lat="53.7722226" lon="-1.6763141"><ele>149.60000000000002</ele><time>2026-04-01T14:00:30.367Z</time></trkpt><trkpt lat="53.7722799" lon="-1.6762269"><ele>148.8</ele><time>2026-04-01T14:00:31.368Z</time></trkpt><trkpt lat="53.7723677" lon="-1.6760919"><ele>148.0</ele><time>2026-04-01T14:00:33.361Z</time></trkpt><trkpt lat="53.772472" lon="-1.6760091"><ele>147.71428571428572</ele><time>2026-04-01T14:00:35.366Z</time></trkpt><trkpt lat="53.7725351" lon="-1.6760094"><ele>147.42857142857142</ele><time>2026-04-01T14:00:36.366Z</time></trkpt><trkpt lat="53.7725956" lon="-1.6760405"><ele>147.14285714285714</ele><time>2026-04-01T14:00:37.366Z</time></trkpt><trkpt lat="53.7726585" lon="-1.676094"><ele>146.85714285714286</ele><time>2026-04-01T14:00:38.359Z</time></trkpt><trkpt lat="53.7727168" lon="-1.6761582"><ele>146.57142857142858</ele><time>2026-04-01T14:00:39.367Z</time></trkpt><trkpt lat="53.7727693" lon="-1.6762359"><ele>146.28571428571428</ele><time>2026-04-01T14:00:40.365Z</time></trkpt><trkpt lat="53.7728261" lon="-1.6763216"><ele>146.0</ele><time>2026-04-01T14:00:41.366Z</time></trkpt><trkpt lat="53.7728897" lon="-1.6764176"><ele>145.6</ele><time>2026-04-01T14:00:42.364Z</time></trkpt><trkpt lat="53.7729609" lon="-1.6765196"><ele>145.2</ele><time>2026-04-01T14:00:43.364Z</time></trkpt><trkpt lat="53.7730313" lon="-1.6766211"><ele>144.8</ele><time>2026-04-01T14:00:44.366Z</time></trkpt><trkpt lat="53.7730898" lon="-1.6767179"><ele>144.4</ele><time>2026-04-01T14:00:45.362Z</time></trkpt><trkpt lat="53.7731352" lon="-1.6768056"><ele>144.0</ele><time>2026-04-01T14:00:46.363Z</time></trkpt><trkpt lat="53.7732196" lon="-1.6769482"><ele>144.0</ele><time>2026-04-01T14:00:48.364Z</time></trkpt><trkpt lat="53.7733212" lon="-1.6769756"><ele>144.0</ele><time>2026-04-01T14:00:50.357Z</time></trkpt><trkpt lat="53.7733795" lon="-1.6769285"><ele>144.0</ele><time>2026-04-01T14:00:51.363Z</time></trkpt><trkpt lat="53.7734469" lon="-1.6768655"><ele>144.0</ele><time>2026-04-01T14:00:52.36Z</time></trkpt><trkpt lat="53.7735185" lon="-1.6767946"><ele>144.0</ele><time>2026-04-01T14:00:53.364Z</time></trkpt><trkpt lat="53.7735937" lon="-1.6767199"><ele>144.0</ele><time>2026-04-01T14:00:54.366Z</time></trkpt><trkpt lat="53.7736846" lon="-1.6766314"><ele>142.2</ele><time>2026-04-01T14:00:55.364Z</time></trkpt><trkpt lat="53.7737848" lon="-1.6765409"><ele>140.4</ele><time>2026-04-01T14:00:56.363Z</time></trkpt><trkpt lat="53.7738758" lon="-1.6764703"><ele>138.6</ele><time>2026-04-01T14:00:57.363Z</time></trkpt><trkpt lat="53.7739504" lon="-1.6764087"><ele>136.8</ele><time>2026-04-01T14:00:58.363Z</time></trkpt><trkpt lat="53.7740523" lon="-1.6763338"><ele>135.0</ele><time>2026-04-01T14:01:00.362Z</time></trkpt><trkpt lat="53.7741404" lon="-1.6762048"><ele>134.6</ele><time>2026-04-01T14:01:02.364Z</time></trkpt><trkpt lat="53.7741592" lon="-1.6760768"><ele>134.2</ele><time>2026-04-01T14:01:03.365Z</time></trkpt><trkpt lat="53.7741475" lon="-1.6759097"><ele>133.8</ele><time>2026-04-01T14:01:04.362Z</time></trkpt><trkpt lat="53.7741155" lon="-1.6757219"><ele>133.4</ele><time>2026-04-01T14:01:05.366Z</time></trkpt><trkpt lat="53.7740821" lon="-1.6755239"><ele>133.0</ele><time>2026-04-01T14:01:06.366Z</time></trkpt><trkpt lat="53.7740708" lon="-1.6753096"><ele>133.20000000000002</ele><time>2026-04-01T14:01:07.362Z</time></trkpt><trkpt lat="53.7740921" lon="-1.6750896"><ele>133.4</ele><time>2026-04-01T14:01:08.365Z</time></trkpt><trkpt lat="53.7741206" lon="-1.6749052"><ele>133.60000000000002</ele><time>2026-04-01T14:01:09.365Z</time></trkpt><trkpt lat="53.7741561" lon="-1.6747732"><ele>133.8</ele><time>2026-04-01T14:01:10.362Z</time></trkpt><trkpt lat="53.7742295" lon="-1.6746437"><ele>134.0</ele><time>2026-04-01T14:01:12.361Z</time></trkpt><trkpt lat="53.7743308" lon="-1.6745845"><ele>134.6</ele><time>2026-04-01T14:01:14.363Z</time></trkpt><trkpt lat="53.7743813" lon="-1.6744521"><ele>135.2</ele><time>2026-04-01T14:01:16.362Z</time></trkpt><trkpt lat="53.7743168" lon="-1.6742546"><ele>135.79999999999998</ele><time>2026-04-01T14:01:18.362Z</time></trkpt><trkpt lat="53.7742594" lon="-1.6741414"><ele>136.4</ele><time>2026-04-01T14:01:19.363Z</time></trkpt><trkpt lat="53.7742019" lon="-1.6740233"><ele>137.0</ele><time>2026-04-01T14:01:20.362Z</time></trkpt><trkpt lat="53.7741565" lon="-1.6738897"><ele>137.0</ele><time>2026-04-01T14:01:21.363Z</time></trkpt><trkpt lat="53.7741233" lon="-1.6737462"><ele>137.0</ele><time>2026-04-01T14:01:22.365Z</time></trkpt><trkpt lat="53.7740874" lon="-1.6736216"><ele>137.0</ele><time>2026-04-01T14:01:23.363Z</time></trkpt><trkpt lat="53.7740536" lon="-1.6734842"><ele>137.0</ele><time>2026-04-01T14:01:25.363Z</time></trkpt><trkpt lat="53.7740201" lon="-1.6733696"><ele>137.0</ele><time>2026-04-01T14:01:38.366Z</time></trkpt><trkpt lat="53.773936" lon="-1.6733082"><ele>137.0</ele><time>2026-04-01T14:01:40.364Z</time></trkpt><trkpt lat="53.7738676" lon="-1.6731964"><ele>137.6</ele><time>2026-04-01T14:01:42.363Z</time></trkpt><trkpt lat="53.7738372" lon="-1.6730328"><ele>138.2</ele><time>2026-04-01T14:01:44.363Z</time></trkpt><trkpt lat="53.7738592" lon="-1.6728636"><ele>138.8</ele><time>2026-04-01T14:01:46.365Z</time></trkpt><trkpt lat="53.7738765" lon="-1.672693"><ele>139.4</ele><time>2026-04-01T14:01:48.364Z</time></trkpt><trkpt lat="53.7738629" lon="-1.6725295"><ele>140.0</ele><time>2026-04-01T14:01:50.364Z</time></trkpt><trkpt lat="53.7738477" lon="-1.6723794"><ele>140.66666666666666</ele><time>2026-04-01T14:01:52.364Z</time></trkpt><trkpt lat="53.7738496" lon="-1.6722723"><ele>141.33333333333331</ele><time>2026-04-01T14:01:54.367Z</time></trkpt><trkpt lat="53.7739105" lon="-1.6721918"><ele>142.0</ele><time>2026-04-01T14:01:57.368Z</time></trkpt><trkpt lat="53.7739939" lon="-1.6721872"><ele>142.66666666666666</ele><time>2026-04-01T14:02:00.364Z</time></trkpt><trkpt lat="53.7740522" lon="-1.6721019"><ele>143.33333333333334</ele><time>2026-04-01T14:02:03.368Z</time></trkpt><trkpt lat="53.7740692" lon="-1.6719843"><ele>144.0</ele><time>2026-04-01T14:02:09.367Z</time></trkpt><trkpt lat="53.7741376" lon="-1.6719043"><ele>144.16666666666666</ele><time>2026-04-01T14:02:11.369Z</time></trkpt><trkpt lat="53.7742047" lon="-1.6718617"><ele>144.33333333333334</ele><time>2026-04-01T14:02:13.364Z</time></trkpt><trkpt lat="53.7742936" lon="-1.6718782"><ele>144.5</ele><time>2026-04-01T14:02:16.362Z</time></trkpt><trkpt lat="53.7743721" lon="-1.6719343"><ele>144.66666666666669</ele><time>2026-04-01T14:02:19.368Z</time></trkpt><trkpt lat="53.774432" lon="-1.6720001"><ele>144.83333333333334</ele><time>2026-04-01T14:02:22.365Z</time></trkpt><trkpt lat="53.7744569" lon="-1.6721256"><ele>145.0</ele><time>2026-04-01T14:02:25.369Z</time></trkpt><trkpt lat="53.7744827" lon="-1.6722266"><ele>143.83333333333334</ele><time>2026-04-01T14:02:28.368Z</time></trkpt><trkpt lat="53.7745313" lon="-1.6723432"><ele>142.66666666666669</ele><time>2026-04-01T14:02:39.361Z</time></trkpt><trkpt lat="53.7745517" lon="-1.6724478"><ele>141.5</ele><time>2026-04-01T14:02:42.359Z</time></trkpt><trkpt lat="53.7745859" lon="-1.6725396"><ele>140.33333333333334</ele><time>2026-04-01T14:02:48.364Z</time></trkpt><trkpt lat="53.7746703" lon="-1.6725531"><ele>139.16666666666666</ele><time>2026-04-01T14:02:51.368Z</time></trkpt><trkpt lat="53.7747707" lon="-1.6723978"><ele>138.0</ele><time>2026-04-01T14:02:53.366Z</time></trkpt><trkpt lat="53.7748582" lon="-1.6723139"><ele>138.0</ele><time>2026-04-01T14:02:54.364Z</time></trkpt><trkpt lat="53.7749548" lon="-1.6722487"><ele>138.0</ele><time>2026-04-01T14:02:55.365Z</time></trkpt><trkpt lat="53.7750605" lon="-1.6722118"><ele>138.0</ele><time>2026-04-01T14:02:56.363Z</time></trkpt><trkpt lat="53.7751575" lon="-1.6722002"><ele>138.0</ele><time>2026-04-01T14:02:57.361Z</time></trkpt><trkpt lat="53.7752764" lon="-1.6722233"><ele>138.0</ele><time>2026-04-01T14:02:58.361Z</time></trkpt><trkpt lat="53.77539" lon="-1.6722634"><ele>136.0</ele><time>2026-04-01T14:02:59.359Z</time></trkpt><trkpt lat="53.775499" lon="-1.6723107"><ele>134.0</ele><time>2026-04-01T14:03:00.361Z</time></trkpt><trkpt lat="53.7756007" lon="-1.6723332"><ele>132.0</ele><time>2026-04-01T14:03:01.362Z</time></trkpt><trkpt lat="53.7757014" lon="-1.6723408"><ele>130.0</ele><time>2026-04-01T14:03:02.368Z</time></trkpt><trkpt lat="53.7758025" lon="-1.6722773"><ele>128.0</ele><time>2026-04-01T14:03:03.362Z</time></trkpt><trkpt lat="53.7758981" lon="-1.6721701"><ele>127.99999999999999</ele><time>2026-04-01T14:03:04.362Z</time></trkpt><trkpt lat="53.7759718" lon="-1.6720624"><ele>128.0</ele><time>2026-04-01T14:03:05.362Z</time></trkpt><trkpt lat="53.7760343" lon="-1.6719768"><ele>128.0</ele><time>2026-04-01T14:03:06.363Z</time></trkpt><trkpt lat="53.7760936" lon="-1.6719268"><ele>128.0</ele><time>2026-04-01T14:03:07.362Z</time></trkpt><trkpt lat="53.7762021" lon="-1.6719824"><ele>127.99999999999999</ele><time>2026-04-01T14:03:09.362Z</time></trkpt><trkpt lat="53.776243" lon="-1.6720755"><ele>128.0</ele><time>2026-04-01T14:03:10.363Z</time></trkpt><trkpt lat="53.7762791" lon="-1.6721695"><ele>126.2</ele><time>2026-04-01T14:03:11.358Z</time></trkpt><trkpt lat="53.7763115" lon="-1.6722697"><ele>124.4</ele><time>2026-04-01T14:03:12.365Z</time></trkpt><trkpt lat="53.7763495" lon="-1.6724349"><ele>122.60000000000001</ele><time>2026-04-01T14:03:14.371Z</time></trkpt><trkpt lat="53.7764128" lon="-1.6725583"><ele>120.80000000000001</ele><time>2026-04-01T14:03:16.362Z</time></trkpt><trkpt lat="53.7765063" lon="-1.672624"><ele>119.0</ele><time>2026-04-01T14:03:18.362Z</time></trkpt><trkpt lat="53.7765898" lon="-1.6726478"><ele>118.99999999999999</ele><time>2026-04-01T14:03:20.366Z</time></trkpt><trkpt lat="53.7766527" lon="-1.6726981"><ele>119.0</ele><time>2026-04-01T14:03:22.362Z</time></trkpt><trkpt lat="53.776694" lon="-1.6727874"><ele>119.0</ele><time>2026-04-01T14:03:24.364Z</time></trkpt><trkpt lat="53.7766546" lon="-1.6728993"><ele>119.0</ele><time>2026-04-01T14:03:26.368Z</time></trkpt><trkpt lat="53.7766005" lon="-1.6729616"><ele>118.99999999999999</ele><time>2026-04-01T14:03:27.369Z</time></trkpt><trkpt lat="53.7765284" lon="-1.6730345"><ele>119.0</ele><time>2026-04-01T14:03:28.366Z</time></trkpt><trkpt lat="53.7764412" lon="-1.6731145"><ele>118.2</ele><time>2026-04-01T14:03:29.367Z</time></trkpt><trkpt lat="53.7763561" lon="-1.6731821"><ele>117.4</ele><time>2026-04-01T14:03:30.369Z</time></trkpt><trkpt lat="53.7762821" lon="-1.6732268"><ele>116.6</ele><time>2026-04-01T14:03:31.365Z</time></trkpt><trkpt lat="53.7761866" lon="-1.673291"><ele>115.8</ele><time>2026-04-01T14:03:33.368Z</time></trkpt><trkpt lat="53.7761862" lon="-1.6734596"><ele>115.0</ele><time>2026-04-01T14:03:36.372Z</time></trkpt><trkpt lat="53.7761804" lon="-1.6736751"><ele>115.0</ele><time>2026-04-01T14:03:38.365Z</time></trkpt><trkpt lat="53.7761792" lon="-1.6738323"><ele>115.0</ele><time>2026-04-01T14:03:40.366Z</time></trkpt><trkpt lat="53.7761847" lon="-1.6739553"><ele>115.0</ele><time>2026-04-01T14:03:43.363Z</time></trkpt><trkpt lat="53.7761472" lon="-1.673831"><ele>115.0</ele><time>2026-04-01T14:04:07.367Z</time></trkpt><trkpt lat="53.7760864" lon="-1.673638"><ele>115.0</ele><time>2026-04-01T14:04:09.365Z</time></trkpt><trkpt lat="53.7760439" lon="-1.6735385"><ele>115.00000000000001</ele><time>2026-04-01T14:04:10.367Z</time></trkpt><trkpt lat="53.7759981" lon="-1.6734046"><ele>115.0</ele><time>2026-04-01T14:04:12.364Z</time></trkpt><trkpt lat="53.7760661" lon="-1.6732906"><ele>115.0</ele><time>2026-04-01T14:04:15.366Z</time></trkpt><trkpt lat="53.7761306" lon="-1.6733404"><ele>115.0</ele><time>2026-04-01T14:04:29.366Z</time></trkpt><trkpt lat="53.7762218" lon="-1.6732801"><ele>115.00000000000001</ele><time>2026-04-01T14:04:31.364Z</time></trkpt><trkpt lat="53.7763053" lon="-1.6732243"><ele>115.0</ele><time>2026-04-01T14:04:32.367Z</time></trkpt><trkpt lat="53.7763938" lon="-1.6731549"><ele>115.0</ele><time>2026-04-01T14:04:33.367Z</time></trkpt><trkpt lat="53.7764752" lon="-1.6730764"><ele>115.0</ele><time>2026-04-01T14:04:34.367Z</time></trkpt><trkpt lat="53.7765417" lon="-1.6729912"><ele>115.0</ele><time>2026-04-01T14:04:35.366Z</time></trkpt><trkpt lat="53.7765926" lon="-1.6729028"><ele>115.0</ele><time>2026-04-01T14:04:36.367Z</time></trkpt><trkpt lat="53.7766393" lon="-1.6727438"><ele>115.0</ele><time>2026-04-01T14:04:38.369Z</time></trkpt><trkpt lat="53.7767048" lon="-1.6725767"><ele>114.4</ele><time>2026-04-01T14:04:40.364Z</time></trkpt><trkpt lat="53.7767591" lon="-1.6725095"><ele>113.8</ele><time>2026-04-01T14:04:41.371Z</time></trkpt><trkpt lat="53.7768528" lon="-1.6723961"><ele>113.19999999999999</ele><time>2026-04-01T14:04:43.369Z</time></trkpt><trkpt lat="53.7769364" lon="-1.6722856"><ele>112.6</ele><time>2026-04-01T14:04:45.373Z</time></trkpt><trkpt lat="53.7770469" lon="-1.6721816"><ele>112.0</ele><time>2026-04-01T14:04:47.368Z</time></trkpt><trkpt lat="53.7771583" lon="-1.6721615"><ele>112.00000000000001</ele><time>2026-04-01T14:04:49.367Z</time></trkpt><trkpt lat="53.7772289" lon="-1.6721764"><ele>112.0</ele><time>2026-04-01T14:04:51.368Z</time></trkpt><trkpt lat="53.7772834" lon="-1.6722961"><ele>112.0</ele><time>2026-04-01T14:04:53.369Z</time></trkpt><trkpt lat="53.7773022" lon="-1.6724487"><ele>112.0</ele><time>2026-04-01T14:04:55.365Z</time></trkpt><trkpt lat="53.777246" lon="-1.6726153"><ele>112.00000000000001</ele><time>2026-04-01T14:04:57.364Z</time></trkpt><trkpt lat="53.777185" lon="-1.6727106"><ele>112.0</ele><time>2026-04-01T14:04:58.365Z</time></trkpt><trkpt lat="53.7771285" lon="-1.6727977"><ele>111.66666666666667</ele><time>2026-04-01T14:04:59.37Z</time></trkpt><trkpt lat="53.7770483" lon="-1.6729164"><ele>111.33333333333334</ele><time>2026-04-01T14:05:01.366Z</time></trkpt><trkpt lat="53.7770016" lon="-1.6729958"><ele>111.0</ele><time>2026-04-01T14:05:03.367Z</time></trkpt><trkpt lat="53.7769498" lon="-1.6730565"><ele>110.66666666666666</ele><time>2026-04-01T14:05:19.371Z</time></trkpt><trkpt lat="53.7768797" lon="-1.6731071"><ele>110.33333333333333</ele><time>2026-04-01T14:05:32.372Z</time></trkpt><trkpt lat="53.776809" lon="-1.6731732"><ele>110.0</ele><time>2026-04-01T14:05:34.365Z</time></trkpt><trkpt lat="53.7767297" lon="-1.6732551"><ele>110.33333333333333</ele><time>2026-04-01T14:05:36.371Z</time></trkpt><trkpt lat="53.7766529" lon="-1.6733524"><ele>110.66666666666666</ele><time>2026-04-01T14:05:38.372Z</time></trkpt><trkpt lat="53.7766046" lon="-1.6734561"><ele>111.0</ele><time>2026-04-01T14:05:40.371Z</time></trkpt><trkpt lat="53.7765536" lon="-1.6735742"><ele>111.33333333333334</ele><time>2026-04-01T14:05:42.368Z</time></trkpt><trkpt lat="53.7764766" lon="-1.6736758"><ele>111.66666666666667</ele><time>2026-04-01T14:05:43.369Z</time></trkpt><trkpt lat="53.776407" lon="-1.6737212"><ele>112.0</ele><time>2026-04-01T14:05:44.368Z</time></trkpt><trkpt lat="53.7763399" lon="-1.6737719"><ele>112.0</ele><time>2026-04-01T14:05:45.368Z</time></trkpt><trkpt lat="53.7762761" lon="-1.6738292"><ele>112.0</ele><time>2026-04-01T14:05:46.365Z</time></trkpt><trkpt lat="53.7762236" lon="-1.6739003"><ele>112.0</ele><time>2026-04-01T14:05:48.366Z</time></trkpt><trkpt lat="53.7761651" lon="-1.6739482"><ele>112.0</ele><time>2026-04-01T14:05:53.368Z</time></trkpt><trkpt lat="53.7761212" lon="-1.6737828"><ele>112.0</ele><time>2026-04-01T14:06:06.37Z</time></trkpt><trkpt lat="53.7760928" lon="-1.6736801"><ele>112.0</ele><time>2026-04-01T14:06:07.369Z</time></trkpt><trkpt lat="53.7760545" lon="-1.6735799"><ele>112.0</ele><time>2026-04-01T14:06:08.376Z</time></trkpt><trkpt lat="53.776022" lon="-1.6734872"><ele>112.6</ele><time>2026-04-01T14:06:09.375Z</time></trkpt><trkpt lat="53.7760349" lon="-1.6733094"><ele>113.19999999999999</ele><time>2026-04-01T14:06:11.376Z</time></trkpt><trkpt lat="53.776081" lon="-1.6732321"><ele>113.8</ele><time>2026-04-01T14:06:13.37Z</time></trkpt><trkpt lat="53.7761724" lon="-1.6731927"><ele>114.4</ele><time>2026-04-01T14:06:14.367Z</time></trkpt><trkpt lat="53.7762764" lon="-1.6731421"><ele>115.0</ele><time>2026-04-01T14:06:15.363Z</time></trkpt><trkpt lat="53.7763734" lon="-1.6731066"><ele>115.00000000000001</ele><time>2026-04-01T14:06:16.367Z</time></trkpt><trkpt lat="53.7764592" lon="-1.6730631"><ele>115.0</ele><time>2026-04-01T14:06:17.368Z</time></trkpt><trkpt lat="53.7765333" lon="-1.6729974"><ele>115.0</ele><time>2026-04-01T14:06:18.368Z</time></trkpt><trkpt lat="53.7765901" lon="-1.672915"><ele>115.0</ele><time>2026-04-01T14:06:19.367Z</time></trkpt><trkpt lat="53.776655" lon="-1.6727851"><ele>115.00000000000001</ele><time>2026-04-01T14:06:21.366Z</time></trkpt><trkpt lat="53.7766203" lon="-1.6726447"><ele>115.0</ele><time>2026-04-01T14:06:54.375Z</time></trkpt><trkpt lat="53.7765508" lon="-1.67259"><ele>115.00000000000001</ele><time>2026-04-01T14:06:56.37Z</time></trkpt><trkpt lat="53.7764935" lon="-1.6726901"><ele>115.0</ele><time>2026-04-01T14:06:59.369Z</time></trkpt><trkpt lat="53.7765125" lon="-1.6728142"><ele>115.0</ele><time>2026-04-01T14:07:01.366Z</time></trkpt><trkpt lat="53.7765311" lon="-1.6729592"><ele>115.0</ele><time>2026-04-01T14:07:03.371Z</time></trkpt><trkpt lat="53.7764592" lon="-1.6731054"><ele>115.00000000000001</ele><time>2026-04-01T14:07:05.37Z</time></trkpt><trkpt lat="53.7763803" lon="-1.6731778"><ele>115.0</ele><time>2026-04-01T14:07:06.37Z</time></trkpt><trkpt lat="53.7762764" lon="-1.6732431"><ele>115.0</ele><time>2026-04-01T14:07:07.371Z</time></trkpt><trkpt lat="53.7761719" lon="-1.6732932"><ele>115.0</ele><time>2026-04-01T14:07:08.373Z</time></trkpt><trkpt lat="53.7760836" lon="-1.6733267"><ele>115.0</ele><time>2026-04-01T14:07:09.371Z</time></trkpt><trkpt lat="53.776005" lon="-1.673327"><ele>115.0</ele><time>2026-04-01T14:07:10.369Z</time></trkpt><trkpt lat="53.7759381" lon="-1.6733136"><ele>115.0</ele><time>2026-04-01T14:07:11.371Z</time></trkpt><trkpt lat="53.775825" lon="-1.6732529"><ele>117.0</ele><time>2026-04-01T14:07:13.367Z</time></trkpt><trkpt lat="53.7757398" lon="-1.6731537"><ele>119.0</ele><time>2026-04-01T14:07:15.368Z</time></trkpt><trkpt lat="53.775636" lon="-1.6731397"><ele>121.0</ele><time>2026-04-01T14:07:17.367Z</time></trkpt><trkpt lat="53.7755479" lon="-1.6732119"><ele>123.0</ele><time>2026-04-01T14:07:19.37Z</time></trkpt><trkpt lat="53.7754973" lon="-1.6732871"><ele>125.0</ele><time>2026-04-01T14:07:21.371Z</time></trkpt><trkpt lat="53.7754335" lon="-1.6733627"><ele>124.99999999999999</ele><time>2026-04-01T14:07:23.369Z</time></trkpt><trkpt lat="53.7753569" lon="-1.6734022"><ele>125.0</ele><time>2026-04-01T14:07:26.37Z</time></trkpt><trkpt lat="53.7752875" lon="-1.6733822"><ele>125.0</ele><time>2026-04-01T14:07:30.37Z</time></trkpt><trkpt lat="53.7752589" lon="-1.6734921"><ele>125.0</ele><time>2026-04-01T14:07:40.371Z</time></trkpt><trkpt lat="53.7752053" lon="-1.6736137"><ele>124.99999999999999</ele><time>2026-04-01T14:07:43.369Z</time></trkpt><trkpt lat="53.7751637" lon="-1.6737292"><ele>125.0</ele><time>2026-04-01T14:07:46.366Z</time></trkpt><trkpt lat="53.7750949" lon="-1.6737512"><ele>125.33333333333333</ele><time>2026-04-01T14:07:57.367Z</time></trkpt><trkpt lat="53.7750552" lon="-1.6738567"><ele>125.66666666666666</ele><time>2026-04-01T14:08:00.367Z</time></trkpt><trkpt lat="53.7750795" lon="-1.6739592"><ele>126.0</ele><time>2026-04-01T14:09:47.362Z</time></trkpt><trkpt lat="53.7750382" lon="-1.6740687"><ele>126.33333333333334</ele><time>2026-04-01T14:10:42.372Z</time></trkpt><trkpt lat="53.7750381" lon="-1.6742094"><ele>126.66666666666667</ele><time>2026-04-01T14:10:44.372Z</time></trkpt><trkpt lat="53.7750625" lon="-1.67437"><ele>127.0</ele><time>2026-04-01T14:10:47.37Z</time></trkpt><trkpt lat="53.7750803" lon="-1.6744929"><ele>127.0</ele><time>2026-04-01T14:10:49.368Z</time></trkpt><trkpt lat="53.7751695" lon="-1.6746146"><ele>126.99999999999999</ele><time>2026-04-01T14:10:53.376Z</time></trkpt><trkpt lat="53.7752186" lon="-1.6747296"><ele>126.99999999999999</ele><time>2026-04-01T14:10:56.373Z</time></trkpt><trkpt lat="53.7752897" lon="-1.6748568"><ele>127.0</ele><time>2026-04-01T14:10:58.371Z</time></trkpt><trkpt lat="53.7753554" lon="-1.6750228"><ele>127.0</ele><time>2026-04-01T14:11:00.369Z</time></trkpt><trkpt lat="53.7755015" lon="-1.6752152"><ele>125.33333333333334</ele><time>2026-04-01T14:11:02.371Z</time></trkpt><trkpt lat="53.7755633" lon="-1.6752445"><ele>123.66666666666667</ele><time>2026-04-01T14:11:03.374Z</time></trkpt><trkpt lat="53.7756732" lon="-1.6752872"><ele>122.0</ele><time>2026-04-01T14:11:05.372Z</time></trkpt><trkpt lat="53.7757475" lon="-1.6753826"><ele>120.33333333333334</ele><time>2026-04-01T14:11:07.369Z</time></trkpt><trkpt lat="53.7757961" lon="-1.675486"><ele>118.66666666666667</ele><time>2026-04-01T14:11:09.371Z</time></trkpt><trkpt lat="53.7758655" lon="-1.6754838"><ele>117.0</ele><time>2026-04-01T14:11:15.375Z</time></trkpt><trkpt lat="53.7759392" lon="-1.6755055"><ele>116.33333333333333</ele><time>2026-04-01T14:11:18.367Z</time></trkpt><trkpt lat="53.7760207" lon="-1.6755823"><ele>115.66666666666666</ele><time>2026-04-01T14:11:21.368Z</time></trkpt><trkpt lat="53.7760328" lon="-1.6757624"><ele>115.0</ele><time>2026-04-01T14:11:23.361Z</time></trkpt><trkpt lat="53.776009" lon="-1.6758676"><ele>114.33333333333333</ele><time>2026-04-01T14:11:24.37Z</time></trkpt><trkpt lat="53.7759765" lon="-1.6759876"><ele>113.66666666666666</ele><time>2026-04-01T14:11:25.361Z</time></trkpt><trkpt lat="53.775948" lon="-1.6761131"><ele>113.0</ele><time>2026-04-01T14:11:26.37Z</time></trkpt><trkpt lat="53.7759261" lon="-1.6762433"><ele>112.60000000000001</ele><time>2026-04-01T14:11:27.368Z</time></trkpt><trkpt lat="53.7759146" lon="-1.676377"><ele>112.20000000000002</ele><time>2026-04-01T14:11:28.367Z</time></trkpt><trkpt lat="53.7759086" lon="-1.6765268"><ele>111.8</ele><time>2026-04-01T14:11:29.369Z</time></trkpt><trkpt lat="53.7758975" lon="-1.6766976"><ele>111.4</ele><time>2026-04-01T14:11:30.369Z</time></trkpt><trkpt lat="53.7758691" lon="-1.6768784"><ele>111.0</ele><time>2026-04-01T14:11:31.367Z</time></trkpt><trkpt lat="53.7758306" lon="-1.6770468"><ele>110.83333333333333</ele><time>2026-04-01T14:11:32.37Z</time></trkpt><trkpt lat="53.7757952" lon="-1.6771881"><ele>110.66666666666666</ele><time>2026-04-01T14:11:33.37Z</time></trkpt><trkpt lat="53.775762" lon="-1.6773045"><ele>110.5</ele><time>2026-04-01T14:11:34.369Z</time></trkpt><trkpt lat="53.7757289" lon="-1.6773957"><ele>110.33333333333333</ele><time>2026-04-01T14:11:35.373Z</time></trkpt><trkpt lat="53.7756721" lon="-1.6774995"><ele>110.16666666666666</ele><time>2026-04-01T14:11:37.371Z</time></trkpt><trkpt lat="53.7756963" lon="-1.677637"><ele>110.0</ele><time>2026-04-01T14:11:46.375Z</time></trkpt><trkpt lat="53.7757219" lon="-1.6777852"><ele>109.83333333333333</ele><time>2026-04-01T14:11:48.372Z</time></trkpt><trkpt lat="53.7757359" lon="-1.6779323"><ele>109.66666666666666</ele><time>2026-04-01T14:11:50.36Z</time></trkpt><trkpt lat="53.7757517" lon="-1.6780582"><ele>109.5</ele><time>2026-04-01T14:11:52.369Z</time></trkpt><trkpt lat="53.7757265" lon="-1.6781771"><ele>109.33333333333334</ele><time>2026-04-01T14:11:54.366Z</time></trkpt><trkpt lat="53.7756669" lon="-1.6783139"><ele>109.16666666666667</ele><time>2026-04-01T14:11:56.369Z</time></trkpt><trkpt lat="53.7756211" lon="-1.6784765"><ele>109.0</ele><time>2026-04-01T14:11:58.369Z</time></trkpt><trkpt lat="53.7755833" lon="-1.6786535"><ele>109.00000000000001</ele><time>2026-04-01T14:12:00.369Z</time></trkpt><trkpt lat="53.7755351" lon="-1.6788074"><ele>109.0</ele><time>2026-04-01T14:12:02.37Z</time></trkpt><trkpt lat="53.7754954" lon="-1.6789541"><ele>109.0</ele><time>2026-04-01T14:12:04.363Z</time></trkpt><trkpt lat="53.7754988" lon="-1.6790726"><ele>109.0</ele><time>2026-04-01T14:12:06.369Z</time></trkpt><trkpt lat="53.775511" lon="-1.6791966"><ele>109.00000000000001</ele><time>2026-04-01T14:12:09.372Z</time></trkpt><trkpt lat="53.7755198" lon="-1.6793322"><ele>109.0</ele><time>2026-04-01T14:12:12.366Z</time></trkpt><trkpt lat="53.7754938" lon="-1.679469"><ele>109.14285714285714</ele><time>2026-04-01T14:12:15.368Z</time></trkpt><trkpt lat="53.7755019" lon="-1.6796225"><ele>109.28571428571429</ele><time>2026-04-01T14:12:18.377Z</time></trkpt><trkpt lat="53.775518" lon="-1.6797698"><ele>109.42857142857142</ele><time>2026-04-01T14:12:20.37Z</time></trkpt><trkpt lat="53.7755441" lon="-1.6798699"><ele>109.57142857142857</ele><time>2026-04-01T14:12:22.37Z</time></trkpt><trkpt lat="53.7756006" lon="-1.6799189"><ele>109.71428571428571</ele><time>2026-04-01T14:12:24.37Z</time></trkpt><trkpt lat="53.7756147" lon="-1.6800303"><ele>109.85714285714285</ele><time>2026-04-01T14:12:28.371Z</time></trkpt><trkpt lat="53.7755457" lon="-1.6800455"><ele>110.0</ele><time>2026-04-01T14:13:07.365Z</time></trkpt><trkpt lat="53.7754794" lon="-1.6800922"><ele>109.99999999999999</ele><time>2026-04-01T14:13:10.379Z</time></trkpt><trkpt lat="53.7753928" lon="-1.6800887"><ele>110.0</ele><time>2026-04-01T14:13:13.372Z</time></trkpt><trkpt lat="53.7753077" lon="-1.6800565"><ele>110.0</ele><time>2026-04-01T14:13:16.372Z</time></trkpt><trkpt lat="53.7752252" lon="-1.6799818"><ele>110.0</ele><time>2026-04-01T14:13:19.37Z</time></trkpt><trkpt lat="53.7751886" lon="-1.679847"><ele>109.99999999999999</ele><time>2026-04-01T14:13:22.372Z</time></trkpt><trkpt lat="53.7751787" lon="-1.679978"><ele>110.0</ele><time>2026-04-01T14:13:49.37Z</time></trkpt><trkpt lat="53.775118" lon="-1.6800475"><ele>109.99999999999999</ele><time>2026-04-01T14:14:11.375Z</time></trkpt><trkpt lat="53.7750555" lon="-1.6801223"><ele>110.0</ele><time>2026-04-01T14:14:13.37Z</time></trkpt><trkpt lat="53.7749434" lon="-1.6801899"><ele>110.0</ele><time>2026-04-01T14:14:15.37Z</time></trkpt><trkpt lat="53.7748719" lon="-1.6802164"><ele>110.0</ele><time>2026-04-01T14:14:16.37Z</time></trkpt><trkpt lat="53.7747929" lon="-1.6802328"><ele>109.99999999999999</ele><time>2026-04-01T14:14:17.368Z</time></trkpt><trkpt lat="53.7747114" lon="-1.6802481"><ele>110.0</ele><time>2026-04-01T14:14:18.369Z</time></trkpt><trkpt lat="53.7746273" lon="-1.680271"><ele>109.99999999999999</ele><time>2026-04-01T14:14:19.368Z</time></trkpt><trkpt lat="53.7745511" lon="-1.680306"><ele>110.0</ele><time>2026-04-01T14:14:20.367Z</time></trkpt><trkpt lat="53.7744884" lon="-1.6803467"><ele>110.0</ele><time>2026-04-01T14:14:21.369Z</time></trkpt><trkpt lat="53.7743974" lon="-1.6804291"><ele>110.0</ele><time>2026-04-01T14:14:23.37Z</time></trkpt><trkpt lat="53.7743193" lon="-1.6804916"><ele>109.99999999999999</ele><time>2026-04-01T14:14:25.369Z</time></trkpt><trkpt lat="53.7742232" lon="-1.680444"><ele>110.0</ele><time>2026-04-01T14:14:27.368Z</time></trkpt><trkpt lat="53.7741574" lon="-1.6804263"><ele>112.49999999999999</ele><time>2026-04-01T14:14:28.362Z</time></trkpt><trkpt lat="53.7740751" lon="-1.6804428"><ele>115.0</ele><time>2026-04-01T14:14:29.357Z</time></trkpt><trkpt lat="53.7739936" lon="-1.6804851"><ele>117.5</ele><time>2026-04-01T14:14:30.362Z</time></trkpt><trkpt lat="53.7739314" lon="-1.680533"><ele>120.0</ele><time>2026-04-01T14:14:31.363Z</time></trkpt><trkpt lat="53.7738712" lon="-1.6805923"><ele>122.49999999999999</ele><time>2026-04-01T14:14:33.37Z</time></trkpt><trkpt lat="53.7737774" lon="-1.6806631"><ele>125.0</ele><time>2026-04-01T14:14:46.367Z</time></trkpt><trkpt lat="53.7737044" lon="-1.6807015"><ele>124.99999999999999</ele><time>2026-04-01T14:14:48.371Z</time></trkpt><trkpt lat="53.7736402" lon="-1.6807086"><ele>125.0</ele><time>2026-04-01T14:14:50.372Z</time></trkpt><trkpt lat="53.7735477" lon="-1.6806953"><ele>125.0</ele><time>2026-04-01T14:14:53.374Z</time></trkpt><trkpt lat="53.7734749" lon="-1.680702"><ele>125.0</ele><time>2026-04-01T14:14:55.367Z</time></trkpt><trkpt lat="53.7734032" lon="-1.6807589"><ele>124.99999999999999</ele><time>2026-04-01T14:14:57.37Z</time></trkpt><trkpt lat="53.7733379" lon="-1.6808354"><ele>125.0</ele><time>2026-04-01T14:14:59.368Z</time></trkpt><trkpt lat="53.7732557" lon="-1.6808796"><ele>126.0</ele><time>2026-04-01T14:15:01.367Z</time></trkpt><trkpt lat="53.7731832" lon="-1.6809049"><ele>127.0</ele><time>2026-04-01T14:15:03.371Z</time></trkpt><trkpt lat="53.7730931" lon="-1.6809091"><ele>128.0</ele><time>2026-04-01T14:15:05.372Z</time></trkpt><trkpt lat="53.7729955" lon="-1.6809288"><ele>129.0</ele><time>2026-04-01T14:15:07.369Z</time></trkpt><trkpt lat="53.7728911" lon="-1.6809843"><ele>130.0</ele><time>2026-04-01T14:15:09.371Z</time></trkpt><trkpt lat="53.7727866" lon="-1.6810817"><ele>130.16666666666669</ele><time>2026-04-01T14:15:11.373Z</time></trkpt><trkpt lat="53.7727032" lon="-1.6811435"><ele>130.33333333333334</ele><time>2026-04-01T14:15:13.368Z</time></trkpt><trkpt lat="53.7726391" lon="-1.6811561"><ele>130.5</ele><time>2026-04-01T14:15:15.37Z</time></trkpt><trkpt lat="53.7725498" lon="-1.6812158"><ele>130.66666666666666</ele><time>2026-04-01T14:15:18.37Z</time></trkpt><trkpt lat="53.7724716" lon="-1.6812108"><ele>130.83333333333331</ele><time>2026-04-01T14:15:52.369Z</time></trkpt><trkpt lat="53.7724016" lon="-1.6812373"><ele>131.0</ele><time>2026-04-01T14:15:55.368Z</time></trkpt><trkpt lat="53.7723083" lon="-1.6812444"><ele>132.0</ele><time>2026-04-01T14:17:30.371Z</time></trkpt><trkpt lat="53.772242" lon="-1.6812821"><ele>133.0</ele><time>2026-04-01T14:17:32.372Z</time></trkpt><trkpt lat="53.7721841" lon="-1.6813423"><ele>134.0</ele><time>2026-04-01T14:17:34.373Z</time></trkpt><trkpt lat="53.7721129" lon="-1.6814039"><ele>135.0</ele><time>2026-04-01T14:17:36.371Z</time></trkpt><trkpt lat="53.7720531" lon="-1.6814707"><ele>136.0</ele><time>2026-04-01T14:17:38.372Z</time></trkpt><trkpt lat="53.7719867" lon="-1.6815236"><ele>137.0</ele><time>2026-04-01T14:17:41.372Z</time></trkpt><trkpt lat="53.7719151" lon="-1.6815231"><ele>138.0</ele><time>2026-04-01T14:17:45.371Z</time></trkpt><trkpt lat="53.7718339" lon="-1.6815176"><ele>139.20000000000002</ele><time>2026-04-01T14:17:47.371Z</time></trkpt><trkpt lat="53.7717684" lon="-1.6815117"><ele>140.4</ele><time>2026-04-01T14:17:48.37Z</time></trkpt><trkpt lat="53.77166" lon="-1.6814603"><ele>141.60000000000002</ele><time>2026-04-01T14:17:50.371Z</time></trkpt><trkpt lat="53.7716091" lon="-1.681318"><ele>142.8</ele><time>2026-04-01T14:17:52.371Z</time></trkpt><trkpt lat="53.7715719" lon="-1.681159"><ele>144.0</ele><time>2026-04-01T14:17:54.375Z</time></trkpt><trkpt lat="53.771537" lon="-1.6810409"><ele>144.8</ele><time>2026-04-01T14:17:56.372Z</time></trkpt><trkpt lat="53.7715484" lon="-1.6809049"><ele>145.60000000000002</ele><time>2026-04-01T14:17:59.37Z</time></trkpt><trkpt lat="53.7715789" lon="-1.6807927"><ele>146.4</ele><time>2026-04-01T14:18:05.375Z</time></trkpt><trkpt lat="53.7716371" lon="-1.6806066"><ele>147.20000000000002</ele><time>2026-04-01T14:18:07.374Z</time></trkpt><trkpt lat="53.7716863" lon="-1.680453"><ele>148.0</ele><time>2026-04-01T14:18:08.374Z</time></trkpt><trkpt lat="53.7717357" lon="-1.6802903"><ele>148.5</ele><time>2026-04-01T14:18:09.373Z</time></trkpt><trkpt lat="53.7717784" lon="-1.6801386"><ele>149.0</ele><time>2026-04-01T14:18:10.372Z</time></trkpt><trkpt lat="53.7718087" lon="-1.680017"><ele>149.5</ele><time>2026-04-01T14:18:11.371Z</time></trkpt><trkpt lat="53.7718305" lon="-1.6799085"><ele>150.0</ele><time>2026-04-01T14:18:12.369Z</time></trkpt><trkpt lat="53.7718556" lon="-1.6798054"><ele>150.5</ele><time>2026-04-01T14:18:13.371Z</time></trkpt><trkpt lat="53.7718841" lon="-1.6796962"><ele>151.0</ele><time>2026-04-01T14:18:14.374Z</time></trkpt><trkpt lat="53.7719218" lon="-1.679565"><ele>150.16666666666669</ele><time>2026-04-01T14:18:15.371Z</time></trkpt><trkpt lat="53.7719656" lon="-1.6794219"><ele>149.33333333333334</ele><time>2026-04-01T14:18:16.37Z</time></trkpt><trkpt lat="53.7720058" lon="-1.6792887"><ele>148.5</ele><time>2026-04-01T14:18:17.371Z</time></trkpt><trkpt lat="53.772038" lon="-1.6791836"><ele>147.66666666666666</ele><time>2026-04-01T14:18:18.375Z</time></trkpt><trkpt lat="53.7720926" lon="-1.6790177"><ele>146.83333333333331</ele><time>2026-04-01T14:18:20.374Z</time></trkpt><trkpt lat="53.7721247" lon="-1.6789134"><ele>146.0</ele><time>2026-04-01T14:18:21.371Z</time></trkpt><trkpt lat="53.7721629" lon="-1.6787903"><ele>146.0</ele><time>2026-04-01T14:18:22.374Z</time></trkpt><trkpt lat="53.7722022" lon="-1.6786638"><ele>146.0</ele><time>2026-04-01T14:18:23.373Z</time></trkpt><trkpt lat="53.7722385" lon="-1.6785369"><ele>146.0</ele><time>2026-04-01T14:18:24.376Z</time></trkpt><trkpt lat="53.7722717" lon="-1.6784129"><ele>146.0</ele><time>2026-04-01T14:18:25.371Z</time></trkpt><trkpt lat="53.772307" lon="-1.6782985"><ele>146.0</ele><time>2026-04-01T14:18:26.376Z</time></trkpt><trkpt lat="53.7723465" lon="-1.6781975"><ele>146.0</ele><time>2026-04-01T14:18:27.377Z</time></trkpt><trkpt lat="53.7723946" lon="-1.6781053"><ele>146.0</ele><time>2026-04-01T14:18:28.376Z</time></trkpt><trkpt lat="53.7724577" lon="-1.6780126"><ele>146.0</ele><time>2026-04-01T14:18:29.381Z</time></trkpt><trkpt lat="53.7725344" lon="-1.6779172"><ele>146.0</ele><time>2026-04-01T14:18:30.374Z</time></trkpt><trkpt lat="53.7726145" lon="-1.6778275"><ele>146.0</ele><time>2026-04-01T14:18:31.375Z</time></trkpt><trkpt lat="53.7726891" lon="-1.6777496"><ele>146.0</ele><time>2026-04-01T14:18:32.378Z</time></trkpt><trkpt lat="53.7727573" lon="-1.6776746"><ele>146.0</ele><time>2026-04-01T14:18:33.376Z</time></trkpt><trkpt lat="53.7728194" lon="-1.677603"><ele>145.5</ele><time>2026-04-01T14:18:34.378Z</time></trkpt><trkpt lat="53.7728804" lon="-1.6775312"><ele>145.0</ele><time>2026-04-01T14:18:35.374Z</time></trkpt><trkpt lat="53.7729456" lon="-1.6774457"><ele>144.5</ele><time>2026-04-01T14:18:36.374Z</time></trkpt><trkpt lat="53.773009" lon="-1.6773527"><ele>144.0</ele><time>2026-04-01T14:18:37.374Z</time></trkpt><trkpt lat="53.773067" lon="-1.6772599"><ele>143.5</ele><time>2026-04-01T14:18:38.377Z</time></trkpt><trkpt lat="53.7731213" lon="-1.6771788"><ele>143.0</ele><time>2026-04-01T14:18:39.373Z</time></trkpt><trkpt lat="53.7732137" lon="-1.6770519"><ele>143.0</ele><time>2026-04-01T14:18:41.373Z</time></trkpt><trkpt lat="53.7732994" lon="-1.6769545"><ele>143.0</ele><time>2026-04-01T14:18:43.371Z</time></trkpt><trkpt lat="53.7733796" lon="-1.6768908"><ele>143.0</ele><time>2026-04-01T14:18:46.371Z</time></trkpt><trkpt lat="53.7734474" lon="-1.6769137"><ele>143.0</ele><time>2026-04-01T14:18:48.372Z</time></trkpt><trkpt lat="53.773519" lon="-1.6770014"><ele>143.0</ele><time>2026-04-01T14:18:50.371Z</time></trkpt><trkpt lat="53.7735942" lon="-1.6771125"><ele>143.0</ele><time>2026-04-01T14:18:52.372Z</time></trkpt><trkpt lat="53.7736588" lon="-1.6772009"><ele>141.99999999999997</ele><time>2026-04-01T14:18:54.376Z</time></trkpt><trkpt lat="53.7737" lon="-1.6772893"><ele>141.0</ele><time>2026-04-01T14:18:56.37Z</time></trkpt><trkpt lat="53.7737571" lon="-1.677407"><ele>140.0</ele><time>2026-04-01T14:18:59.373Z</time></trkpt><trkpt lat="53.773807" lon="-1.6775022"><ele>139.0</ele><time>2026-04-01T14:19:02.366Z</time></trkpt><trkpt lat="53.7738005" lon="-1.6776394"><ele>138.0</ele><time>2026-04-01T14:19:05.369Z</time></trkpt><trkpt lat="53.7737962" lon="-1.6777486"><ele>136.99999999999997</ele><time>2026-04-01T14:19:07.374Z</time></trkpt><trkpt lat="53.7738494" lon="-1.6778065"><ele>136.0</ele><time>2026-04-01T14:19:10.374Z</time></trkpt><trkpt lat="53.7737639" lon="-1.6778291"><ele>136.0</ele><time>2026-04-01T14:19:22.371Z</time></trkpt><trkpt lat="53.773711" lon="-1.6780139"><ele>136.0</ele><time>2026-04-01T14:19:24.371Z</time></trkpt><trkpt lat="53.7736801" lon="-1.6781328"><ele>136.0</ele><time>2026-04-01T14:19:25.37Z</time></trkpt><trkpt lat="53.7736443" lon="-1.6782612"><ele>136.0</ele><time>2026-04-01T14:19:26.374Z</time></trkpt><trkpt lat="53.7736094" lon="-1.678378"><ele>136.0</ele><time>2026-04-01T14:19:27.373Z</time></trkpt><trkpt lat="53.7735666" lon="-1.6785495"><ele>135.28571428571428</ele><time>2026-04-01T14:19:29.37Z</time></trkpt><trkpt lat="53.7735785" lon="-1.6786682"><ele>134.57142857142856</ele><time>2026-04-01T14:19:31.365Z</time></trkpt><trkpt lat="53.7736395" lon="-1.6787583"><ele>133.85714285714286</ele><time>2026-04-01T14:19:33.373Z</time></trkpt><trkpt lat="53.7736663" lon="-1.6788752"><ele>133.14285714285714</ele><time>2026-04-01T14:19:35.374Z</time></trkpt><trkpt lat="53.7736377" lon="-1.6790059"><ele>132.42857142857144</ele><time>2026-04-01T14:19:37.375Z</time></trkpt><trkpt lat="53.7735977" lon="-1.6791071"><ele>131.71428571428572</ele><time>2026-04-01T14:19:39.374Z</time></trkpt><trkpt lat="53.7735693" lon="-1.6792035"><ele>131.0</ele><time>2026-04-01T14:19:41.376Z</time></trkpt><trkpt lat="53.7735628" lon="-1.6793231"><ele>129.83333333333331</ele><time>2026-04-01T14:19:44.373Z</time></trkpt><trkpt lat="53.7735822" lon="-1.679449"><ele>128.66666666666666</ele><time>2026-04-01T14:19:47.379Z</time></trkpt><trkpt lat="53.7736038" lon="-1.6795677"><ele>127.5</ele><time>2026-04-01T14:19:49.381Z</time></trkpt><trkpt lat="53.7736086" lon="-1.679706"><ele>126.33333333333334</ele><time>2026-04-01T14:19:51.377Z</time></trkpt><trkpt lat="53.7736523" lon="-1.6797916"><ele>125.16666666666667</ele><time>2026-04-01T14:19:53.375Z</time></trkpt><trkpt lat="53.7737285" lon="-1.6797929"><ele>124.0</ele><time>2026-04-01T14:19:56.373Z</time></trkpt><trkpt lat="53.7738076" lon="-1.679743"><ele>124.0</ele><time>2026-04-01T14:19:59.37Z</time></trkpt><trkpt lat="53.7738812" lon="-1.6797217"><ele>124.0</ele><time>2026-04-01T14:20:01.373Z</time></trkpt><trkpt lat="53.7739579" lon="-1.6797341"><ele>124.0</ele><time>2026-04-01T14:20:03.372Z</time></trkpt><trkpt lat="53.7740583" lon="-1.6797584"><ele>124.0</ele><time>2026-04-01T14:20:05.373Z</time></trkpt><trkpt lat="53.7741641" lon="-1.679788"><ele>124.0</ele><time>2026-04-01T14:20:07.373Z</time></trkpt><trkpt lat="53.7742875" lon="-1.6797738"><ele>122.33333333333334</ele><time>2026-04-01T14:20:09.375Z</time></trkpt><trkpt lat="53.7743722" lon="-1.6797263"><ele>120.66666666666667</ele><time>2026-04-01T14:20:11.373Z</time></trkpt><trkpt lat="53.7744619" lon="-1.6796899"><ele>119.0</ele><time>2026-04-01T14:20:13.372Z</time></trkpt><trkpt lat="53.7745472" lon="-1.6796538"><ele>117.33333333333334</ele><time>2026-04-01T14:20:15.373Z</time></trkpt><trkpt lat="53.7746177" lon="-1.6796354"><ele>115.66666666666667</ele><time>2026-04-01T14:20:17.371Z</time></trkpt><trkpt lat="53.7745307" lon="-1.6796947"><ele>114.0</ele><time>2026-04-01T14:21:11.371Z</time></trkpt><trkpt lat="53.7744232" lon="-1.6797495"><ele>115.66666666666667</ele><time>2026-04-01T14:21:12.367Z</time></trkpt><trkpt lat="53.7743275" lon="-1.679765"><ele>117.33333333333334</ele><time>2026-04-01T14:21:13.368Z</time></trkpt><trkpt lat="53.7742441" lon="-1.6797758"><ele>119.0</ele><time>2026-04-01T14:21:14.369Z</time></trkpt><trkpt lat="53.7741689" lon="-1.6797691"><ele>120.66666666666667</ele><time>2026-04-01T14:21:15.366Z</time></trkpt><trkpt lat="53.7741017" lon="-1.6797649"><ele>122.33333333333334</ele><time>2026-04-01T14:21:16.369Z</time></trkpt><trkpt lat="53.7739999" lon="-1.6797568"><ele>124.0</ele><time>2026-04-01T14:21:18.369Z</time></trkpt><trkpt lat="53.7739159" lon="-1.6797042"><ele>124.00000000000001</ele><time>2026-04-01T14:21:20.368Z</time></trkpt><trkpt lat="53.7738509" lon="-1.67958"><ele>124.0</ele><time>2026-04-01T14:21:22.367Z</time></trkpt><trkpt lat="53.7738005" lon="-1.6794647"><ele>124.0</ele><time>2026-04-01T14:21:24.367Z</time></trkpt><trkpt lat="53.7737354" lon="-1.679396"><ele>124.0</ele><time>2026-04-01T14:21:38.394Z</time></trkpt><trkpt lat="53.7736544" lon="-1.6794194"><ele>124.00000000000001</ele><time>2026-04-01T14:21:58.395Z</time></trkpt><trkpt lat="53.7736057" lon="-1.6795101"><ele>124.0</ele><time>2026-04-01T14:22:01.419Z</time></trkpt><trkpt lat="53.7735951" lon="-1.6796485"><ele>124.00000000000001</ele><time>2026-04-01T14:22:03.372Z</time></trkpt><trkpt lat="53.7736157" lon="-1.6797547"><ele>124.0</ele><time>2026-04-01T14:22:05.334Z</time></trkpt><trkpt lat="53.7736884" lon="-1.6797966"><ele>124.0</ele><time>2026-04-01T14:22:07.373Z</time></trkpt><trkpt lat="53.7737801" lon="-1.6797722"><ele>124.0</ele><time>2026-04-01T14:22:10.371Z</time></trkpt><trkpt lat="53.7738586" lon="-1.6797427"><ele>124.00000000000001</ele><time>2026-04-01T14:22:13.368Z</time></trkpt><trkpt lat="53.7739097" lon="-1.6796756"><ele>124.0</ele><time>2026-04-01T14:22:37.3Z</time></trkpt><trkpt lat="53.7739255" lon="-1.679548"><ele>125.16666666666667</ele><time>2026-04-01T14:22:39.375Z</time></trkpt><trkpt lat="53.7739343" lon="-1.6794162"><ele>126.33333333333334</ele><time>2026-04-01T14:22:42.395Z</time></trkpt><trkpt lat="53.7738894" lon="-1.6793132"><ele>127.5</ele><time>2026-04-01T14:22:46.319Z</time></trkpt><trkpt lat="53.7738316" lon="-1.6792101"><ele>128.66666666666666</ele><time>2026-04-01T14:22:48.372Z</time></trkpt><trkpt lat="53.7737518" lon="-1.6791454"><ele>129.83333333333331</ele><time>2026-04-01T14:22:50.373Z</time></trkpt><trkpt lat="53.7736688" lon="-1.6791479"><ele>131.0</ele><time>2026-04-01T14:22:52.395Z</time></trkpt><trkpt lat="53.7736297" lon="-1.6792518"><ele>131.0</ele><time>2026-04-01T14:22:54.395Z</time></trkpt><trkpt lat="53.7736348" lon="-1.6793889"><ele>131.0</ele><time>2026-04-01T14:22:56.372Z</time></trkpt><trkpt lat="53.7736648" lon="-1.6795013"><ele>131.0</ele><time>2026-04-01T14:22:58.375Z</time></trkpt><trkpt lat="53.7736705" lon="-1.6796609"><ele>131.0</ele><time>2026-04-01T14:23:01.377Z</time></trkpt><trkpt lat="53.7736788" lon="-1.6797751"><ele>131.0</ele><time>2026-04-01T14:23:03.374Z</time></trkpt><trkpt lat="53.7737628" lon="-1.6797887"><ele>131.0</ele><time>2026-04-01T14:23:07.374Z</time></trkpt><trkpt lat="53.773832" lon="-1.6797327"><ele>129.6</ele><time>2026-04-01T14:23:09.373Z</time></trkpt><trkpt lat="53.7739488" lon="-1.6797586"><ele>128.2</ele><time>2026-04-01T14:24:07.373Z</time></trkpt><trkpt lat="53.7740665" lon="-1.6797472"><ele>126.80000000000001</ele><time>2026-04-01T14:24:09.373Z</time></trkpt><trkpt lat="53.7741425" lon="-1.6797581"><ele>125.4</ele><time>2026-04-01T14:24:10.374Z</time></trkpt><trkpt lat="53.7742125" lon="-1.679757"><ele>124.0</ele><time>2026-04-01T14:24:11.375Z</time></trkpt><trkpt lat="53.7742949" lon="-1.6797377"><ele>122.33333333333334</ele><time>2026-04-01T14:24:13.368Z</time></trkpt><trkpt lat="53.7743735" lon="-1.6797122"><ele>120.66666666666667</ele><time>2026-04-01T14:24:15.369Z</time></trkpt><trkpt lat="53.7744375" lon="-1.6796884"><ele>119.0</ele><time>2026-04-01T14:24:17.37Z</time></trkpt><trkpt lat="53.7745271" lon="-1.6796683"><ele>117.33333333333334</ele><time>2026-04-01T14:24:20.37Z</time></trkpt><trkpt lat="53.7746288" lon="-1.6796516"><ele>115.66666666666667</ele><time>2026-04-01T14:24:22.37Z</time></trkpt><trkpt lat="53.7747188" lon="-1.6796334"><ele>114.0</ele><time>2026-04-01T14:24:23.37Z</time></trkpt><trkpt lat="53.77483" lon="-1.6796043"><ele>114.0</ele><time>2026-04-01T14:24:24.372Z</time></trkpt><trkpt lat="53.7749286" lon="-1.679583"><ele>114.0</ele><time>2026-04-01T14:24:25.369Z</time></trkpt><trkpt lat="53.7750025" lon="-1.6795787"><ele>114.0</ele><time>2026-04-01T14:24:26.369Z</time></trkpt><trkpt lat="53.7750717" lon="-1.6796128"><ele>114.0</ele><time>2026-04-01T14:24:28.37Z</time></trkpt><trkpt lat="53.775156" lon="-1.6796953"><ele>114.0</ele><time>2026-04-01T14:24:34.381Z</time></trkpt><trkpt lat="53.7752645" lon="-1.679734"><ele>113.33333333333333</ele><time>2026-04-01T14:24:36.373Z</time></trkpt><trkpt lat="53.7753517" lon="-1.6797059"><ele>112.66666666666666</ele><time>2026-04-01T14:24:38.373Z</time></trkpt><trkpt lat="53.7754142" lon="-1.6796694"><ele>112.0</ele><time>2026-04-01T14:24:41.374Z</time></trkpt><trkpt lat="53.7754691" lon="-1.679614"><ele>111.33333333333333</ele><time>2026-04-01T14:24:44.374Z</time></trkpt><trkpt lat="53.7754664" lon="-1.6794219"><ele>110.66666666666666</ele><time>2026-04-01T14:24:46.373Z</time></trkpt><trkpt lat="53.775462" lon="-1.6793005"><ele>110.0</ele><time>2026-04-01T14:24:47.373Z</time></trkpt><trkpt lat="53.7754652" lon="-1.6791032"><ele>109.8</ele><time>2026-04-01T14:24:49.371Z</time></trkpt><trkpt lat="53.7755282" lon="-1.6788885"><ele>109.6</ele><time>2026-04-01T14:24:51.373Z</time></trkpt><trkpt lat="53.7755912" lon="-1.6787444"><ele>109.4</ele><time>2026-04-01T14:24:52.371Z</time></trkpt><trkpt lat="53.7756476" lon="-1.6786009"><ele>109.2</ele><time>2026-04-01T14:24:53.371Z</time></trkpt><trkpt lat="53.7756871" lon="-1.6784788"><ele>109.0</ele><time>2026-04-01T14:24:54.372Z</time></trkpt><trkpt lat="53.7757329" lon="-1.6783239"><ele>109.0</ele><time>2026-04-01T14:24:56.37Z</time></trkpt><trkpt lat="53.7757582" lon="-1.6782229"><ele>109.0</ele><time>2026-04-01T14:24:58.371Z</time></trkpt><trkpt lat="53.7757866" lon="-1.6781196"><ele>109.0</ele><time>2026-04-01T14:25:02.374Z</time></trkpt><trkpt lat="53.775772" lon="-1.6779889"><ele>109.0</ele><time>2026-04-01T14:25:10.377Z</time></trkpt><trkpt lat="53.7757104" lon="-1.6778899"><ele>109.0</ele><time>2026-04-01T14:25:12.372Z</time></trkpt><trkpt lat="53.7756448" lon="-1.6777924"><ele>109.0</ele><time>2026-04-01T14:25:14.376Z</time></trkpt><trkpt lat="53.7756287" lon="-1.6776884"><ele>109.0</ele><time>2026-04-01T14:25:37.376Z</time></trkpt><trkpt lat="53.7756797" lon="-1.6775894"><ele>109.0</ele><time>2026-04-01T14:25:39.375Z</time></trkpt><trkpt lat="53.7757277" lon="-1.6775165"><ele>109.0</ele><time>2026-04-01T14:25:46.373Z</time></trkpt><trkpt lat="53.7756622" lon="-1.6775194"><ele>109.0</ele><time>2026-04-01T14:25:50.375Z</time></trkpt><trkpt lat="53.7755745" lon="-1.6775911"><ele>109.0</ele><time>2026-04-01T14:25:52.374Z</time></trkpt><trkpt lat="53.7755318" lon="-1.6776871"><ele>109.0</ele><time>2026-04-01T14:25:54.372Z</time></trkpt><trkpt lat="53.7755573" lon="-1.6777882"><ele>109.0</ele><time>2026-04-01T14:26:01.377Z</time></trkpt><trkpt lat="53.7755774" lon="-1.6779055"><ele>109.0</ele><time>2026-04-01T14:26:03.381Z</time></trkpt><trkpt lat="53.7756086" lon="-1.6780307"><ele>109.00000000000001</ele><time>2026-04-01T14:26:05.374Z</time></trkpt><trkpt lat="53.7756679" lon="-1.6781438"><ele>109.0</ele><time>2026-04-01T14:26:08.375Z</time></trkpt><trkpt lat="53.7757045" lon="-1.6782557"><ele>109.0</ele><time>2026-04-01T14:26:11.374Z</time></trkpt><trkpt lat="53.7757737" lon="-1.6781895"><ele>109.0</ele><time>2026-04-01T14:26:15.376Z</time></trkpt><trkpt lat="53.775837" lon="-1.6780041"><ele>109.00000000000001</ele><time>2026-04-01T14:26:18.374Z</time></trkpt><trkpt lat="53.7758767" lon="-1.6779043"><ele>109.0</ele><time>2026-04-01T14:26:20.374Z</time></trkpt><trkpt lat="53.7759719" lon="-1.6778339"><ele>109.2</ele><time>2026-04-01T14:26:40.369Z</time></trkpt><trkpt lat="53.7760564" lon="-1.677742"><ele>109.4</ele><time>2026-04-01T14:26:41.37Z</time></trkpt><trkpt lat="53.7761499" lon="-1.6776178"><ele>109.6</ele><time>2026-04-01T14:26:42.365Z</time></trkpt><trkpt lat="53.7762317" lon="-1.6774765"><ele>109.8</ele><time>2026-04-01T14:26:43.372Z</time></trkpt><trkpt lat="53.7762885" lon="-1.6773385"><ele>110.0</ele><time>2026-04-01T14:26:44.369Z</time></trkpt><trkpt lat="53.7763197" lon="-1.6772149"><ele>109.99999999999999</ele><time>2026-04-01T14:26:45.371Z</time></trkpt><trkpt lat="53.7763345" lon="-1.6770898"><ele>110.0</ele><time>2026-04-01T14:26:46.374Z</time></trkpt><trkpt lat="53.7763432" lon="-1.6769517"><ele>110.0</ele><time>2026-04-01T14:26:47.373Z</time></trkpt><trkpt lat="53.7763436" lon="-1.676795"><ele>110.0</ele><time>2026-04-01T14:26:48.372Z</time></trkpt><trkpt lat="53.7763388" lon="-1.67663"><ele>109.99999999999999</ele><time>2026-04-01T14:26:49.368Z</time></trkpt><trkpt lat="53.7763341" lon="-1.676472"><ele>110.0</ele><time>2026-04-01T14:26:50.364Z</time></trkpt><trkpt lat="53.7763349" lon="-1.6763204"><ele>109.99999999999999</ele><time>2026-04-01T14:26:51.366Z</time></trkpt><trkpt lat="53.7763489" lon="-1.6761837"><ele>110.0</ele><time>2026-04-01T14:26:52.369Z</time></trkpt><trkpt lat="53.7763723" lon="-1.6760647"><ele>110.0</ele><time>2026-04-01T14:26:53.369Z</time></trkpt><trkpt lat="53.7764009" lon="-1.6759688"><ele>110.0</ele><time>2026-04-01T14:26:54.369Z</time></trkpt><trkpt lat="53.7764845" lon="-1.6758221"><ele>109.99999999999999</ele><time>2026-04-01T14:26:56.372Z</time></trkpt><trkpt lat="53.7765701" lon="-1.6757413"><ele>110.0</ele><time>2026-04-01T14:26:58.37Z</time></trkpt><trkpt lat="53.7766158" lon="-1.675667"><ele>109.8</ele><time>2026-04-01T14:27:00.372Z</time></trkpt><trkpt lat="53.7765438" lon="-1.6755545"><ele>109.6</ele><time>2026-04-01T14:27:03.373Z</time></trkpt><trkpt lat="53.7764252" lon="-1.675611"><ele>109.4</ele><time>2026-04-01T14:27:05.366Z</time></trkpt><trkpt lat="53.7763352" lon="-1.6757063"><ele>109.2</ele><time>2026-04-01T14:27:07.37Z</time></trkpt><trkpt lat="53.7763148" lon="-1.6758332"><ele>109.0</ele><time>2026-04-01T14:27:09.373Z</time></trkpt><trkpt lat="53.7762929" lon="-1.6759439"><ele>109.0</ele><time>2026-04-01T14:27:11.374Z</time></trkpt><trkpt lat="53.7762752" lon="-1.6760627"><ele>109.0</ele><time>2026-04-01T14:27:17.373Z</time></trkpt><trkpt lat="53.7762584" lon="-1.6761954"><ele>109.0</ele><time>2026-04-01T14:27:27.371Z</time></trkpt><trkpt lat="53.7762476" lon="-1.6763167"><ele>109.0</ele><time>2026-04-01T14:27:30.372Z</time></trkpt><trkpt lat="53.7762433" lon="-1.6764529"><ele>109.0</ele><time>2026-04-01T14:27:33.373Z</time></trkpt><trkpt lat="53.7762316" lon="-1.6765641"><ele>109.0</ele><time>2026-04-01T14:27:35.374Z</time></trkpt><trkpt lat="53.7762177" lon="-1.6766764"><ele>109.0</ele><time>2026-04-01T14:27:37.375Z</time></trkpt><trkpt lat="53.7762038" lon="-1.6767909"><ele>109.14285714285714</ele><time>2026-04-01T14:27:40.375Z</time></trkpt><trkpt lat="53.7761736" lon="-1.6768909"><ele>109.28571428571429</ele><time>2026-04-01T14:27:43.373Z</time></trkpt><trkpt lat="53.7761617" lon="-1.6769974"><ele>109.42857142857142</ele><time>2026-04-01T14:27:48.366Z</time></trkpt><trkpt lat="53.7761012" lon="-1.6770496"><ele>109.57142857142857</ele><time>2026-04-01T14:29:46.371Z</time></trkpt><trkpt lat="53.7760728" lon="-1.6769289"><ele>109.71428571428571</ele><time>2026-04-01T14:29:49.374Z</time></trkpt><trkpt lat="53.7759914" lon="-1.6768911"><ele>109.85714285714285</ele><time>2026-04-01T14:36:36.379Z</time></trkpt><trkpt lat="53.7759033" lon="-1.6768921"><ele>110.0</ele><time>2026-04-01T14:36:39.378Z</time></trkpt><trkpt lat="53.7759054" lon="-1.676775"><ele>110.16666666666666</ele><time>2026-04-01T14:36:43.378Z</time></trkpt><trkpt lat="53.775967" lon="-1.6766627"><ele>110.33333333333333</ele><time>2026-04-01T14:36:46.38Z</time></trkpt><trkpt lat="53.7759873" lon="-1.6765498"><ele>110.5</ele><time>2026-04-01T14:36:48.38Z</time></trkpt><trkpt lat="53.7759651" lon="-1.6764156"><ele>110.66666666666666</ele><time>2026-04-01T14:36:52.381Z</time></trkpt><trkpt lat="53.7759621" lon="-1.6762769"><ele>110.83333333333333</ele><time>2026-04-01T14:36:54.378Z</time></trkpt><trkpt lat="53.7759908" lon="-1.6761231"><ele>111.0</ele><time>2026-04-01T14:36:57.383Z</time></trkpt><trkpt lat="53.7760102" lon="-1.6759637"><ele>110.8</ele><time>2026-04-01T14:36:59.381Z</time></trkpt><trkpt lat="53.7760369" lon="-1.6758123"><ele>110.6</ele><time>2026-04-01T14:37:01.378Z</time></trkpt><trkpt lat="53.7761022" lon="-1.6756327"><ele>110.4</ele><time>2026-04-01T14:37:03.38Z</time></trkpt><trkpt lat="53.7761503" lon="-1.6755103"><ele>110.2</ele><time>2026-04-01T14:37:05.379Z</time></trkpt><trkpt lat="53.7761859" lon="-1.6753789"><ele>110.0</ele><time>2026-04-01T14:37:08.379Z</time></trkpt><trkpt lat="53.776171" lon="-1.6752108"><ele>110.0</ele><time>2026-04-01T14:37:11.376Z</time></trkpt><trkpt lat="53.7761735" lon="-1.6750534"><ele>110.0</ele><time>2026-04-01T14:37:13.378Z</time></trkpt><trkpt lat="53.7761958" lon="-1.6748874"><ele>110.0</ele><time>2026-04-01T14:37:15.38Z</time></trkpt><trkpt lat="53.7762427" lon="-1.6747651"><ele>110.0</ele><time>2026-04-01T14:37:17.375Z</time></trkpt><trkpt lat="53.776345" lon="-1.6746431"><ele>110.0</ele><time>2026-04-01T14:37:18.376Z</time></trkpt><trkpt lat="53.7764066" lon="-1.6745731"><ele>109.99999999999999</ele><time>2026-04-01T14:37:21.375Z</time></trkpt><trkpt lat="53.7763857" lon="-1.6744698"><ele>110.0</ele><time>2026-04-01T14:37:23.377Z</time></trkpt><trkpt lat="53.7763364" lon="-1.6743044"><ele>110.0</ele><time>2026-04-01T14:37:25.378Z</time></trkpt><trkpt lat="53.7763012" lon="-1.6742143"><ele>110.0</ele><time>2026-04-01T14:37:26.374Z</time></trkpt><trkpt lat="53.7762561" lon="-1.6741201"><ele>110.0</ele><time>2026-04-01T14:37:27.376Z</time></trkpt><trkpt lat="53.7762099" lon="-1.6740359"><ele>109.99999999999999</ele><time>2026-04-01T14:37:28.378Z</time></trkpt><trkpt lat="53.7761711" lon="-1.6739513"><ele>110.0</ele><time>2026-04-01T14:37:29.382Z</time></trkpt><trkpt lat="53.7761339" lon="-1.6738494"><ele>110.33333333333333</ele><time>2026-04-01T14:37:30.379Z</time></trkpt><trkpt lat="53.7760994" lon="-1.6737326"><ele>110.66666666666666</ele><time>2026-04-01T14:37:31.376Z</time></trkpt><trkpt lat="53.7760692" lon="-1.673626"><ele>111.0</ele><time>2026-04-01T14:37:32.378Z</time></trkpt><trkpt lat="53.7760248" lon="-1.6734771"><ele>111.33333333333334</ele><time>2026-04-01T14:37:34.379Z</time></trkpt><trkpt lat="53.7760003" lon="-1.6733654"><ele>111.66666666666667</ele><time>2026-04-01T14:37:36.379Z</time></trkpt><trkpt lat="53.7759229" lon="-1.6733688"><ele>112.0</ele><time>2026-04-01T14:37:39.381Z</time></trkpt><trkpt lat="53.7759402" lon="-1.6734947"><ele>114.16666666666667</ele><time>2026-04-01T14:37:42.376Z</time></trkpt><trkpt lat="53.7760091" lon="-1.6734614"><ele>116.33333333333334</ele><time>2026-04-01T14:37:45.381Z</time></trkpt><trkpt lat="53.7760186" lon="-1.6733253"><ele>118.5</ele><time>2026-04-01T14:37:48.379Z</time></trkpt><trkpt lat="53.7759581" lon="-1.6732627"><ele>120.66666666666666</ele><time>2026-04-01T14:37:50.378Z</time></trkpt><trkpt lat="53.775891" lon="-1.6731536"><ele>122.83333333333333</ele><time>2026-04-01T14:37:53.378Z</time></trkpt><trkpt lat="53.7758317" lon="-1.6730921"><ele>125.0</ele><time>2026-04-01T14:37:55.378Z</time></trkpt><trkpt lat="53.775754" lon="-1.6731053"><ele>124.99999999999999</ele><time>2026-04-01T14:37:57.379Z</time></trkpt><trkpt lat="53.7756764" lon="-1.6731448"><ele>125.0</ele><time>2026-04-01T14:37:59.379Z</time></trkpt><trkpt lat="53.7755939" lon="-1.6731967"><ele>125.0</ele><time>2026-04-01T14:38:01.376Z</time></trkpt><trkpt lat="53.7754825" lon="-1.6732277"><ele>125.0</ele><time>2026-04-01T14:38:03.379Z</time></trkpt><trkpt lat="53.7754158" lon="-1.673227"><ele>124.99999999999999</ele><time>2026-04-01T14:38:04.383Z</time></trkpt><trkpt lat="53.7753516" lon="-1.6732027"><ele>125.0</ele><time>2026-04-01T14:38:05.38Z</time></trkpt><trkpt lat="53.7752491" lon="-1.6731066"><ele>125.0</ele><time>2026-04-01T14:38:07.379Z</time></trkpt><trkpt lat="53.7752055" lon="-1.673003"><ele>125.0</ele><time>2026-04-01T14:38:09.379Z</time></trkpt><trkpt lat="53.7751201" lon="-1.6727974"><ele>125.0</ele><time>2026-04-01T14:38:11.378Z</time></trkpt><trkpt lat="53.7750577" lon="-1.6726354"><ele>125.0</ele><time>2026-04-01T14:38:13.375Z</time></trkpt><trkpt lat="53.7749854" lon="-1.6725026"><ele>125.0</ele><time>2026-04-01T14:38:15.373Z</time></trkpt><trkpt lat="53.7749362" lon="-1.672416"><ele>127.16666666666666</ele><time>2026-04-01T14:38:17.373Z</time></trkpt><trkpt lat="53.7748723" lon="-1.6723792"><ele>129.33333333333331</ele><time>2026-04-01T14:38:21.372Z</time></trkpt><trkpt lat="53.7747926" lon="-1.6723782"><ele>131.5</ele><time>2026-04-01T14:38:23.374Z</time></trkpt><trkpt lat="53.7747261" lon="-1.6724234"><ele>133.66666666666666</ele><time>2026-04-01T14:38:25.373Z</time></trkpt><trkpt lat="53.7746679" lon="-1.6725271"><ele>135.83333333333334</ele><time>2026-04-01T14:38:30.373Z</time></trkpt><trkpt lat="53.7745807" lon="-1.6725385"><ele>138.0</ele><time>2026-04-01T14:38:32.375Z</time></trkpt><trkpt lat="53.7744577" lon="-1.6724786"><ele>138.0</ele><time>2026-04-01T14:38:34.375Z</time></trkpt><trkpt lat="53.7743978" lon="-1.6724377"><ele>138.0</ele><time>2026-04-01T14:38:35.378Z</time></trkpt><trkpt lat="53.7742784" lon="-1.672376"><ele>138.0</ele><time>2026-04-01T14:38:37.375Z</time></trkpt><trkpt lat="53.7742151" lon="-1.6723579"><ele>138.0</ele><time>2026-04-01T14:38:38.375Z</time></trkpt><trkpt lat="53.7741139" lon="-1.6723196"><ele>138.0</ele><time>2026-04-01T14:38:40.376Z</time></trkpt><trkpt lat="53.7740567" lon="-1.6721809"><ele>139.0</ele><time>2026-04-01T14:38:42.376Z</time></trkpt><trkpt lat="53.7740393" lon="-1.6720534"><ele>140.0</ele><time>2026-04-01T14:38:43.375Z</time></trkpt><trkpt lat="53.7740356" lon="-1.6719082"><ele>141.0</ele><time>2026-04-01T14:38:44.376Z</time></trkpt><trkpt lat="53.7740379" lon="-1.6717727"><ele>142.0</ele><time>2026-04-01T14:38:45.377Z</time></trkpt><trkpt lat="53.7740316" lon="-1.671659"><ele>143.0</ele><time>2026-04-01T14:38:46.375Z</time></trkpt><trkpt lat="53.7739857" lon="-1.6715113"><ele>144.0</ele><time>2026-04-01T14:38:48.374Z</time></trkpt><trkpt lat="53.7739162" lon="-1.6714451"><ele>144.0</ele><time>2026-04-01T14:38:51.38Z</time></trkpt><trkpt lat="53.7738769" lon="-1.6716097"><ele>144.0</ele><time>2026-04-01T14:38:59.378Z</time></trkpt><trkpt lat="53.773849" lon="-1.6717491"><ele>144.0</ele><time>2026-04-01T14:39:00.377Z</time></trkpt><trkpt lat="53.7738083" lon="-1.671933"><ele>144.0</ele><time>2026-04-01T14:39:01.379Z</time></trkpt><trkpt lat="53.7737575" lon="-1.6721157"><ele>144.0</ele><time>2026-04-01T14:39:02.379Z</time></trkpt><trkpt lat="53.7737064" lon="-1.6722596"><ele>144.0</ele><time>2026-04-01T14:39:03.378Z</time></trkpt><trkpt lat="53.7736583" lon="-1.672389"><ele>144.0</ele><time>2026-04-01T14:39:04.381Z</time></trkpt><trkpt lat="53.773617" lon="-1.6725162"><ele>144.0</ele><time>2026-04-01T14:39:05.374Z</time></trkpt><trkpt lat="53.7735847" lon="-1.6726399"><ele>144.0</ele><time>2026-04-01T14:39:06.376Z</time></trkpt><trkpt lat="53.7735624" lon="-1.6727566"><ele>144.0</ele><time>2026-04-01T14:39:07.378Z</time></trkpt><trkpt lat="53.7735434" lon="-1.6728639"><ele>144.0</ele><time>2026-04-01T14:39:08.379Z</time></trkpt><trkpt lat="53.773522" lon="-1.6730419"><ele>143.42857142857144</ele><time>2026-04-01T14:39:10.373Z</time></trkpt><trkpt lat="53.7735443" lon="-1.6731494"><ele>142.85714285714286</ele><time>2026-04-01T14:39:12.383Z</time></trkpt><trkpt lat="53.7735984" lon="-1.6732449"><ele>142.28571428571428</ele><time>2026-04-01T14:39:14.376Z</time></trkpt><trkpt lat="53.7736413" lon="-1.673338"><ele>141.71428571428572</ele><time>2026-04-01T14:39:16.383Z</time></trkpt><trkpt lat="53.7736822" lon="-1.6734241"><ele>141.14285714285714</ele><time>2026-04-01T14:39:18.378Z</time></trkpt><trkpt lat="53.7737232" lon="-1.6735285"><ele>140.57142857142858</ele><time>2026-04-01T14:39:21.382Z</time></trkpt><trkpt lat="53.7737322" lon="-1.6736382"><ele>140.0</ele><time>2026-04-01T14:39:25.385Z</time></trkpt><trkpt lat="53.7737756" lon="-1.6737206"><ele>139.4</ele><time>2026-04-01T14:39:27.378Z</time></trkpt><trkpt lat="53.7738221" lon="-1.6738124"><ele>138.8</ele><time>2026-04-01T14:39:30.375Z</time></trkpt><trkpt lat="53.7737852" lon="-1.6739806"><ele>138.2</ele><time>2026-04-01T14:39:33.384Z</time></trkpt><trkpt lat="53.7737577" lon="-1.6741381"><ele>137.6</ele><time>2026-04-01T14:39:35.375Z</time></trkpt><trkpt lat="53.7737541" lon="-1.6742944"><ele>137.0</ele><time>2026-04-01T14:39:37.377Z</time></trkpt><trkpt lat="53.7737383" lon="-1.674437"><ele>136.4</ele><time>2026-04-01T14:39:40.378Z</time></trkpt><trkpt lat="53.7737415" lon="-1.6745746"><ele>135.79999999999998</ele><time>2026-04-01T14:39:42.375Z</time></trkpt><trkpt lat="53.7737549" lon="-1.6747682"><ele>135.2</ele><time>2026-04-01T14:39:44.376Z</time></trkpt><trkpt lat="53.7737589" lon="-1.6749388"><ele>134.6</ele><time>2026-04-01T14:39:46.377Z</time></trkpt><trkpt lat="53.773704" lon="-1.6750009"><ele>134.0</ele><time>2026-04-01T14:39:48.38Z</time></trkpt><trkpt lat="53.773617" lon="-1.6749988"><ele>134.0</ele><time>2026-04-01T14:39:50.377Z</time></trkpt><trkpt lat="53.7735713" lon="-1.6751168"><ele>134.0</ele><time>2026-04-01T14:39:53.378Z</time></trkpt><trkpt lat="53.7735912" lon="-1.6752389"><ele>134.0</ele><time>2026-04-01T14:39:55.378Z</time></trkpt><trkpt lat="53.7735966" lon="-1.67537"><ele>134.0</ele><time>2026-04-01T14:39:58.375Z</time></trkpt><trkpt lat="53.7735668" lon="-1.6755017"><ele>134.0</ele><time>2026-04-01T14:40:02.371Z</time></trkpt><trkpt lat="53.7735238" lon="-1.6756202"><ele>134.0</ele><time>2026-04-01T14:40:04.375Z</time></trkpt><trkpt lat="53.7734851" lon="-1.6757124"><ele>135.83333333333331</ele><time>2026-04-01T14:40:06.367Z</time></trkpt><trkpt lat="53.773436" lon="-1.6757897"><ele>137.66666666666666</ele><time>2026-04-01T14:40:09.379Z</time></trkpt><trkpt lat="53.7733699" lon="-1.6757187"><ele>139.5</ele><time>2026-04-01T14:40:21.375Z</time></trkpt><trkpt lat="53.7733241" lon="-1.6755702"><ele>141.33333333333334</ele><time>2026-04-01T14:40:23.378Z</time></trkpt><trkpt lat="53.7732538" lon="-1.6754382"><ele>143.16666666666669</ele><time>2026-04-01T14:40:25.377Z</time></trkpt><trkpt lat="53.7731836" lon="-1.6753704"><ele>145.0</ele><time>2026-04-01T14:40:27.38Z</time></trkpt><trkpt lat="53.7732372" lon="-1.67531"><ele>145.0</ele><time>2026-04-01T14:41:08.377Z</time></trkpt><trkpt lat="53.7732402" lon="-1.6751812"><ele>145.0</ele><time>2026-04-01T14:41:21.38Z</time></trkpt><trkpt lat="53.7732585" lon="-1.6750707"><ele>145.0</ele><time>2026-04-01T14:41:30.383Z</time></trkpt><trkpt lat="53.7733168" lon="-1.674953"><ele>145.0</ele><time>2026-04-01T14:41:32.38Z</time></trkpt><trkpt lat="53.773401" lon="-1.6750231"><ele>145.0</ele><time>2026-04-01T14:41:35.381Z</time></trkpt><trkpt lat="53.7732958" lon="-1.6754759"><ele>145.0</ele><time>2026-04-01T14:42:14.381Z</time></trkpt><trkpt lat="53.7732774" lon="-1.6756214"><ele>145.0</ele><time>2026-04-01T14:42:16.382Z</time></trkpt><trkpt lat="53.7732675" lon="-1.6757667"><ele>145.0</ele><time>2026-04-01T14:42:18.378Z</time></trkpt><trkpt lat="53.7732013" lon="-1.6758904"><ele>145.0</ele><time>2026-04-01T14:42:21.373Z</time></trkpt><trkpt lat="53.7731078" lon="-1.6759608"><ele>145.0</ele><time>2026-04-01T14:42:23.377Z</time></trkpt><trkpt lat="53.7730466" lon="-1.6760838"><ele>145.0</ele><time>2026-04-01T14:42:25.376Z</time></trkpt><trkpt lat="53.773019" lon="-1.6762069"><ele>145.0</ele><time>2026-04-01T14:42:27.372Z</time></trkpt><trkpt lat="53.7729588" lon="-1.6763198"><ele>145.0</ele><time>2026-04-01T14:42:30.377Z</time></trkpt><trkpt lat="53.7728891" lon="-1.6763531"><ele>145.0</ele><time>2026-04-01T14:42:32.375Z</time></trkpt><trkpt lat="53.7727976" lon="-1.6762522"><ele>145.0</ele><time>2026-04-01T14:42:34.378Z</time></trkpt><trkpt lat="53.7727498" lon="-1.6761641"><ele>145.0</ele><time>2026-04-01T14:42:35.375Z</time></trkpt><trkpt lat="53.7727009" lon="-1.6760863"><ele>145.2</ele><time>2026-04-01T14:42:36.374Z</time></trkpt><trkpt lat="53.7725869" lon="-1.675993"><ele>145.4</ele><time>2026-04-01T14:42:38.378Z</time></trkpt><trkpt lat="53.7725155" lon="-1.6759897"><ele>145.6</ele><time>2026-04-01T14:42:39.378Z</time></trkpt><trkpt lat="53.7724385" lon="-1.6760275"><ele>145.8</ele><time>2026-04-01T14:42:40.378Z</time></trkpt><trkpt lat="53.77236" lon="-1.6761098"><ele>146.0</ele><time>2026-04-01T14:42:41.378Z</time></trkpt><trkpt lat="53.7722901" lon="-1.6762185"><ele>146.4</ele><time>2026-04-01T14:42:42.375Z</time></trkpt><trkpt lat="53.7722208" lon="-1.6763641"><ele>146.8</ele><time>2026-04-01T14:42:43.375Z</time></trkpt><trkpt lat="53.7721509" lon="-1.6765055"><ele>147.20000000000002</ele><time>2026-04-01T14:42:44.375Z</time></trkpt><trkpt lat="53.7720782" lon="-1.6766481"><ele>147.6</ele><time>2026-04-01T14:42:45.376Z</time></trkpt><trkpt lat="53.7720103" lon="-1.6767927"><ele>148.0</ele><time>2026-04-01T14:42:46.378Z</time></trkpt><trkpt lat="53.7719485" lon="-1.6769402"><ele>148.0</ele><time>2026-04-01T14:42:47.369Z</time></trkpt><trkpt lat="53.7718876" lon="-1.6770763"><ele>148.0</ele><time>2026-04-01T14:42:48.376Z</time></trkpt><trkpt lat="53.7718319" lon="-1.6772049"><ele>148.0</ele><time>2026-04-01T14:42:49.378Z</time></trkpt><trkpt lat="53.7717871" lon="-1.677325"><ele>148.0</ele><time>2026-04-01T14:42:50.376Z</time></trkpt><trkpt lat="53.7717406" lon="-1.6774825"><ele>148.0</ele><time>2026-04-01T14:42:52.375Z</time></trkpt><trkpt lat="53.7717822" lon="-1.6774007"><ele>148.0</ele><time>2026-04-01T14:51:47.382Z</time></trkpt><trkpt lat="53.7717956" lon="-1.6772645"><ele>148.0</ele><time>2026-04-01T14:51:49.381Z</time></trkpt><trkpt lat="53.7718685" lon="-1.6771327"><ele>148.0</ele><time>2026-04-01T14:51:50.381Z</time></trkpt><trkpt lat="53.7719097" lon="-1.6770057"><ele>148.0</ele><time>2026-04-01T14:51:51.382Z</time></trkpt><trkpt lat="53.7719475" lon="-1.676904"><ele>148.0</ele><time>2026-04-01T14:51:52.381Z</time></trkpt><trkpt lat="53.7720162" lon="-1.6767664"><ele>148.0</ele><time>2026-04-01T14:51:54.382Z</time></trkpt><trkpt lat="53.772117" lon="-1.6765981"><ele>148.0</ele><time>2026-04-01T14:51:56.383Z</time></trkpt><trkpt lat="53.7721773" lon="-1.6764922"><ele>148.0</ele><time>2026-04-01T14:51:57.381Z</time></trkpt><trkpt lat="53.7722278" lon="-1.6764009"><ele>148.0</ele><time>2026-04-01T14:51:58.379Z</time></trkpt><trkpt lat="53.7723114" lon="-1.6762638"><ele>148.0</ele><time>2026-04-01T14:52:00.379Z</time></trkpt><trkpt lat="53.7723866" lon="-1.676157"><ele>148.0</ele><time>2026-04-01T14:52:02.374Z</time></trkpt><trkpt lat="53.7724425" lon="-1.676076"><ele>148.0</ele><time>2026-04-01T14:52:04.381Z</time></trkpt><trkpt lat="53.7725366" lon="-1.6760416"><ele>147.66666666666669</ele><time>2026-04-01T14:52:07.373Z</time></trkpt><trkpt lat="53.7726221" lon="-1.6760723"><ele>147.33333333333334</ele><time>2026-04-01T14:52:09.382Z</time></trkpt><trkpt lat="53.7727051" lon="-1.6761489"><ele>147.0</ele><time>2026-04-01T14:52:11.375Z</time></trkpt><trkpt lat="53.7727501" lon="-1.6762238"><ele>146.66666666666666</ele><time>2026-04-01T14:52:12.371Z</time></trkpt><trkpt lat="53.7728031" lon="-1.676305"><ele>146.33333333333331</ele><time>2026-04-01T14:52:13.379Z</time></trkpt><trkpt lat="53.7728535" lon="-1.6763827"><ele>146.0</ele><time>2026-04-01T14:52:14.383Z</time></trkpt><trkpt lat="53.772907" lon="-1.6764551"><ele>145.66666666666666</ele><time>2026-04-01T14:52:15.374Z</time></trkpt><trkpt lat="53.7729671" lon="-1.6765355"><ele>145.33333333333331</ele><time>2026-04-01T14:52:16.381Z</time></trkpt><trkpt lat="53.7730344" lon="-1.6766238"><ele>145.0</ele><time>2026-04-01T14:52:17.382Z</time></trkpt><trkpt lat="53.7730978" lon="-1.6767202"><ele>144.66666666666666</ele><time>2026-04-01T14:52:18.381Z</time></trkpt><trkpt lat="53.7731496" lon="-1.6768133"><ele>144.33333333333334</ele><time>2026-04-01T14:52:19.382Z</time></trkpt><trkpt lat="53.7731906" lon="-1.6768952"><ele>144.0</ele><time>2026-04-01T14:52:20.379Z</time></trkpt><trkpt lat="53.7732797" lon="-1.6769774"><ele>144.0</ele><time>2026-04-01T14:52:22.381Z</time></trkpt><trkpt lat="53.7733441" lon="-1.6769654"><ele>144.0</ele><time>2026-04-01T14:52:23.381Z</time></trkpt><trkpt lat="53.7734226" lon="-1.6769182"><ele>144.0</ele><time>2026-04-01T14:52:24.381Z</time></trkpt><trkpt lat="53.7735182" lon="-1.6768481"><ele>144.0</ele><time>2026-04-01T14:52:25.38Z</time></trkpt><trkpt lat="53.7736207" lon="-1.6767558"><ele>144.0</ele><time>2026-04-01T14:52:26.38Z</time></trkpt><trkpt lat="53.7737236" lon="-1.6766507"><ele>142.5</ele><time>2026-04-01T14:52:27.381Z</time></trkpt><trkpt lat="53.7738155" lon="-1.6765604"><ele>141.0</ele><time>2026-04-01T14:52:28.378Z</time></trkpt><trkpt lat="53.7738993" lon="-1.6764871"><ele>139.5</ele><time>2026-04-01T14:52:29.379Z</time></trkpt><trkpt lat="53.7739748" lon="-1.676427"><ele>138.0</ele><time>2026-04-01T14:52:30.381Z</time></trkpt><trkpt lat="53.7740442" lon="-1.6763781"><ele>136.5</ele><time>2026-04-01T14:52:31.382Z</time></trkpt><trkpt lat="53.774114" lon="-1.6763308"><ele>135.0</ele><time>2026-04-01T14:52:32.378Z</time></trkpt><trkpt lat="53.7741782" lon="-1.676285"><ele>135.0</ele><time>2026-04-01T14:52:33.379Z</time></trkpt><trkpt lat="53.7742805" lon="-1.6762627"><ele>135.0</ele><time>2026-04-01T14:52:35.38Z</time></trkpt><trkpt lat="53.774358" lon="-1.6762824"><ele>135.0</ele><time>2026-04-01T14:52:37.378Z</time></trkpt><trkpt lat="53.7744276" lon="-1.6762418"><ele>135.0</ele><time>2026-04-01T14:52:40.384Z</time></trkpt><trkpt lat="53.7744799" lon="-1.6761654"><ele>135.0</ele><time>2026-04-01T14:52:42.387Z</time></trkpt><trkpt lat="53.7745348" lon="-1.6760702"><ele>135.0</ele><time>2026-04-01T14:52:44.387Z</time></trkpt><trkpt lat="53.774596" lon="-1.6759111"><ele>133.66666666666666</ele><time>2026-04-01T14:52:46.382Z</time></trkpt><trkpt lat="53.7746327" lon="-1.6757982"><ele>132.33333333333334</ele><time>2026-04-01T14:52:47.38Z</time></trkpt><trkpt lat="53.7746729" lon="-1.6756651"><ele>131.0</ele><time>2026-04-01T14:52:48.38Z</time></trkpt><trkpt lat="53.7747186" lon="-1.6755374"><ele>129.66666666666669</ele><time>2026-04-01T14:52:49.379Z</time></trkpt><trkpt lat="53.7747561" lon="-1.6754418"><ele>128.33333333333334</ele><time>2026-04-01T14:52:50.38Z</time></trkpt><trkpt lat="53.7747976" lon="-1.6752959"><ele>127.0</ele><time>2026-04-01T14:52:52.378Z</time></trkpt><trkpt lat="53.7747677" lon="-1.6751269"><ele>127.0</ele><time>2026-04-01T14:52:54.38Z</time></trkpt><trkpt lat="53.774703" lon="-1.6749873"><ele>126.99999999999999</ele><time>2026-04-01T14:52:56.379Z</time></trkpt><trkpt lat="53.7746426" lon="-1.6748835"><ele>126.99999999999999</ele><time>2026-04-01T14:52:58.379Z</time></trkpt><trkpt lat="53.7745666" lon="-1.6747968"><ele>127.0</ele><time>2026-04-01T14:53:00.376Z</time></trkpt><trkpt lat="53.7745251" lon="-1.6746913"><ele>127.0</ele><time>2026-04-01T14:53:02.381Z</time></trkpt><trkpt lat="53.7745263" lon="-1.6745274"><ele>128.0</ele><time>2026-04-01T14:53:04.377Z</time></trkpt><trkpt lat="53.7745337" lon="-1.6743797"><ele>129.0</ele><time>2026-04-01T14:53:06.383Z</time></trkpt><trkpt lat="53.774525" lon="-1.674231"><ele>130.0</ele><time>2026-04-01T14:53:08.381Z</time></trkpt><trkpt lat="53.7745195" lon="-1.67404"><ele>131.0</ele><time>2026-04-01T14:53:10.379Z</time></trkpt><trkpt lat="53.7745088" lon="-1.6739086"><ele>132.0</ele><time>2026-04-01T14:53:12.378Z</time></trkpt><trkpt lat="53.7744354" lon="-1.673823"><ele>132.0</ele><time>2026-04-01T14:53:16.379Z</time></trkpt><trkpt lat="53.7744186" lon="-1.6737061"><ele>132.0</ele><time>2026-04-01T14:53:23.381Z</time></trkpt><trkpt lat="53.7743772" lon="-1.6735859"><ele>132.0</ele><time>2026-04-01T14:53:26.38Z</time></trkpt><trkpt lat="53.7743497" lon="-1.67348"><ele>132.0</ele><time>2026-04-01T14:53:28.379Z</time></trkpt><trkpt lat="53.7743367" lon="-1.6733655"><ele>132.0</ele><time>2026-04-01T14:53:30.38Z</time></trkpt><trkpt lat="53.7743234" lon="-1.6732397"><ele>132.0</ele><time>2026-04-01T14:53:32.381Z</time></trkpt><trkpt lat="53.7743682" lon="-1.6731093"><ele>132.66666666666666</ele><time>2026-04-01T14:53:35.372Z</time></trkpt><trkpt lat="53.7744346" lon="-1.6730192"><ele>133.33333333333334</ele><time>2026-04-01T14:53:38.381Z</time></trkpt><trkpt lat="53.774508" lon="-1.6730331"><ele>134.0</ele><time>2026-04-01T14:53:42.38Z</time></trkpt><trkpt lat="53.7745872" lon="-1.6730597"><ele>134.66666666666669</ele><time>2026-04-01T14:53:45.383Z</time></trkpt><trkpt lat="53.7746275" lon="-1.6731532"><ele>135.33333333333334</ele><time>2026-04-01T14:53:48.38Z</time></trkpt><trkpt lat="53.774637" lon="-1.6730086"><ele>136.0</ele><time>2026-04-01T14:54:04.385Z</time></trkpt><trkpt lat="53.7746569" lon="-1.6728763"><ele>136.33333333333334</ele><time>2026-04-01T14:54:07.381Z</time></trkpt><trkpt lat="53.7746548" lon="-1.6727487"><ele>136.66666666666669</ele><time>2026-04-01T14:54:09.383Z</time></trkpt><trkpt lat="53.7746753" lon="-1.6726382"><ele>137.0</ele><time>2026-04-01T14:54:11.382Z</time></trkpt><trkpt lat="53.7747601" lon="-1.6726002"><ele>137.33333333333334</ele><time>2026-04-01T14:54:14.383Z</time></trkpt><trkpt lat="53.7748257" lon="-1.6725632"><ele>137.66666666666666</ele><time>2026-04-01T14:54:16.381Z</time></trkpt><trkpt lat="53.7749152" lon="-1.6725232"><ele>138.0</ele><time>2026-04-01T14:54:18.38Z</time></trkpt><trkpt lat="53.7749985" lon="-1.6725281"><ele>138.0</ele><time>2026-04-01T14:54:20.381Z</time></trkpt><trkpt lat="53.7750901" lon="-1.6725248"><ele>138.0</ele><time>2026-04-01T14:54:22.379Z</time></trkpt><trkpt lat="53.7752" lon="-1.6725427"><ele>138.0</ele><time>2026-04-01T14:54:24.379Z</time></trkpt><trkpt lat="53.7753077" lon="-1.6725084"><ele>138.0</ele><time>2026-04-01T14:54:25.38Z</time></trkpt><trkpt lat="53.7754493" lon="-1.6724038"><ele>136.33333333333334</ele><time>2026-04-01T14:54:27.378Z</time></trkpt><trkpt lat="53.7755137" lon="-1.6723976"><ele>134.66666666666666</ele><time>2026-04-01T14:54:28.378Z</time></trkpt><trkpt lat="53.775606" lon="-1.6723658"><ele>133.0</ele><time>2026-04-01T14:54:29.381Z</time></trkpt><trkpt lat="53.7756913" lon="-1.6723146"><ele>131.33333333333331</ele><time>2026-04-01T14:54:30.376Z</time></trkpt><trkpt lat="53.775754" lon="-1.6722678"><ele>129.66666666666666</ele><time>2026-04-01T14:54:31.382Z</time></trkpt><trkpt lat="53.775841" lon="-1.6721663"><ele>128.0</ele><time>2026-04-01T14:54:33.381Z</time></trkpt><trkpt lat="53.7759282" lon="-1.6720577"><ele>127.99999999999999</ele><time>2026-04-01T14:54:35.384Z</time></trkpt><trkpt lat="53.7759862" lon="-1.6719991"><ele>128.0</ele><time>2026-04-01T14:54:36.379Z</time></trkpt><trkpt lat="53.7760703" lon="-1.6719228"><ele>128.0</ele><time>2026-04-01T14:54:38.382Z</time></trkpt><trkpt lat="53.7761355" lon="-1.6719013"><ele>128.0</ele><time>2026-04-01T14:54:40.379Z</time></trkpt><trkpt lat="53.7762204" lon="-1.6720513"><ele>127.99999999999999</ele><time>2026-04-01T14:54:58.382Z</time></trkpt><trkpt lat="53.7762796" lon="-1.672126"><ele>128.0</ele><time>2026-04-01T14:54:59.379Z</time></trkpt><trkpt lat="53.7763427" lon="-1.6722022"><ele>126.49999999999999</ele><time>2026-04-01T14:55:00.382Z</time></trkpt><trkpt lat="53.7764042" lon="-1.6722548"><ele>125.0</ele><time>2026-04-01T14:55:01.382Z</time></trkpt><trkpt lat="53.776465" lon="-1.6723024"><ele>123.5</ele><time>2026-04-01T14:55:02.385Z</time></trkpt><trkpt lat="53.7765829" lon="-1.6723425"><ele>122.0</ele><time>2026-04-01T14:55:04.391Z</time></trkpt><trkpt lat="53.7766891" lon="-1.6723471"><ele>120.49999999999999</ele><time>2026-04-01T14:55:06.383Z</time></trkpt><trkpt lat="53.7767669" lon="-1.6723436"><ele>119.0</ele><time>2026-04-01T14:55:08.38Z</time></trkpt><trkpt lat="53.7768222" lon="-1.6722722"><ele>117.83333333333333</ele><time>2026-04-01T14:55:13.381Z</time></trkpt><trkpt lat="53.7769183" lon="-1.6722303"><ele>116.66666666666666</ele><time>2026-04-01T14:55:17.387Z</time></trkpt><trkpt lat="53.777039" lon="-1.6722203"><ele>115.5</ele><time>2026-04-01T14:55:19.383Z</time></trkpt><trkpt lat="53.7771005" lon="-1.6721887"><ele>114.33333333333334</ele><time>2026-04-01T14:55:20.382Z</time></trkpt><trkpt lat="53.7771608" lon="-1.6721491"><ele>113.16666666666667</ele><time>2026-04-01T14:55:21.382Z</time></trkpt><trkpt lat="53.7772218" lon="-1.6720983"><ele>112.0</ele><time>2026-04-01T14:55:22.384Z</time></trkpt><trkpt lat="53.777283" lon="-1.6720178"><ele>112.33333333333334</ele><time>2026-04-01T14:55:23.381Z</time></trkpt><trkpt lat="53.7773282" lon="-1.6718916"><ele>112.66666666666667</ele><time>2026-04-01T14:55:24.385Z</time></trkpt><trkpt lat="53.7773557" lon="-1.671737"><ele>113.0</ele><time>2026-04-01T14:55:25.384Z</time></trkpt><trkpt lat="53.7773679" lon="-1.6715838"><ele>113.33333333333334</ele><time>2026-04-01T14:55:26.383Z</time></trkpt><trkpt lat="53.7773726" lon="-1.6714481"><ele>113.66666666666667</ele><time>2026-04-01T14:55:27.385Z</time></trkpt><trkpt lat="53.7773789" lon="-1.6713258"><ele>114.0</ele><time>2026-04-01T14:55:28.384Z</time></trkpt><trkpt lat="53.7773851" lon="-1.6712075"><ele>114.0</ele><time>2026-04-01T14:55:29.385Z</time></trkpt><trkpt lat="53.7773932" lon="-1.6710813"><ele>114.0</ele><time>2026-04-01T14:55:30.382Z</time></trkpt><trkpt lat="53.7774043" lon="-1.6709459"><ele>114.0</ele><time>2026-04-01T14:55:31.383Z</time></trkpt><trkpt lat="53.7774163" lon="-1.6708089"><ele>114.0</ele><time>2026-04-01T14:55:32.383Z</time></trkpt><trkpt lat="53.7774271" lon="-1.670685"><ele>114.0</ele><time>2026-04-01T14:55:33.383Z</time></trkpt><trkpt lat="53.7774427" lon="-1.6704891"><ele>114.0</ele><time>2026-04-01T14:55:35.385Z</time></trkpt><trkpt lat="53.7774563" lon="-1.6703025"><ele>114.0</ele><time>2026-04-01T14:55:37.388Z</time></trkpt><trkpt lat="53.7774688" lon="-1.6700855"><ele>114.0</ele><time>2026-04-01T14:55:39.386Z</time></trkpt><trkpt lat="53.7774719" lon="-1.6699695"><ele>114.0</ele><time>2026-04-01T14:55:40.386Z</time></trkpt><trkpt lat="53.7774758" lon="-1.6698407"><ele>114.0</ele><time>2026-04-01T14:55:41.384Z</time></trkpt><trkpt lat="53.7774786" lon="-1.6697071"><ele>114.0</ele><time>2026-04-01T14:55:42.382Z</time></trkpt><trkpt lat="53.7774807" lon="-1.6695778"><ele>114.0</ele><time>2026-04-01T14:55:43.382Z</time></trkpt><trkpt lat="53.7774871" lon="-1.669451"><ele>114.33333333333333</ele><time>2026-04-01T14:55:44.384Z</time></trkpt><trkpt lat="53.7774972" lon="-1.6693287"><ele>114.66666666666666</ele><time>2026-04-01T14:55:45.38Z</time></trkpt><trkpt lat="53.7775109" lon="-1.6692145"><ele>115.0</ele><time>2026-04-01T14:55:46.38Z</time></trkpt><trkpt lat="53.7775692" lon="-1.66904"><ele>115.33333333333333</ele><time>2026-04-01T14:55:48.381Z</time></trkpt><trkpt lat="53.7776444" lon="-1.6689385"><ele>115.66666666666666</ele><time>2026-04-01T14:55:50.378Z</time></trkpt><trkpt lat="53.7776438" lon="-1.6688156"><ele>116.0</ele><time>2026-04-01T14:55:52.383Z</time></trkpt><trkpt lat="53.777609" lon="-1.668682"><ele>116.33333333333333</ele><time>2026-04-01T14:55:54.38Z</time></trkpt><trkpt lat="53.7776514" lon="-1.6685759"><ele>116.66666666666666</ele><time>2026-04-01T14:55:57.38Z</time></trkpt><trkpt lat="53.7777096" lon="-1.6685299"><ele>117.0</ele><time>2026-04-01T14:55:59.382Z</time></trkpt><trkpt lat="53.7777641" lon="-1.6684701"><ele>117.33333333333334</ele><time>2026-04-01T14:56:01.38Z</time></trkpt><trkpt lat="53.7778438" lon="-1.6684245"><ele>117.66666666666667</ele><time>2026-04-01T14:56:04.383Z</time></trkpt><trkpt lat="53.7779338" lon="-1.6684144"><ele>118.0</ele><time>2026-04-01T14:56:07.383Z</time></trkpt><trkpt lat="53.7780083" lon="-1.6684227"><ele>116.66666666666667</ele><time>2026-04-01T14:56:14.381Z</time></trkpt><trkpt lat="53.7781008" lon="-1.6684597"><ele>115.33333333333334</ele><time>2026-04-01T14:56:17.379Z</time></trkpt><trkpt lat="53.7781665" lon="-1.6685002"><ele>114.0</ele><time>2026-04-01T14:56:19.38Z</time></trkpt><trkpt lat="53.7782266" lon="-1.6685674"><ele>112.66666666666666</ele><time>2026-04-01T14:56:21.378Z</time></trkpt><trkpt lat="53.778276" lon="-1.6686652"><ele>111.33333333333333</ele><time>2026-04-01T14:56:23.377Z</time></trkpt><trkpt lat="53.7783118" lon="-1.668766"><ele>110.0</ele><time>2026-04-01T14:56:25.379Z</time></trkpt><trkpt lat="53.7783476" lon="-1.6688629"><ele>109.99999999999999</ele><time>2026-04-01T14:56:27.381Z</time></trkpt><trkpt lat="53.7784051" lon="-1.6689818"><ele>110.0</ele><time>2026-04-01T14:56:29.379Z</time></trkpt><trkpt lat="53.7784625" lon="-1.6691083"><ele>110.0</ele><time>2026-04-01T14:56:31.383Z</time></trkpt><trkpt lat="53.7785464" lon="-1.6691478"><ele>110.0</ele><time>2026-04-01T14:56:33.384Z</time></trkpt><trkpt lat="53.7786321" lon="-1.6691291"><ele>109.99999999999999</ele><time>2026-04-01T14:56:35.384Z</time></trkpt><trkpt lat="53.7786851" lon="-1.6690521"><ele>110.0</ele><time>2026-04-01T14:56:37.382Z</time></trkpt><trkpt lat="53.778693" lon="-1.6689447"><ele>108.33333333333333</ele><time>2026-04-01T14:56:39.384Z</time></trkpt><trkpt lat="53.7787117" lon="-1.6687962"><ele>106.66666666666666</ele><time>2026-04-01T14:56:42.381Z</time></trkpt><trkpt lat="53.7787629" lon="-1.6686909"><ele>105.0</ele><time>2026-04-01T14:56:45.387Z</time></trkpt><trkpt lat="53.7788288" lon="-1.6686816"><ele>103.33333333333334</ele><time>2026-04-01T14:56:47.387Z</time></trkpt><trkpt lat="53.7789078" lon="-1.6686735"><ele>101.66666666666667</ele><time>2026-04-01T14:56:49.384Z</time></trkpt><trkpt lat="53.7790072" lon="-1.6686921"><ele>100.0</ele><time>2026-04-01T14:56:51.383Z</time></trkpt><trkpt lat="53.7790972" lon="-1.6687123"><ele>100.00000000000001</ele><time>2026-04-01T14:56:53.38Z</time></trkpt><trkpt lat="53.7791387" lon="-1.668815"><ele>100.0</ele><time>2026-04-01T14:56:56.383Z</time></trkpt><trkpt lat="53.7790809" lon="-1.6688702"><ele>100.0</ele><time>2026-04-01T14:57:00.379Z</time></trkpt><trkpt lat="53.7790183" lon="-1.668834"><ele>100.0</ele><time>2026-04-01T14:57:04.383Z</time></trkpt><trkpt lat="53.7789543" lon="-1.6688056"><ele>100.00000000000001</ele><time>2026-04-01T14:58:27.382Z</time></trkpt><trkpt lat="53.7788548" lon="-1.6687674"><ele>100.0</ele><time>2026-04-01T14:58:29.383Z</time></trkpt><trkpt lat="53.7789292" lon="-1.6688422"><ele>100.00000000000001</ele><time>2026-04-01T14:59:15.387Z</time></trkpt><trkpt lat="53.7790022" lon="-1.6688768"><ele>100.0</ele><time>2026-04-01T14:59:17.383Z</time></trkpt><trkpt lat="53.7789835" lon="-1.6689947"><ele>100.0</ele><time>2026-04-01T14:59:57.378Z</time></trkpt><trkpt lat="53.7789408" lon="-1.6691078"><ele>100.0</ele><time>2026-04-01T15:00:00.374Z</time></trkpt><trkpt lat="53.7789118" lon="-1.6692158"><ele>100.0</ele><time>2026-04-01T15:00:04.383Z</time></trkpt><trkpt lat="53.7788813" lon="-1.6693251"><ele>100.00000000000001</ele><time>2026-04-01T15:00:07.38Z</time></trkpt><trkpt lat="53.7788504" lon="-1.6694442"><ele>100.0</ele><time>2026-04-01T15:00:09.38Z</time></trkpt><trkpt lat="53.778828" lon="-1.6695588"><ele>100.0</ele><time>2026-04-01T15:00:11.382Z</time></trkpt><trkpt lat="53.7788185" lon="-1.6697444"><ele>100.0</ele><time>2026-04-01T15:00:13.378Z</time></trkpt><trkpt lat="53.7788001" lon="-1.6699469"><ele>100.0</ele><time>2026-04-01T15:00:15.382Z</time></trkpt><trkpt lat="53.7787772" lon="-1.6700973"><ele>100.0</ele><time>2026-04-01T15:00:17.381Z</time></trkpt><trkpt lat="53.7787521" lon="-1.6702087"><ele>100.0</ele><time>2026-04-01T15:00:19.381Z</time></trkpt><trkpt lat="53.7787448" lon="-1.6703231"><ele>100.00000000000001</ele><time>2026-04-01T15:00:21.38Z</time></trkpt><trkpt lat="53.7787552" lon="-1.6704458"><ele>100.0</ele><time>2026-04-01T15:00:23.38Z</time></trkpt><trkpt lat="53.7788263" lon="-1.6704898"><ele>100.0</ele><time>2026-04-01T15:00:26.381Z</time></trkpt><trkpt lat="53.7788981" lon="-1.6703845"><ele>100.0</ele><time>2026-04-01T15:00:29.38Z</time></trkpt><trkpt lat="53.7789222" lon="-1.6702687"><ele>100.00000000000001</ele><time>2026-04-01T15:00:31.379Z</time></trkpt><trkpt lat="53.7789457" lon="-1.6701412"><ele>100.0</ele><time>2026-04-01T15:00:34.386Z</time></trkpt><trkpt lat="53.7790009" lon="-1.6700806"><ele>100.00000000000001</ele><time>2026-04-01T15:00:37.384Z</time></trkpt><trkpt lat="53.7790148" lon="-1.6699213"><ele>100.0</ele><time>2026-04-01T15:00:40.378Z</time></trkpt><trkpt lat="53.7790354" lon="-1.6697847"><ele>100.0</ele><time>2026-04-01T15:00:42.381Z</time></trkpt><trkpt lat="53.7790609" lon="-1.6696616"><ele>100.0</ele><time>2026-04-01T15:00:44.386Z</time></trkpt><trkpt lat="53.7790827" lon="-1.6695542"><ele>100.00000000000001</ele><time>2026-04-01T15:00:47.382Z</time></trkpt><trkpt lat="53.7791062" lon="-1.6694451"><ele>100.0</ele><time>2026-04-01T15:01:01.377Z</time></trkpt><trkpt lat="53.7791256" lon="-1.6693267"><ele>100.00000000000001</ele><time>2026-04-01T15:01:13.38Z</time></trkpt><trkpt lat="53.7791383" lon="-1.6692184"><ele>100.0</ele><time>2026-04-01T15:01:16.381Z</time></trkpt><trkpt lat="53.7791748" lon="-1.6691097"><ele>100.0</ele><time>2026-04-01T15:01:22.382Z</time></trkpt><trkpt lat="53.7791855" lon="-1.6689829"><ele>100.0</ele><time>2026-04-01T15:01:29.372Z</time></trkpt><trkpt lat="53.7791076" lon="-1.6689249"><ele>100.0</ele><time>2026-04-01T15:01:32.379Z</time></trkpt><trkpt lat="53.7790344" lon="-1.668915"><ele>100.00000000000001</ele><time>2026-04-01T15:01:35.379Z</time></trkpt><trkpt lat="53.7789688" lon="-1.6689804"><ele>100.0</ele><time>2026-04-01T15:01:46.383Z</time></trkpt><trkpt lat="53.778925" lon="-1.6690604"><ele>100.00000000000001</ele><time>2026-04-01T15:01:48.382Z</time></trkpt><trkpt lat="53.7788955" lon="-1.6691668"><ele>100.0</ele><time>2026-04-01T15:01:53.381Z</time></trkpt><trkpt lat="53.7788654" lon="-1.6692747"><ele>100.0</ele><time>2026-04-01T15:01:57.382Z</time></trkpt><trkpt lat="53.7788281" lon="-1.6694243"><ele>100.0</ele><time>2026-04-01T15:02:00.381Z</time></trkpt><trkpt lat="53.7788001" lon="-1.6695253"><ele>100.00000000000001</ele><time>2026-04-01T15:02:02.38Z</time></trkpt><trkpt lat="53.7787864" lon="-1.6696842"><ele>100.0</ele><time>2026-04-01T15:02:05.38Z</time></trkpt><trkpt lat="53.7787872" lon="-1.6698019"><ele>100.00000000000001</ele><time>2026-04-01T15:02:07.381Z</time></trkpt><trkpt lat="53.7787769" lon="-1.6699304"><ele>100.0</ele><time>2026-04-01T15:02:09.376Z</time></trkpt><trkpt lat="53.7788159" lon="-1.6698142"><ele>100.0</ele><time>2026-04-01T15:02:38.378Z</time></trkpt><trkpt lat="53.7788405" lon="-1.6699307"><ele>100.0</ele><time>2026-04-01T15:03:32.384Z</time></trkpt><trkpt lat="53.7788237" lon="-1.6700395"><ele>100.0</ele><time>2026-04-01T15:03:34.385Z</time></trkpt><trkpt lat="53.7787914" lon="-1.6701542"><ele>100.00000000000001</ele><time>2026-04-01T15:03:38.384Z</time></trkpt><trkpt lat="53.7788303" lon="-1.6702504"><ele>100.0</ele><time>2026-04-01T15:03:41.377Z</time></trkpt><trkpt lat="53.7788118" lon="-1.6704011"><ele>100.0</ele><time>2026-04-01T15:03:44.384Z</time></trkpt><trkpt lat="53.7787613" lon="-1.6705061"><ele>100.0</ele><time>2026-04-01T15:03:46.382Z</time></trkpt><trkpt lat="53.7786793" lon="-1.6707626"><ele>100.0</ele><time>2026-04-01T15:03:48.381Z</time></trkpt><trkpt lat="53.7786482" lon="-1.6709443"><ele>100.0</ele><time>2026-04-01T15:03:49.381Z</time></trkpt><trkpt lat="53.7786262" lon="-1.6711075"><ele>100.75</ele><time>2026-04-01T15:03:50.38Z</time></trkpt><trkpt lat="53.7786068" lon="-1.6712223"><ele>101.5</ele><time>2026-04-01T15:03:51.38Z</time></trkpt><trkpt lat="53.7785312" lon="-1.6713111"><ele>102.25</ele><time>2026-04-01T15:03:54.384Z</time></trkpt><trkpt lat="53.7783981" lon="-1.6716629"><ele>103.0</ele><time>2026-04-01T15:03:59.379Z</time></trkpt><trkpt lat="53.7783446" lon="-1.671747"><ele>103.33333333333334</ele><time>2026-04-01T15:04:01.381Z</time></trkpt><trkpt lat="53.778274" lon="-1.6718354"><ele>103.66666666666667</ele><time>2026-04-01T15:04:03.376Z</time></trkpt><trkpt lat="53.7782161" lon="-1.671922"><ele>104.0</ele><time>2026-04-01T15:04:05.382Z</time></trkpt><trkpt lat="53.7781659" lon="-1.672036"><ele>104.33333333333334</ele><time>2026-04-01T15:04:08.38Z</time></trkpt><trkpt lat="53.778118" lon="-1.6721342"><ele>104.66666666666667</ele><time>2026-04-01T15:04:38.381Z</time></trkpt><trkpt lat="53.7781039" lon="-1.6722566"><ele>105.0</ele><time>2026-04-01T15:04:40.381Z</time></trkpt><trkpt lat="53.7781099" lon="-1.6723766"><ele>105.16666666666667</ele><time>2026-04-01T15:04:42.381Z</time></trkpt><trkpt lat="53.7780834" lon="-1.6724854"><ele>105.33333333333334</ele><time>2026-04-01T15:04:44.381Z</time></trkpt><trkpt lat="53.7780638" lon="-1.6726457"><ele>105.5</ele><time>2026-04-01T15:04:46.379Z</time></trkpt><trkpt lat="53.7781202" lon="-1.6727844"><ele>105.66666666666667</ele><time>2026-04-01T15:04:48.385Z</time></trkpt><trkpt lat="53.778185" lon="-1.6728439"><ele>105.83333333333334</ele><time>2026-04-01T15:04:49.375Z</time></trkpt><trkpt lat="53.7782463" lon="-1.672901"><ele>106.0</ele><time>2026-04-01T15:04:50.378Z</time></trkpt><trkpt lat="53.7782933" lon="-1.6729771"><ele>106.16666666666667</ele><time>2026-04-01T15:04:52.379Z</time></trkpt><trkpt lat="53.7782528" lon="-1.6730612"><ele>106.33333333333334</ele><time>2026-04-01T15:04:54.379Z</time></trkpt><trkpt lat="53.7781856" lon="-1.6731568"><ele>106.5</ele><time>2026-04-01T15:04:56.384Z</time></trkpt><trkpt lat="53.7781207" lon="-1.6732617"><ele>106.66666666666666</ele><time>2026-04-01T15:04:58.378Z</time></trkpt><trkpt lat="53.7780684" lon="-1.6733788"><ele>106.83333333333333</ele><time>2026-04-01T15:05:00.381Z</time></trkpt><trkpt lat="53.7780082" lon="-1.673498"><ele>107.0</ele><time>2026-04-01T15:05:02.38Z</time></trkpt><trkpt lat="53.7779391" lon="-1.67362"><ele>106.99999999999999</ele><time>2026-04-01T15:05:04.383Z</time></trkpt><trkpt lat="53.7778585" lon="-1.673781"><ele>107.0</ele><time>2026-04-01T15:05:06.381Z</time></trkpt><trkpt lat="53.7778222" lon="-1.6738777"><ele>107.0</ele><time>2026-04-01T15:05:07.38Z</time></trkpt><trkpt lat="53.7777873" lon="-1.6739784"><ele>107.0</ele><time>2026-04-01T15:05:08.381Z</time></trkpt><trkpt lat="53.7777483" lon="-1.6740703"><ele>106.99999999999999</ele><time>2026-04-01T15:05:09.381Z</time></trkpt><trkpt lat="53.7776841" lon="-1.6742142"><ele>107.0</ele><time>2026-04-01T15:05:11.386Z</time></trkpt><trkpt lat="53.7776533" lon="-1.6743401"><ele>106.66666666666666</ele><time>2026-04-01T15:05:13.378Z</time></trkpt><trkpt lat="53.7776593" lon="-1.6744857"><ele>106.33333333333333</ele><time>2026-04-01T15:05:15.38Z</time></trkpt><trkpt lat="53.7776582" lon="-1.6746251"><ele>106.0</ele><time>2026-04-01T15:05:17.379Z</time></trkpt><trkpt lat="53.777613" lon="-1.6747329"><ele>105.66666666666666</ele><time>2026-04-01T15:05:19.379Z</time></trkpt><trkpt lat="53.7775722" lon="-1.6748488"><ele>105.33333333333333</ele><time>2026-04-01T15:05:21.381Z</time></trkpt><trkpt lat="53.7775105" lon="-1.6750243"><ele>105.0</ele><time>2026-04-01T15:05:23.381Z</time></trkpt><trkpt lat="53.7774757" lon="-1.6751346"><ele>105.0</ele><time>2026-04-01T15:05:24.381Z</time></trkpt><trkpt lat="53.777438" lon="-1.6752509"><ele>105.0</ele><time>2026-04-01T15:05:25.382Z</time></trkpt><trkpt lat="53.7774067" lon="-1.6753495"><ele>105.0</ele><time>2026-04-01T15:05:26.378Z</time></trkpt><trkpt lat="53.7773653" lon="-1.6754539"><ele>105.0</ele><time>2026-04-01T15:05:28.379Z</time></trkpt><trkpt lat="53.7772818" lon="-1.6754124"><ele>105.0</ele><time>2026-04-01T15:05:31.382Z</time></trkpt><trkpt lat="53.7771846" lon="-1.6753349"><ele>105.0</ele><time>2026-04-01T15:05:33.381Z</time></trkpt><trkpt lat="53.7770946" lon="-1.675358"><ele>105.33333333333333</ele><time>2026-04-01T15:05:35.379Z</time></trkpt><trkpt lat="53.7770254" lon="-1.6754276"><ele>105.66666666666666</ele><time>2026-04-01T15:05:37.383Z</time></trkpt><trkpt lat="53.7769363" lon="-1.6754012"><ele>106.0</ele><time>2026-04-01T15:05:39.382Z</time></trkpt><trkpt lat="53.7768518" lon="-1.6753246"><ele>106.33333333333333</ele><time>2026-04-01T15:05:41.379Z</time></trkpt><trkpt lat="53.7767369" lon="-1.6753301"><ele>106.66666666666666</ele><time>2026-04-01T15:05:43.38Z</time></trkpt><trkpt lat="53.7766841" lon="-1.6753899"><ele>107.0</ele><time>2026-04-01T15:05:44.382Z</time></trkpt><trkpt lat="53.7765881" lon="-1.6754995"><ele>107.33333333333333</ele><time>2026-04-01T15:05:46.379Z</time></trkpt><trkpt lat="53.7764954" lon="-1.6755377"><ele>107.66666666666666</ele><time>2026-04-01T15:07:50.384Z</time></trkpt><trkpt lat="53.7764321" lon="-1.6755554"><ele>108.0</ele><time>2026-04-01T15:07:51.385Z</time></trkpt><trkpt lat="53.7763705" lon="-1.6755849"><ele>108.33333333333334</ele><time>2026-04-01T15:07:52.384Z</time></trkpt><trkpt lat="53.7763028" lon="-1.675699"><ele>108.66666666666667</ele><time>2026-04-01T15:07:54.382Z</time></trkpt><trkpt lat="53.776276" lon="-1.6758561"><ele>109.0</ele><time>2026-04-01T15:07:56.383Z</time></trkpt><trkpt lat="53.7762068" lon="-1.6759892"><ele>109.00000000000001</ele><time>2026-04-01T15:07:58.378Z</time></trkpt><trkpt lat="53.7761302" lon="-1.676084"><ele>109.0</ele><time>2026-04-01T15:08:00.38Z</time></trkpt><trkpt lat="53.7760532" lon="-1.6761753"><ele>109.0</ele><time>2026-04-01T15:08:03.385Z</time></trkpt><trkpt lat="53.7761074" lon="-1.6760784"><ele>109.0</ele><time>2026-04-01T15:08:47.383Z</time></trkpt><trkpt lat="53.7761099" lon="-1.675962"><ele>109.00000000000001</ele><time>2026-04-01T15:08:49.383Z</time></trkpt><trkpt lat="53.7760591" lon="-1.6758812"><ele>109.0</ele><time>2026-04-01T15:08:51.384Z</time></trkpt><trkpt lat="53.7759964" lon="-1.6759525"><ele>109.2</ele><time>2026-04-01T15:08:53.38Z</time></trkpt><trkpt lat="53.7759719" lon="-1.676141"><ele>109.4</ele><time>2026-04-01T15:08:55.381Z</time></trkpt><trkpt lat="53.7759838" lon="-1.6762866"><ele>109.6</ele><time>2026-04-01T15:08:57.381Z</time></trkpt><trkpt lat="53.7760517" lon="-1.6763344"><ele>109.8</ele><time>2026-04-01T15:08:59.386Z</time></trkpt><trkpt lat="53.7761386" lon="-1.6764048"><ele>110.0</ele><time>2026-04-01T15:09:01.385Z</time></trkpt><trkpt lat="53.7761789" lon="-1.6765465"><ele>110.0</ele><time>2026-04-01T15:09:03.385Z</time></trkpt><trkpt lat="53.7761609" lon="-1.6767193"><ele>110.0</ele><time>2026-04-01T15:09:05.386Z</time></trkpt><trkpt lat="53.7761212" lon="-1.6768462"><ele>110.0</ele><time>2026-04-01T15:09:07.385Z</time></trkpt><trkpt lat="53.776026" lon="-1.6768941"><ele>110.0</ele><time>2026-04-01T15:09:09.385Z</time></trkpt><trkpt lat="53.7759222" lon="-1.6768897"><ele>110.0</ele><time>2026-04-01T15:09:11.387Z</time></trkpt><trkpt lat="53.7759892" lon="-1.6768649"><ele>109.99999999999999</ele><time>2026-04-01T15:09:29.381Z</time></trkpt><trkpt lat="53.7759047" lon="-1.6768633"><ele>110.0</ele><time>2026-04-01T15:09:50.382Z</time></trkpt><trkpt lat="53.775837" lon="-1.6769011"><ele>110.0</ele><time>2026-04-01T15:09:53.385Z</time></trkpt><trkpt lat="53.7758215" lon="-1.6770779"><ele>110.0</ele><time>2026-04-01T15:09:55.383Z</time></trkpt><trkpt lat="53.7758444" lon="-1.677223"><ele>109.99999999999999</ele><time>2026-04-01T15:09:57.39Z</time></trkpt><trkpt lat="53.7758872" lon="-1.6773654"><ele>110.0</ele><time>2026-04-01T15:09:59.388Z</time></trkpt><trkpt lat="53.7759303" lon="-1.6774647"><ele>109.99999999999999</ele><time>2026-04-01T15:10:01.388Z</time></trkpt><trkpt lat="53.7759985" lon="-1.6775667"><ele>110.0</ele><time>2026-04-01T15:10:04.388Z</time></trkpt><trkpt lat="53.7760453" lon="-1.6776675"><ele>110.0</ele><time>2026-04-01T15:10:06.384Z</time></trkpt><trkpt lat="53.7761131" lon="-1.6777034"><ele>110.0</ele><time>2026-04-01T15:10:16.382Z</time></trkpt><trkpt lat="53.7761846" lon="-1.6777184"><ele>109.99999999999999</ele><time>2026-04-01T15:10:18.381Z</time></trkpt><trkpt lat="53.7762067" lon="-1.6778473"><ele>110.0</ele><time>2026-04-01T15:10:24.383Z</time></trkpt><trkpt lat="53.7761811" lon="-1.6779534"><ele>109.83333333333333</ele><time>2026-04-01T15:10:26.384Z</time></trkpt><trkpt lat="53.7761206" lon="-1.6780379"><ele>109.66666666666666</ele><time>2026-04-01T15:10:29.382Z</time></trkpt><trkpt lat="53.7760787" lon="-1.6781615"><ele>109.5</ele><time>2026-04-01T15:11:56.38Z</time></trkpt><trkpt lat="53.7760388" lon="-1.6782825"><ele>109.33333333333334</ele><time>2026-04-01T15:11:58.385Z</time></trkpt><trkpt lat="53.7759949" lon="-1.6784252"><ele>109.16666666666667</ele><time>2026-04-01T15:12:00.384Z</time></trkpt><trkpt lat="53.7759501" lon="-1.6785645"><ele>109.0</ele><time>2026-04-01T15:12:02.387Z</time></trkpt><trkpt lat="53.775906" lon="-1.6787023"><ele>109.00000000000001</ele><time>2026-04-01T15:12:04.391Z</time></trkpt><trkpt lat="53.7758812" lon="-1.6788401"><ele>109.0</ele><time>2026-04-01T15:12:06.386Z</time></trkpt><trkpt lat="53.7758416" lon="-1.6789565"><ele>109.0</ele><time>2026-04-01T15:12:08.389Z</time></trkpt><trkpt lat="53.7757922" lon="-1.6790653"><ele>109.0</ele><time>2026-04-01T15:12:10.387Z</time></trkpt><trkpt lat="53.7757578" lon="-1.679165"><ele>109.00000000000001</ele><time>2026-04-01T15:12:12.379Z</time></trkpt><trkpt lat="53.7757199" lon="-1.6792746"><ele>109.0</ele><time>2026-04-01T15:12:15.382Z</time></trkpt><trkpt lat="53.775656" lon="-1.6793171"><ele>109.00000000000001</ele><time>2026-04-01T15:12:19.382Z</time></trkpt><trkpt lat="53.7756044" lon="-1.679404"><ele>109.0</ele><time>2026-04-01T15:12:21.387Z</time></trkpt><trkpt lat="53.7755278" lon="-1.679558"><ele>109.0</ele><time>2026-04-01T15:12:23.387Z</time></trkpt><trkpt lat="53.7754661" lon="-1.6796517"><ele>109.0</ele><time>2026-04-01T15:12:25.387Z</time></trkpt><trkpt lat="53.7754042" lon="-1.6796825"><ele>109.00000000000001</ele><time>2026-04-01T15:12:27.383Z</time></trkpt><trkpt lat="53.7753626" lon="-1.6795988"><ele>109.0</ele><time>2026-04-01T15:12:31.384Z</time></trkpt><trkpt lat="53.7753253" lon="-1.6795129"><ele>109.0</ele><time>2026-04-01T15:12:34.389Z</time></trkpt><trkpt lat="53.7752123" lon="-1.6793714"><ele>109.0</ele><time>2026-04-01T15:12:36.387Z</time></trkpt><trkpt lat="53.7751411" lon="-1.6793913"><ele>109.0</ele><time>2026-04-01T15:12:40.385Z</time></trkpt><trkpt lat="53.7750704" lon="-1.6793525"><ele>109.0</ele><time>2026-04-01T15:12:42.383Z</time></trkpt><trkpt lat="53.7749749" lon="-1.6792743"><ele>109.0</ele><time>2026-04-01T15:12:44.381Z</time></trkpt><trkpt lat="53.7748876" lon="-1.6791936"><ele>110.83333333333334</ele><time>2026-04-01T15:12:46.38Z</time></trkpt><trkpt lat="53.7747912" lon="-1.6791507"><ele>112.66666666666667</ele><time>2026-04-01T15:12:48.382Z</time></trkpt><trkpt lat="53.77469" lon="-1.6791144"><ele>114.5</ele><time>2026-04-01T15:12:50.383Z</time></trkpt><trkpt lat="53.7746094" lon="-1.6791121"><ele>116.33333333333334</ele><time>2026-04-01T15:12:52.382Z</time></trkpt><trkpt lat="53.7745421" lon="-1.6791198"><ele>118.16666666666667</ele><time>2026-04-01T15:12:54.381Z</time></trkpt><trkpt lat="53.7744598" lon="-1.6791429"><ele>120.0</ele><time>2026-04-01T15:12:57.38Z</time></trkpt><trkpt lat="53.774387" lon="-1.6792109"><ele>120.0</ele><time>2026-04-01T15:13:01.388Z</time></trkpt><trkpt lat="53.7743689" lon="-1.6793284"><ele>120.0</ele><time>2026-04-01T15:13:04.389Z</time></trkpt><trkpt lat="53.7744177" lon="-1.6794527"><ele>120.0</ele><time>2026-04-01T15:13:07.39Z</time></trkpt><trkpt lat="53.7744865" lon="-1.6795371"><ele>120.0</ele><time>2026-04-01T15:13:09.386Z</time></trkpt><trkpt lat="53.774507" lon="-1.6796404"><ele>120.0</ele><time>2026-04-01T15:13:13.383Z</time></trkpt><trkpt lat="53.7745759" lon="-1.6796885"><ele>120.0</ele><time>2026-04-01T15:13:20.383Z</time></trkpt><trkpt lat="53.7746523" lon="-1.6797037"><ele>118.8</ele><time>2026-04-01T15:13:23.384Z</time></trkpt><trkpt lat="53.7747319" lon="-1.6796687"><ele>117.6</ele><time>2026-04-01T15:13:25.383Z</time></trkpt><trkpt lat="53.7748467" lon="-1.6796693"><ele>116.4</ele><time>2026-04-01T15:13:27.383Z</time></trkpt><trkpt lat="53.7749427" lon="-1.6796753"><ele>115.2</ele><time>2026-04-01T15:13:29.382Z</time></trkpt><trkpt lat="53.7749544" lon="-1.6798267"><ele>114.0</ele><time>2026-04-01T15:13:33.386Z</time></trkpt><trkpt lat="53.7749859" lon="-1.6799299"><ele>114.0</ele><time>2026-04-01T15:13:35.386Z</time></trkpt><trkpt lat="53.7750767" lon="-1.6799366"><ele>114.0</ele><time>2026-04-01T15:13:37.389Z</time></trkpt><trkpt lat="53.7751284" lon="-1.6800179"><ele>114.0</ele><time>2026-04-01T15:13:39.39Z</time></trkpt><trkpt lat="53.7750806" lon="-1.6801513"><ele>114.0</ele><time>2026-04-01T15:13:41.386Z</time></trkpt><trkpt lat="53.7750184" lon="-1.6801932"><ele>114.0</ele><time>2026-04-01T15:13:42.383Z</time></trkpt><trkpt lat="53.7749396" lon="-1.6802106"><ele>114.0</ele><time>2026-04-01T15:13:43.382Z</time></trkpt><trkpt lat="53.7748548" lon="-1.6802183"><ele>114.0</ele><time>2026-04-01T15:13:44.386Z</time></trkpt><trkpt lat="53.774767" lon="-1.6802221"><ele>114.0</ele><time>2026-04-01T15:13:45.383Z</time></trkpt><trkpt lat="53.7746861" lon="-1.6802285"><ele>114.0</ele><time>2026-04-01T15:13:46.383Z</time></trkpt><trkpt lat="53.7746113" lon="-1.680239"><ele>114.0</ele><time>2026-04-01T15:13:47.386Z</time></trkpt><trkpt lat="53.7745466" lon="-1.68024"><ele>114.0</ele><time>2026-04-01T15:13:48.383Z</time></trkpt><trkpt lat="53.7744418" lon="-1.6802132"><ele>114.0</ele><time>2026-04-01T15:13:50.383Z</time></trkpt><trkpt lat="53.7743442" lon="-1.6802467"><ele>115.66666666666667</ele><time>2026-04-01T15:13:52.386Z</time></trkpt><trkpt lat="53.7742581" lon="-1.680286"><ele>117.33333333333334</ele><time>2026-04-01T15:13:54.385Z</time></trkpt><trkpt lat="53.7741899" lon="-1.6802529"><ele>119.0</ele><time>2026-04-01T15:13:59.385Z</time></trkpt><trkpt lat="53.7740963" lon="-1.680276"><ele>120.66666666666667</ele><time>2026-04-01T15:14:16.386Z</time></trkpt><trkpt lat="53.7740395" lon="-1.6803439"><ele>122.33333333333334</ele><time>2026-04-01T15:14:17.387Z</time></trkpt><trkpt lat="53.7739835" lon="-1.6804334"><ele>124.0</ele><time>2026-04-01T15:14:18.386Z</time></trkpt><trkpt lat="53.773906" lon="-1.6805561"><ele>124.16666666666667</ele><time>2026-04-01T15:14:20.385Z</time></trkpt><trkpt lat="53.7738422" lon="-1.6806037"><ele>124.33333333333334</ele><time>2026-04-01T15:14:22.383Z</time></trkpt><trkpt lat="53.773781" lon="-1.6806501"><ele>124.5</ele><time>2026-04-01T15:14:26.383Z</time></trkpt><trkpt lat="53.7736979" lon="-1.6806968"><ele>124.66666666666666</ele><time>2026-04-01T15:16:31.387Z</time></trkpt><trkpt lat="53.7736186" lon="-1.6806912"><ele>124.83333333333333</ele><time>2026-04-01T15:16:33.391Z</time></trkpt><trkpt lat="53.7735221" lon="-1.680701"><ele>125.0</ele><time>2026-04-01T15:16:35.386Z</time></trkpt><trkpt lat="53.7734476" lon="-1.6807555"><ele>126.0</ele><time>2026-04-01T15:16:37.386Z</time></trkpt><trkpt lat="53.7733771" lon="-1.6808108"><ele>127.0</ele><time>2026-04-01T15:16:39.385Z</time></trkpt><trkpt lat="53.773291" lon="-1.6808391"><ele>128.0</ele><time>2026-04-01T15:16:41.387Z</time></trkpt><trkpt lat="53.7731861" lon="-1.680867"><ele>129.0</ele><time>2026-04-01T15:16:43.383Z</time></trkpt><trkpt lat="53.7730637" lon="-1.6808912"><ele>130.0</ele><time>2026-04-01T15:16:45.385Z</time></trkpt><trkpt lat="53.772961" lon="-1.6809331"><ele>130.0</ele><time>2026-04-01T15:16:47.383Z</time></trkpt><trkpt lat="53.772883" lon="-1.6809826"><ele>130.0</ele><time>2026-04-01T15:16:49.385Z</time></trkpt><trkpt lat="53.7728138" lon="-1.6810351"><ele>130.0</ele><time>2026-04-01T15:16:52.385Z</time></trkpt><trkpt lat="53.7727379" lon="-1.6810427"><ele>130.0</ele><time>2026-04-01T15:16:57.387Z</time></trkpt><trkpt lat="53.7726324" lon="-1.6811108"><ele>130.0</ele><time>2026-04-01T15:17:01.386Z</time></trkpt><trkpt lat="53.7725748" lon="-1.6811573"><ele>130.0</ele><time>2026-04-01T15:17:03.385Z</time></trkpt><trkpt lat="53.7724911" lon="-1.6811736"><ele>131.33333333333334</ele><time>2026-04-01T15:17:06.385Z</time></trkpt><trkpt lat="53.7724069" lon="-1.6811783"><ele>132.66666666666669</ele><time>2026-04-01T15:17:09.387Z</time></trkpt><trkpt lat="53.7723307" lon="-1.6811952"><ele>134.0</ele><time>2026-04-01T15:17:13.384Z</time></trkpt><trkpt lat="53.7722562" lon="-1.6812312"><ele>135.33333333333334</ele><time>2026-04-01T15:17:15.386Z</time></trkpt><trkpt lat="53.7721954" lon="-1.6812795"><ele>136.66666666666666</ele><time>2026-04-01T15:17:17.381Z</time></trkpt><trkpt lat="53.7721262" lon="-1.681344"><ele>138.0</ele><time>2026-04-01T15:17:19.387Z</time></trkpt><trkpt lat="53.7720357" lon="-1.6814223"><ele>138.0</ele><time>2026-04-01T15:17:21.386Z</time></trkpt><trkpt lat="53.7719663" lon="-1.6814273"><ele>138.0</ele><time>2026-04-01T15:17:23.389Z</time></trkpt><trkpt lat="53.7718808" lon="-1.6814135"><ele>138.0</ele><time>2026-04-01T15:17:26.39Z</time></trkpt><trkpt lat="53.7717994" lon="-1.6813684"><ele>138.0</ele><time>2026-04-01T15:17:28.385Z</time></trkpt><trkpt lat="53.7717145" lon="-1.6812914"><ele>138.0</ele><time>2026-04-01T15:17:30.385Z</time></trkpt><trkpt lat="53.7716433" lon="-1.6812282"><ele>138.0</ele><time>2026-04-01T15:17:32.387Z</time></trkpt><trkpt lat="53.7715262" lon="-1.6811857"><ele>139.20000000000002</ele><time>2026-04-01T15:17:34.391Z</time></trkpt><trkpt lat="53.7714272" lon="-1.6812059"><ele>140.4</ele><time>2026-04-01T15:17:36.386Z</time></trkpt><trkpt lat="53.7713651" lon="-1.6812427"><ele>141.60000000000002</ele><time>2026-04-01T15:17:37.388Z</time></trkpt><trkpt lat="53.7712592" lon="-1.6812628"><ele>142.8</ele><time>2026-04-01T15:17:39.391Z</time></trkpt><trkpt lat="53.7711444" lon="-1.6812306"><ele>144.0</ele><time>2026-04-01T15:17:41.388Z</time></trkpt><trkpt lat="53.7711783" lon="-1.681136"><ele>144.8</ele><time>2026-04-01T15:17:46.392Z</time></trkpt><trkpt lat="53.7713121" lon="-1.6809584"><ele>145.60000000000002</ele><time>2026-04-01T15:17:49.387Z</time></trkpt><trkpt lat="53.7713391" lon="-1.6808558"><ele>146.4</ele><time>2026-04-01T15:17:50.386Z</time></trkpt><trkpt lat="53.771368" lon="-1.6807297"><ele>147.20000000000002</ele><time>2026-04-01T15:17:51.389Z</time></trkpt><trkpt lat="53.7713895" lon="-1.6805923"><ele>148.0</ele><time>2026-04-01T15:17:52.389Z</time></trkpt><trkpt lat="53.7713947" lon="-1.6804729"><ele>148.0</ele><time>2026-04-01T15:17:53.387Z</time></trkpt><trkpt lat="53.7713974" lon="-1.6802724"><ele>148.0</ele><time>2026-04-01T15:17:55.386Z</time></trkpt><trkpt lat="53.7714116" lon="-1.680163"><ele>148.0</ele><time>2026-04-01T15:17:56.388Z</time></trkpt><trkpt lat="53.7714263" lon="-1.6800498"><ele>148.0</ele><time>2026-04-01T15:17:57.387Z</time></trkpt><trkpt lat="53.7714383" lon="-1.6799175"><ele>148.0</ele><time>2026-04-01T15:17:58.388Z</time></trkpt><trkpt lat="53.771447" lon="-1.6797854"><ele>148.0</ele><time>2026-04-01T15:17:59.389Z</time></trkpt><trkpt lat="53.7714563" lon="-1.6796694"><ele>148.6</ele><time>2026-04-01T15:18:00.387Z</time></trkpt><trkpt lat="53.7714667" lon="-1.679563"><ele>149.20000000000002</ele><time>2026-04-01T15:18:01.387Z</time></trkpt><trkpt lat="53.7715058" lon="-1.6793778"><ele>149.8</ele><time>2026-04-01T15:18:03.388Z</time></trkpt><trkpt lat="53.7715541" lon="-1.6791951"><ele>150.4</ele><time>2026-04-01T15:18:05.389Z</time></trkpt><trkpt lat="53.7715865" lon="-1.6790117"><ele>151.0</ele><time>2026-04-01T15:18:07.39Z</time></trkpt><trkpt lat="53.7716366" lon="-1.67884"><ele>151.5</ele><time>2026-04-01T15:18:09.388Z</time></trkpt><trkpt lat="53.771693" lon="-1.6786468"><ele>152.0</ele><time>2026-04-01T15:18:11.389Z</time></trkpt><trkpt lat="53.7717184" lon="-1.6785335"><ele>152.5</ele><time>2026-04-01T15:18:12.386Z</time></trkpt><trkpt lat="53.7717406" lon="-1.6784152"><ele>153.0</ele><time>2026-04-01T15:18:13.387Z</time></trkpt><trkpt lat="53.7717596" lon="-1.6782866"><ele>153.5</ele><time>2026-04-01T15:18:14.391Z</time></trkpt><trkpt lat="53.7717735" lon="-1.6781461"><ele>154.0</ele><time>2026-04-01T15:18:15.384Z</time></trkpt><trkpt lat="53.7717868" lon="-1.6780056"><ele>154.16666666666669</ele><time>2026-04-01T15:18:16.386Z</time></trkpt><trkpt lat="53.7718022" lon="-1.6778724"><ele>154.33333333333334</ele><time>2026-04-01T15:18:17.384Z</time></trkpt><trkpt lat="53.7718143" lon="-1.6777519"><ele>154.5</ele><time>2026-04-01T15:18:18.387Z</time></trkpt><trkpt lat="53.7718289" lon="-1.6775681"><ele>154.66666666666666</ele><time>2026-04-01T15:18:20.385Z</time></trkpt><trkpt lat="53.7718736" lon="-1.6774059"><ele>154.83333333333331</ele><time>2026-04-01T15:18:22.386Z</time></trkpt><trkpt lat="53.7719154" lon="-1.6773261"><ele>155.0</ele><time>2026-04-01T15:18:23.387Z</time></trkpt><trkpt lat="53.7719609" lon="-1.6772435"><ele>153.83333333333331</ele><time>2026-04-01T15:18:24.387Z</time></trkpt><trkpt lat="53.7720044" lon="-1.6771596"><ele>152.66666666666666</ele><time>2026-04-01T15:18:25.389Z</time></trkpt><trkpt lat="53.7720474" lon="-1.6770771"><ele>151.5</ele><time>2026-04-01T15:18:26.387Z</time></trkpt><trkpt lat="53.7720891" lon="-1.6769955"><ele>150.33333333333334</ele><time>2026-04-01T15:18:27.384Z</time></trkpt><trkpt lat="53.7721787" lon="-1.6768507"><ele>149.16666666666669</ele><time>2026-04-01T15:18:29.385Z</time></trkpt><trkpt lat="53.7722313" lon="-1.6767668"><ele>148.0</ele><time>2026-04-01T15:18:30.387Z</time></trkpt><trkpt lat="53.7722764" lon="-1.6766813"><ele>148.0</ele><time>2026-04-01T15:18:31.387Z</time></trkpt><trkpt lat="53.7723194" lon="-1.6765824"><ele>148.0</ele><time>2026-04-01T15:18:32.388Z</time></trkpt><trkpt lat="53.7723605" lon="-1.6764911"><ele>148.0</ele><time>2026-04-01T15:18:33.389Z</time></trkpt><trkpt lat="53.7724551" lon="-1.6763802"><ele>148.0</ele><time>2026-04-01T15:18:35.39Z</time></trkpt><trkpt lat="53.7725611" lon="-1.6764451"><ele>148.0</ele><time>2026-04-01T15:18:37.39Z</time></trkpt><trkpt lat="53.7726367" lon="-1.6764903"><ele>148.0</ele><time>2026-04-01T15:18:38.394Z</time></trkpt><trkpt lat="53.7727043" lon="-1.6765283"><ele>147.20000000000002</ele><time>2026-04-01T15:18:39.384Z</time></trkpt><trkpt lat="53.7728126" lon="-1.6765275"><ele>146.4</ele><time>2026-04-01T15:18:41.389Z</time></trkpt><trkpt lat="53.7729274" lon="-1.67644"><ele>145.60000000000002</ele><time>2026-04-01T15:18:43.386Z</time></trkpt><trkpt lat="53.7729901" lon="-1.6763766"><ele>144.8</ele><time>2026-04-01T15:18:44.379Z</time></trkpt><trkpt lat="53.7730549" lon="-1.6763132"><ele>144.0</ele><time>2026-04-01T15:18:45.387Z</time></trkpt><trkpt lat="53.7731236" lon="-1.6762619"><ele>144.0</ele><time>2026-04-01T15:18:46.386Z</time></trkpt><trkpt lat="53.7731897" lon="-1.676228"><ele>144.0</ele><time>2026-04-01T15:18:47.384Z</time></trkpt><trkpt lat="53.7732895" lon="-1.6762021"><ele>144.0</ele><time>2026-04-01T15:18:49.386Z</time></trkpt><trkpt lat="53.7733606" lon="-1.6761797"><ele>144.0</ele><time>2026-04-01T15:18:52.385Z</time></trkpt><trkpt lat="53.7733382" lon="-1.6762967"><ele>144.0</ele><time>2026-04-01T15:18:58.385Z</time></trkpt><trkpt lat="53.7732961" lon="-1.6764079"><ele>144.0</ele><time>2026-04-01T15:19:01.387Z</time></trkpt><trkpt lat="53.7733413" lon="-1.6765483"><ele>144.0</ele><time>2026-04-01T15:19:04.39Z</time></trkpt><trkpt lat="53.7733654" lon="-1.67668"><ele>144.0</ele><time>2026-04-01T15:19:06.389Z</time></trkpt><trkpt lat="53.7733827" lon="-1.6767953"><ele>144.0</ele><time>2026-04-01T15:19:08.39Z</time></trkpt><trkpt lat="53.7734743" lon="-1.676835"><ele>144.0</ele><time>2026-04-01T15:19:10.384Z</time></trkpt><trkpt lat="53.7735555" lon="-1.6768086"><ele>144.0</ele><time>2026-04-01T15:19:11.392Z</time></trkpt><trkpt lat="53.7736494" lon="-1.6767379"><ele>144.0</ele><time>2026-04-01T15:19:12.387Z</time></trkpt><trkpt lat="53.7737501" lon="-1.6766353"><ele>142.2</ele><time>2026-04-01T15:19:13.386Z</time></trkpt><trkpt lat="53.7738572" lon="-1.6765272"><ele>140.4</ele><time>2026-04-01T15:19:14.386Z</time></trkpt><trkpt lat="53.7739616" lon="-1.6764347"><ele>138.6</ele><time>2026-04-01T15:19:15.388Z</time></trkpt><trkpt lat="53.7740561" lon="-1.6763536"><ele>136.8</ele><time>2026-04-01T15:19:16.387Z</time></trkpt><trkpt lat="53.7741311" lon="-1.6762686"><ele>135.0</ele><time>2026-04-01T15:19:17.387Z</time></trkpt><trkpt lat="53.7741809" lon="-1.6761687"><ele>134.66666666666666</ele><time>2026-04-01T15:19:18.385Z</time></trkpt><trkpt lat="53.7742084" lon="-1.676041"><ele>134.33333333333334</ele><time>2026-04-01T15:19:19.386Z</time></trkpt><trkpt lat="53.7742106" lon="-1.6759005"><ele>134.0</ele><time>2026-04-01T15:19:20.387Z</time></trkpt><trkpt lat="53.7741837" lon="-1.6757593"><ele>133.66666666666669</ele><time>2026-04-01T15:19:21.386Z</time></trkpt><trkpt lat="53.7741529" lon="-1.6756402"><ele>133.33333333333334</ele><time>2026-04-01T15:19:22.385Z</time></trkpt><trkpt lat="53.7741292" lon="-1.6755198"><ele>133.0</ele><time>2026-04-01T15:19:24.386Z</time></trkpt><trkpt lat="53.7742101" lon="-1.6755602"><ele>133.0</ele><time>2026-04-01T15:19:27.386Z</time></trkpt><trkpt lat="53.7742968" lon="-1.6755526"><ele>133.0</ele><time>2026-04-01T15:19:31.384Z</time></trkpt><trkpt lat="53.7743709" lon="-1.6755111"><ele>133.0</ele><time>2026-04-01T15:19:34.386Z</time></trkpt><trkpt lat="53.7744042" lon="-1.6756262"><ele>133.0</ele><time>2026-04-01T15:19:36.384Z</time></trkpt><trkpt lat="53.774434" lon="-1.6758367"><ele>133.0</ele><time>2026-04-01T15:19:38.383Z</time></trkpt><trkpt lat="53.7744766" lon="-1.6760176"><ele>131.4</ele><time>2026-04-01T15:19:40.387Z</time></trkpt><trkpt lat="53.7745241" lon="-1.6762082"><ele>129.8</ele><time>2026-04-01T15:19:42.377Z</time></trkpt><trkpt lat="53.7746035" lon="-1.6763657"><ele>128.2</ele><time>2026-04-01T15:19:44.388Z</time></trkpt><trkpt lat="53.7746574" lon="-1.6765052"><ele>126.6</ele><time>2026-04-01T15:19:46.384Z</time></trkpt><trkpt lat="53.7747206" lon="-1.6764507"><ele>125.0</ele><time>2026-04-01T15:19:50.384Z</time></trkpt><trkpt lat="53.7747392" lon="-1.6763442"><ele>124.99999999999999</ele><time>2026-04-01T15:19:52.385Z</time></trkpt><trkpt lat="53.7747802" lon="-1.6762552"><ele>125.0</ele><time>2026-04-01T15:20:09.38Z</time></trkpt><trkpt lat="53.7747365" lon="-1.6761484"><ele>125.0</ele><time>2026-04-01T15:20:13.384Z</time></trkpt><trkpt lat="53.7746944" lon="-1.6759967"><ele>125.0</ele><time>2026-04-01T15:20:15.376Z</time></trkpt><trkpt lat="53.774655" lon="-1.6758294"><ele>124.99999999999999</ele><time>2026-04-01T15:20:17.386Z</time></trkpt><trkpt lat="53.774603" lon="-1.6757601"><ele>125.0</ele><time>2026-04-01T15:20:18.384Z</time></trkpt><trkpt lat="53.7745382" lon="-1.6757015"><ele>125.14285714285714</ele><time>2026-04-01T15:20:19.384Z</time></trkpt><trkpt lat="53.7744852" lon="-1.6756345"><ele>125.28571428571429</ele><time>2026-04-01T15:20:20.384Z</time></trkpt><trkpt lat="53.7744432" lon="-1.6755485"><ele>125.42857142857143</ele><time>2026-04-01T15:20:21.384Z</time></trkpt><trkpt lat="53.7744073" lon="-1.6754603"><ele>125.57142857142857</ele><time>2026-04-01T15:20:22.382Z</time></trkpt><trkpt lat="53.7743402" lon="-1.6753978"><ele>125.71428571428572</ele><time>2026-04-01T15:20:24.385Z</time></trkpt><trkpt lat="53.7742922" lon="-1.6754699"><ele>125.85714285714286</ele><time>2026-04-01T15:20:27.384Z</time></trkpt><trkpt lat="53.7742164" lon="-1.675509"><ele>126.0</ele><time>2026-04-01T15:20:31.386Z</time></trkpt><trkpt lat="53.774192" lon="-1.6752878"><ele>127.33333333333333</ele><time>2026-04-01T15:20:34.391Z</time></trkpt><trkpt lat="53.7742234" lon="-1.6751334"><ele>128.66666666666666</ele><time>2026-04-01T15:20:35.39Z</time></trkpt><trkpt lat="53.7742496" lon="-1.674994"><ele>130.0</ele><time>2026-04-01T15:20:36.388Z</time></trkpt><trkpt lat="53.7742783" lon="-1.6748569"><ele>131.33333333333331</ele><time>2026-04-01T15:20:38.386Z</time></trkpt><trkpt lat="53.7742035" lon="-1.6748153"><ele>132.66666666666666</ele><time>2026-04-01T15:20:41.386Z</time></trkpt><trkpt lat="53.7741466" lon="-1.6747435"><ele>134.0</ele><time>2026-04-01T15:20:44.386Z</time></trkpt><trkpt lat="53.7741224" lon="-1.6746102"><ele>134.0</ele><time>2026-04-01T15:20:49.385Z</time></trkpt><trkpt lat="53.7740807" lon="-1.6744719"><ele>134.0</ele><time>2026-04-01T15:21:06.383Z</time></trkpt><trkpt lat="53.7740753" lon="-1.6743568"><ele>134.0</ele><time>2026-04-01T15:21:08.384Z</time></trkpt><trkpt lat="53.7740231" lon="-1.6742461"><ele>134.0</ele><time>2026-04-01T15:21:22.381Z</time></trkpt><trkpt lat="53.7739756" lon="-1.6741586"><ele>134.0</ele><time>2026-04-01T15:21:24.388Z</time></trkpt><trkpt lat="53.7739358" lon="-1.6740493"><ele>134.0</ele><time>2026-04-01T15:22:11.387Z</time></trkpt><trkpt lat="53.7739246" lon="-1.6739413"><ele>134.5</ele><time>2026-04-01T15:22:13.386Z</time></trkpt><trkpt lat="53.773917" lon="-1.6738245"><ele>135.0</ele><time>2026-04-01T15:22:15.388Z</time></trkpt><trkpt lat="53.7739206" lon="-1.6736848"><ele>135.5</ele><time>2026-04-01T15:22:17.389Z</time></trkpt><trkpt lat="53.7739292" lon="-1.6735598"><ele>136.0</ele><time>2026-04-01T15:22:19.389Z</time></trkpt><trkpt lat="53.7739895" lon="-1.6736417"><ele>136.5</ele><time>2026-04-01T15:22:26.38Z</time></trkpt><trkpt lat="53.7740547" lon="-1.6737234"><ele>137.0</ele><time>2026-04-01T15:22:29.386Z</time></trkpt><trkpt lat="53.7741235" lon="-1.673776"><ele>137.0</ele><time>2026-04-01T15:22:32.389Z</time></trkpt><trkpt lat="53.7741744" lon="-1.6736481"><ele>137.0</ele><time>2026-04-01T15:22:35.389Z</time></trkpt><trkpt lat="53.7742234" lon="-1.6735119"><ele>137.0</ele><time>2026-04-01T15:22:37.388Z</time></trkpt><trkpt lat="53.7742607" lon="-1.673387"><ele>137.0</ele><time>2026-04-01T15:22:39.389Z</time></trkpt><trkpt lat="53.7742577" lon="-1.6732329"><ele>137.0</ele><time>2026-04-01T15:22:41.389Z</time></trkpt><trkpt lat="53.774247" lon="-1.6731151"><ele>137.0</ele><time>2026-04-01T15:22:43.386Z</time></trkpt><trkpt lat="53.7743065" lon="-1.6730218"><ele>136.83333333333331</ele><time>2026-04-01T15:22:45.385Z</time></trkpt><trkpt lat="53.7743808" lon="-1.6729163"><ele>136.66666666666666</ele><time>2026-04-01T15:22:47.389Z</time></trkpt><trkpt lat="53.7744233" lon="-1.6727406"><ele>136.5</ele><time>2026-04-01T15:22:49.386Z</time></trkpt><trkpt lat="53.7744346" lon="-1.6726317"><ele>136.33333333333334</ele><time>2026-04-01T15:22:50.387Z</time></trkpt><trkpt lat="53.7744601" lon="-1.6724851"><ele>136.16666666666669</ele><time>2026-04-01T15:22:52.387Z</time></trkpt><trkpt lat="53.7745273" lon="-1.6724345"><ele>136.0</ele><time>2026-04-01T15:22:54.387Z</time></trkpt><trkpt lat="53.7746127" lon="-1.6724926"><ele>136.4</ele><time>2026-04-01T15:22:56.387Z</time></trkpt><trkpt lat="53.7747337" lon="-1.6724689"><ele>136.8</ele><time>2026-04-01T15:22:58.384Z</time></trkpt><trkpt lat="53.77479" lon="-1.6724056"><ele>137.20000000000002</ele><time>2026-04-01T15:22:59.385Z</time></trkpt><trkpt lat="53.7748718" lon="-1.6723239"><ele>137.6</ele><time>2026-04-01T15:23:00.385Z</time></trkpt><trkpt lat="53.7749674" lon="-1.6722439"><ele>138.0</ele><time>2026-04-01T15:23:01.385Z</time></trkpt><trkpt lat="53.7750664" lon="-1.6721851"><ele>138.0</ele><time>2026-04-01T15:23:02.385Z</time></trkpt><trkpt lat="53.7751512" lon="-1.6721664"><ele>138.0</ele><time>2026-04-01T15:23:03.386Z</time></trkpt><trkpt lat="53.7752302" lon="-1.6721656"><ele>138.0</ele><time>2026-04-01T15:23:04.383Z</time></trkpt><trkpt lat="53.7753196" lon="-1.6721907"><ele>138.0</ele><time>2026-04-01T15:23:05.383Z</time></trkpt><trkpt lat="53.7754285" lon="-1.6722338"><ele>138.0</ele><time>2026-04-01T15:23:06.385Z</time></trkpt><trkpt lat="53.7755373" lon="-1.6722671"><ele>135.5</ele><time>2026-04-01T15:23:07.385Z</time></trkpt><trkpt lat="53.7756469" lon="-1.6722719"><ele>133.0</ele><time>2026-04-01T15:23:08.386Z</time></trkpt><trkpt lat="53.7757601" lon="-1.6722556"><ele>130.5</ele><time>2026-04-01T15:23:09.383Z</time></trkpt><trkpt lat="53.7758788" lon="-1.6721666"><ele>128.0</ele><time>2026-04-01T15:23:10.382Z</time></trkpt><trkpt lat="53.7759735" lon="-1.6720539"><ele>127.16666666666666</ele><time>2026-04-01T15:23:11.383Z</time></trkpt><trkpt lat="53.776054" lon="-1.6719499"><ele>126.33333333333333</ele><time>2026-04-01T15:23:12.387Z</time></trkpt><trkpt lat="53.7761086" lon="-1.6718912"><ele>125.5</ele><time>2026-04-01T15:23:13.381Z</time></trkpt><trkpt lat="53.7762063" lon="-1.6719676"><ele>124.66666666666666</ele><time>2026-04-01T15:23:15.381Z</time></trkpt><trkpt lat="53.776254" lon="-1.6720569"><ele>123.83333333333333</ele><time>2026-04-01T15:23:16.384Z</time></trkpt><trkpt lat="53.7762891" lon="-1.6721527"><ele>123.0</ele><time>2026-04-01T15:23:17.385Z</time></trkpt><trkpt lat="53.7763203" lon="-1.6722472"><ele>122.2</ele><time>2026-04-01T15:23:18.386Z</time></trkpt><trkpt lat="53.7763618" lon="-1.6724179"><ele>121.4</ele><time>2026-04-01T15:23:20.386Z</time></trkpt><trkpt lat="53.7764392" lon="-1.6725364"><ele>120.60000000000001</ele><time>2026-04-01T15:23:22.386Z</time></trkpt><trkpt lat="53.7764996" lon="-1.6725756"><ele>119.80000000000001</ele><time>2026-04-01T15:23:23.385Z</time></trkpt><trkpt lat="53.7765641" lon="-1.6725998"><ele>119.0</ele><time>2026-04-01T15:23:24.386Z</time></trkpt><trkpt lat="53.7766697" lon="-1.6726015"><ele>118.99999999999999</ele><time>2026-04-01T15:23:26.384Z</time></trkpt><trkpt lat="53.7767578" lon="-1.6725961"><ele>119.0</ele><time>2026-04-01T15:23:28.388Z</time></trkpt><trkpt lat="53.7768419" lon="-1.6725109"><ele>119.0</ele><time>2026-04-01T15:23:30.386Z</time></trkpt><trkpt lat="53.7768943" lon="-1.6724362"><ele>119.0</ele><time>2026-04-01T15:23:31.387Z</time></trkpt><trkpt lat="53.776948" lon="-1.6723487"><ele>118.99999999999999</ele><time>2026-04-01T15:23:32.394Z</time></trkpt><trkpt lat="53.7770007" lon="-1.6722677"><ele>119.0</ele><time>2026-04-01T15:23:33.394Z</time></trkpt><trkpt lat="53.7770521" lon="-1.6721903"><ele>117.6</ele><time>2026-04-01T15:23:34.392Z</time></trkpt><trkpt lat="53.7771623" lon="-1.6721036"><ele>116.2</ele><time>2026-04-01T15:23:36.387Z</time></trkpt><trkpt lat="53.7772473" lon="-1.6720896"><ele>114.79999999999998</ele><time>2026-04-01T15:23:38.387Z</time></trkpt><trkpt lat="53.7773007" lon="-1.6721758"><ele>113.39999999999999</ele><time>2026-04-01T15:23:40.39Z</time></trkpt><trkpt lat="53.7773377" lon="-1.6723214"><ele>112.0</ele><time>2026-04-01T15:23:42.385Z</time></trkpt><trkpt lat="53.7773106" lon="-1.6724656"><ele>112.0</ele><time>2026-04-01T15:23:44.388Z</time></trkpt><trkpt lat="53.7772457" lon="-1.6725722"><ele>112.0</ele><time>2026-04-01T15:23:46.385Z</time></trkpt><trkpt lat="53.7771856" lon="-1.672661"><ele>112.0</ele><time>2026-04-01T15:23:48.383Z</time></trkpt><trkpt lat="53.777134" lon="-1.6727501"><ele>112.0</ele><time>2026-04-01T15:23:50.388Z</time></trkpt><trkpt lat="53.7770845" lon="-1.6728197"><ele>112.0</ele><time>2026-04-01T15:23:52.382Z</time></trkpt><trkpt lat="53.7770216" lon="-1.672874"><ele>112.0</ele><time>2026-04-01T15:23:56.38Z</time></trkpt><trkpt lat="53.7769572" lon="-1.672833"><ele>112.0</ele><time>2026-04-01T15:23:59.384Z</time></trkpt><trkpt lat="53.7768618" lon="-1.6728027"><ele>112.00000000000001</ele><time>2026-04-01T15:24:01.384Z</time></trkpt><trkpt lat="53.7767412" lon="-1.6727958"><ele>112.0</ele><time>2026-04-01T15:24:03.387Z</time></trkpt><trkpt lat="53.7766711" lon="-1.6728099"><ele>112.0</ele><time>2026-04-01T15:24:05.388Z</time></trkpt><trkpt lat="53.7766693" lon="-1.6726988"><ele>112.0</ele><time>2026-04-01T15:24:07.388Z</time></trkpt><trkpt lat="53.7767141" lon="-1.6726187"><ele>112.00000000000001</ele><time>2026-04-01T15:24:08.388Z</time></trkpt><trkpt lat="53.7767841" lon="-1.6725447"><ele>112.0</ele><time>2026-04-01T15:24:09.386Z</time></trkpt><trkpt lat="53.7768729" lon="-1.6724528"><ele>112.00000000000001</ele><time>2026-04-01T15:24:10.389Z</time></trkpt><trkpt lat="53.7769498" lon="-1.672368"><ele>112.0</ele><time>2026-04-01T15:24:11.392Z</time></trkpt><trkpt lat="53.7770188" lon="-1.6722815"><ele>112.0</ele><time>2026-04-01T15:24:12.388Z</time></trkpt><trkpt lat="53.7770817" lon="-1.6721999"><ele>112.0</ele><time>2026-04-01T15:24:13.385Z</time></trkpt><trkpt lat="53.7771451" lon="-1.6721419"><ele>112.00000000000001</ele><time>2026-04-01T15:24:14.388Z</time></trkpt><trkpt lat="53.7772071" lon="-1.6721191"><ele>112.0</ele><time>2026-04-01T15:24:15.385Z</time></trkpt><trkpt lat="53.7772922" lon="-1.6721494"><ele>112.0</ele><time>2026-04-01T15:24:17.39Z</time></trkpt><trkpt lat="53.7773324" lon="-1.6723238"><ele>111.99999999999999</ele><time>2026-04-01T15:24:19.384Z</time></trkpt><trkpt lat="53.7773127" lon="-1.6725176"><ele>111.99999999999999</ele><time>2026-04-01T15:24:21.386Z</time></trkpt><trkpt lat="53.7772358" lon="-1.6726545"><ele>112.0</ele><time>2026-04-01T15:24:23.385Z</time></trkpt><trkpt lat="53.7771626" lon="-1.6727565"><ele>112.0</ele><time>2026-04-01T15:24:25.386Z</time></trkpt><trkpt lat="53.7771033" lon="-1.6728539"><ele>111.71428571428571</ele><time>2026-04-01T15:24:27.386Z</time></trkpt><trkpt lat="53.7770419" lon="-1.672909"><ele>111.42857142857143</ele><time>2026-04-01T15:24:30.383Z</time></trkpt><trkpt lat="53.7769862" lon="-1.6729679"><ele>111.14285714285714</ele><time>2026-04-01T15:24:34.385Z</time></trkpt><trkpt lat="53.7769271" lon="-1.6730209"><ele>110.85714285714286</ele><time>2026-04-01T15:24:41.384Z</time></trkpt><trkpt lat="53.776852" lon="-1.6730684"><ele>110.57142857142857</ele><time>2026-04-01T15:24:43.385Z</time></trkpt><trkpt lat="53.7767963" lon="-1.6731262"><ele>110.28571428571428</ele><time>2026-04-01T15:24:44.385Z</time></trkpt><trkpt lat="53.7767372" lon="-1.6731924"><ele>110.0</ele><time>2026-04-01T15:24:45.385Z</time></trkpt><trkpt lat="53.7766745" lon="-1.6732621"><ele>110.33333333333333</ele><time>2026-04-01T15:24:46.383Z</time></trkpt><trkpt lat="53.7766136" lon="-1.6733351"><ele>110.66666666666666</ele><time>2026-04-01T15:24:47.384Z</time></trkpt><trkpt lat="53.776546" lon="-1.6734175"><ele>111.0</ele><time>2026-04-01T15:24:48.386Z</time></trkpt><trkpt lat="53.7764749" lon="-1.67351"><ele>111.33333333333334</ele><time>2026-04-01T15:24:49.385Z</time></trkpt><trkpt lat="53.7764154" lon="-1.67359"><ele>111.66666666666667</ele><time>2026-04-01T15:24:50.382Z</time></trkpt><trkpt lat="53.776365" lon="-1.6736618"><ele>112.0</ele><time>2026-04-01T15:24:51.382Z</time></trkpt><trkpt lat="53.7762726" lon="-1.6737872"><ele>112.00000000000001</ele><time>2026-04-01T15:24:53.385Z</time></trkpt><trkpt lat="53.7762066" lon="-1.6739191"><ele>112.0</ele><time>2026-04-01T15:24:55.384Z</time></trkpt><trkpt lat="53.7762491" lon="-1.6741019"><ele>112.0</ele><time>2026-04-01T15:24:57.384Z</time></trkpt><trkpt lat="53.7763082" lon="-1.6742002"><ele>112.0</ele><time>2026-04-01T15:24:58.385Z</time></trkpt><trkpt lat="53.7763634" lon="-1.6742776"><ele>112.00000000000001</ele><time>2026-04-01T15:24:59.378Z</time></trkpt><trkpt lat="53.7764201" lon="-1.6743264"><ele>112.0</ele><time>2026-04-01T15:25:00.385Z</time></trkpt><trkpt lat="53.776525" lon="-1.6743463"><ele>112.0</ele><time>2026-04-01T15:25:02.385Z</time></trkpt><trkpt lat="53.7766103" lon="-1.6742469"><ele>111.99999999999999</ele><time>2026-04-01T15:25:04.386Z</time></trkpt><trkpt lat="53.7766809" lon="-1.6741017"><ele>111.99999999999999</ele><time>2026-04-01T15:25:06.384Z</time></trkpt><trkpt lat="53.7767197" lon="-1.67393"><ele>112.0</ele><time>2026-04-01T15:25:08.384Z</time></trkpt><trkpt lat="53.7767396" lon="-1.6737828"><ele>112.0</ele><time>2026-04-01T15:25:10.385Z</time></trkpt><trkpt lat="53.7767569" lon="-1.6736401"><ele>112.00000000000001</ele><time>2026-04-01T15:25:12.383Z</time></trkpt><trkpt lat="53.7767631" lon="-1.6734645"><ele>112.0</ele><time>2026-04-01T15:25:14.384Z</time></trkpt><trkpt lat="53.7767283" lon="-1.6733638"><ele>112.0</ele><time>2026-04-01T15:25:35.384Z</time></trkpt><trkpt lat="53.7766634" lon="-1.6734007"><ele>112.0</ele><time>2026-04-01T15:25:37.385Z</time></trkpt><trkpt lat="53.7765985" lon="-1.6734561"><ele>112.00000000000001</ele><time>2026-04-01T15:25:38.385Z</time></trkpt><trkpt lat="53.7765144" lon="-1.6735341"><ele>112.0</ele><time>2026-04-01T15:25:39.382Z</time></trkpt><trkpt lat="53.7764337" lon="-1.6736098"><ele>112.0</ele><time>2026-04-01T15:25:40.384Z</time></trkpt><trkpt lat="53.7763615" lon="-1.6736833"><ele>111.99999999999999</ele><time>2026-04-01T15:25:41.383Z</time></trkpt><trkpt lat="53.7762666" lon="-1.6737939"><ele>111.99999999999999</ele><time>2026-04-01T15:25:43.381Z</time></trkpt><trkpt lat="53.7762197" lon="-1.6739386"><ele>112.0</ele><time>2026-04-01T15:25:45.386Z</time></trkpt><trkpt lat="53.7762762" lon="-1.6741248"><ele>112.0</ele><time>2026-04-01T15:25:47.386Z</time></trkpt><trkpt lat="53.7763289" lon="-1.6742112"><ele>112.00000000000001</ele><time>2026-04-01T15:25:48.385Z</time></trkpt><trkpt lat="53.7763856" lon="-1.674276"><ele>112.0</ele><time>2026-04-01T15:25:49.383Z</time></trkpt><trkpt lat="53.7764494" lon="-1.6743215"><ele>112.0</ele><time>2026-04-01T15:25:50.381Z</time></trkpt><trkpt lat="53.7765459" lon="-1.6743461"><ele>112.0</ele><time>2026-04-01T15:25:52.385Z</time></trkpt><trkpt lat="53.7766241" lon="-1.6742309"><ele>112.00000000000001</ele><time>2026-04-01T15:25:54.387Z</time></trkpt><trkpt lat="53.7766622" lon="-1.6741441"><ele>112.0</ele><time>2026-04-01T15:25:55.385Z</time></trkpt><trkpt lat="53.7767236" lon="-1.6739667"><ele>112.00000000000001</ele><time>2026-04-01T15:25:57.384Z</time></trkpt><trkpt lat="53.7767485" lon="-1.6737985"><ele>112.0</ele><time>2026-04-01T15:25:59.382Z</time></trkpt><trkpt lat="53.7767555" lon="-1.6736586"><ele>112.0</ele><time>2026-04-01T15:26:01.384Z</time></trkpt><trkpt lat="53.7767511" lon="-1.6735198"><ele>112.0</ele><time>2026-04-01T15:26:03.384Z</time></trkpt><trkpt lat="53.7767367" lon="-1.6733829"><ele>112.00000000000001</ele><time>2026-04-01T15:26:05.386Z</time></trkpt><trkpt lat="53.7766687" lon="-1.6732622"><ele>112.0</ele><time>2026-04-01T15:26:07.386Z</time></trkpt><trkpt lat="53.7766161" lon="-1.6731727"><ele>112.00000000000001</ele><time>2026-04-01T15:26:10.388Z</time></trkpt><trkpt lat="53.7765603" lon="-1.6732235"><ele>112.0</ele><time>2026-04-01T15:26:52.389Z</time></trkpt><trkpt lat="53.7764909" lon="-1.6732774"><ele>112.0</ele><time>2026-04-01T15:26:56.39Z</time></trkpt><trkpt lat="53.776436" lon="-1.6733374"><ele>112.0</ele><time>2026-04-01T15:27:00.389Z</time></trkpt><trkpt lat="53.7764305" lon="-1.6735156"><ele>112.00000000000001</ele><time>2026-04-01T15:27:08.388Z</time></trkpt><trkpt lat="53.7764283" lon="-1.6736875"><ele>112.0</ele><time>2026-04-01T15:27:10.39Z</time></trkpt><trkpt lat="53.7763686" lon="-1.6737835"><ele>112.00000000000001</ele><time>2026-04-01T15:27:12.385Z</time></trkpt><trkpt lat="53.7762985" lon="-1.6738267"><ele>112.0</ele><time>2026-04-01T15:27:13.386Z</time></trkpt><trkpt lat="53.7762136" lon="-1.6738714"><ele>112.0</ele><time>2026-04-01T15:27:14.389Z</time></trkpt><trkpt lat="53.7761391" lon="-1.6739232"><ele>112.0</ele><time>2026-04-01T15:27:15.388Z</time></trkpt><trkpt lat="53.7760408" lon="-1.6739973"><ele>112.00000000000001</ele><time>2026-04-01T15:27:17.387Z</time></trkpt><trkpt lat="53.7759737" lon="-1.6740642"><ele>112.0</ele><time>2026-04-01T15:27:19.38Z</time></trkpt><trkpt lat="53.7759057" lon="-1.6740633"><ele>113.66666666666667</ele><time>2026-04-01T15:27:22.384Z</time></trkpt><trkpt lat="53.7758877" lon="-1.6739036"><ele>115.33333333333334</ele><time>2026-04-01T15:27:25.386Z</time></trkpt><trkpt lat="53.7758398" lon="-1.6738182"><ele>117.0</ele><time>2026-04-01T15:27:29.386Z</time></trkpt><trkpt lat="53.775758" lon="-1.6738356"><ele>118.66666666666666</ele><time>2026-04-01T15:27:35.387Z</time></trkpt><trkpt lat="53.7756502" lon="-1.6738313"><ele>120.33333333333333</ele><time>2026-04-01T15:27:37.388Z</time></trkpt><trkpt lat="53.7755643" lon="-1.673804"><ele>122.0</ele><time>2026-04-01T15:27:39.386Z</time></trkpt><trkpt lat="53.7754932" lon="-1.6737109"><ele>121.99999999999999</ele><time>2026-04-01T15:27:41.39Z</time></trkpt><trkpt lat="53.7754257" lon="-1.6736542"><ele>122.0</ele><time>2026-04-01T15:27:43.383Z</time></trkpt><trkpt lat="53.7753434" lon="-1.6736174"><ele>122.0</ele><time>2026-04-01T15:27:46.385Z</time></trkpt><trkpt lat="53.775279" lon="-1.6735706"><ele>122.0</ele><time>2026-04-01T15:27:48.386Z</time></trkpt><trkpt lat="53.7752181" lon="-1.6734865"><ele>121.99999999999999</ele><time>2026-04-01T15:27:50.383Z</time></trkpt><trkpt lat="53.7751663" lon="-1.6733276"><ele>122.0</ele><time>2026-04-01T15:27:52.383Z</time></trkpt><trkpt lat="53.775119" lon="-1.6731432"><ele>124.8</ele><time>2026-04-01T15:27:54.379Z</time></trkpt><trkpt lat="53.7750753" lon="-1.6729548"><ele>127.6</ele><time>2026-04-01T15:27:56.389Z</time></trkpt><trkpt lat="53.7750364" lon="-1.6727797"><ele>130.39999999999998</ele><time>2026-04-01T15:27:58.386Z</time></trkpt><trkpt lat="53.7750105" lon="-1.6726126"><ele>133.2</ele><time>2026-04-01T15:28:00.383Z</time></trkpt><trkpt lat="53.7750017" lon="-1.6724593"><ele>136.0</ele><time>2026-04-01T15:28:02.385Z</time></trkpt><trkpt lat="53.7749981" lon="-1.6723505"><ele>136.33333333333334</ele><time>2026-04-01T15:28:04.386Z</time></trkpt><trkpt lat="53.7750644" lon="-1.6722972"><ele>136.66666666666669</ele><time>2026-04-01T15:29:33.391Z</time></trkpt><trkpt lat="53.775186" lon="-1.6722795"><ele>137.0</ele><time>2026-04-01T15:29:35.388Z</time></trkpt><trkpt lat="53.7752572" lon="-1.6722819"><ele>137.33333333333334</ele><time>2026-04-01T15:29:36.388Z</time></trkpt><trkpt lat="53.7753281" lon="-1.6723018"><ele>137.66666666666666</ele><time>2026-04-01T15:29:37.387Z</time></trkpt><trkpt lat="53.7754131" lon="-1.6723212"><ele>138.0</ele><time>2026-04-01T15:29:38.386Z</time></trkpt><trkpt lat="53.7755173" lon="-1.6723172"><ele>135.5</ele><time>2026-04-01T15:29:39.388Z</time></trkpt><trkpt lat="53.7756434" lon="-1.6722888"><ele>133.0</ele><time>2026-04-01T15:29:40.389Z</time></trkpt><trkpt lat="53.7757693" lon="-1.6722279"><ele>130.5</ele><time>2026-04-01T15:29:41.388Z</time></trkpt><trkpt lat="53.7758671" lon="-1.6721204"><ele>128.0</ele><time>2026-04-01T15:29:42.385Z</time></trkpt><trkpt lat="53.7759446" lon="-1.6720094"><ele>128.0</ele><time>2026-04-01T15:29:43.389Z</time></trkpt><trkpt lat="53.7760063" lon="-1.6719424"><ele>128.0</ele><time>2026-04-01T15:29:44.386Z</time></trkpt><trkpt lat="53.7761282" lon="-1.6719406"><ele>128.0</ele><time>2026-04-01T15:29:46.382Z</time></trkpt><trkpt lat="53.7762175" lon="-1.6720509"><ele>128.0</ele><time>2026-04-01T15:29:47.383Z</time></trkpt><trkpt lat="53.7763156" lon="-1.672181"><ele>128.0</ele><time>2026-04-01T15:29:48.384Z</time></trkpt><trkpt lat="53.7764127" lon="-1.6722817"><ele>126.49999999999999</ele><time>2026-04-01T15:29:49.385Z</time></trkpt><trkpt lat="53.7764986" lon="-1.6723565"><ele>125.0</ele><time>2026-04-01T15:29:50.386Z</time></trkpt><trkpt lat="53.7765853" lon="-1.6724021"><ele>123.5</ele><time>2026-04-01T15:29:51.385Z</time></trkpt><trkpt lat="53.7766675" lon="-1.6724086"><ele>122.0</ele><time>2026-04-01T15:29:52.389Z</time></trkpt><trkpt lat="53.7767346" lon="-1.6723861"><ele>120.49999999999999</ele><time>2026-04-01T15:29:53.387Z</time></trkpt><trkpt lat="53.776816" lon="-1.6723217"><ele>119.0</ele><time>2026-04-01T15:29:55.389Z</time></trkpt><trkpt lat="53.7768701" lon="-1.6722351"><ele>117.83333333333333</ele><time>2026-04-01T15:30:00.394Z</time></trkpt><trkpt lat="53.7769449" lon="-1.6722375"><ele>116.66666666666666</ele><time>2026-04-01T15:30:02.391Z</time></trkpt><trkpt lat="53.7770672" lon="-1.6722228"><ele>115.5</ele><time>2026-04-01T15:30:04.38Z</time></trkpt><trkpt lat="53.7771347" lon="-1.672198"><ele>114.33333333333334</ele><time>2026-04-01T15:30:05.385Z</time></trkpt><trkpt lat="53.7771977" lon="-1.6721686"><ele>113.16666666666667</ele><time>2026-04-01T15:30:06.385Z</time></trkpt><trkpt lat="53.7772999" lon="-1.6721319"><ele>112.0</ele><time>2026-04-01T15:30:08.386Z</time></trkpt><trkpt lat="53.7774066" lon="-1.672117"><ele>112.0</ele><time>2026-04-01T15:30:10.386Z</time></trkpt><trkpt lat="53.7774876" lon="-1.6721106"><ele>112.0</ele><time>2026-04-01T15:30:12.386Z</time></trkpt><trkpt lat="53.7775594" lon="-1.6720954"><ele>112.0</ele><time>2026-04-01T15:30:15.388Z</time></trkpt><trkpt lat="53.7776458" lon="-1.6720368"><ele>112.0</ele><time>2026-04-01T15:30:18.384Z</time></trkpt><trkpt lat="53.7776872" lon="-1.6719469"><ele>112.0</ele><time>2026-04-01T15:30:20.39Z</time></trkpt><trkpt lat="53.7777259" lon="-1.671858"><ele>112.0</ele><time>2026-04-01T15:30:22.387Z</time></trkpt><trkpt lat="53.7777834" lon="-1.6718104"><ele>112.0</ele><time>2026-04-01T15:30:26.385Z</time></trkpt><trkpt lat="53.7778152" lon="-1.6716779"><ele>111.16666666666667</ele><time>2026-04-01T15:30:29.386Z</time></trkpt><trkpt lat="53.7778276" lon="-1.6715673"><ele>110.33333333333334</ele><time>2026-04-01T15:30:33.385Z</time></trkpt><trkpt lat="53.7778655" lon="-1.6714417"><ele>109.5</ele><time>2026-04-01T15:30:36.384Z</time></trkpt><trkpt lat="53.7779137" lon="-1.6713219"><ele>108.66666666666666</ele><time>2026-04-01T15:30:39.383Z</time></trkpt><trkpt lat="53.7779535" lon="-1.6712276"><ele>107.83333333333333</ele><time>2026-04-01T15:30:42.386Z</time></trkpt><trkpt lat="53.7779901" lon="-1.6711196"><ele>107.0</ele><time>2026-04-01T15:30:51.385Z</time></trkpt><trkpt lat="53.7780459" lon="-1.6709964"><ele>107.0</ele><time>2026-04-01T15:30:54.386Z</time></trkpt><trkpt lat="53.7781148" lon="-1.6709099"><ele>107.0</ele><time>2026-04-01T15:30:57.394Z</time></trkpt><trkpt lat="53.7781637" lon="-1.6707928"><ele>107.0</ele><time>2026-04-01T15:31:00.394Z</time></trkpt><trkpt lat="53.7782872" lon="-1.6705363"><ele>107.0</ele><time>2026-04-01T15:31:03.382Z</time></trkpt><trkpt lat="53.7783449" lon="-1.6703763"><ele>107.49999999999999</ele><time>2026-04-01T15:31:05.384Z</time></trkpt><trkpt lat="53.7783649" lon="-1.6702689"><ele>108.0</ele><time>2026-04-01T15:31:07.384Z</time></trkpt><trkpt lat="53.7783525" lon="-1.6701457"><ele>108.5</ele><time>2026-04-01T15:31:10.384Z</time></trkpt><trkpt lat="53.7783501" lon="-1.6700196"><ele>109.0</ele><time>2026-04-01T15:31:14.387Z</time></trkpt><trkpt lat="53.7783364" lon="-1.6699131"><ele>109.49999999999999</ele><time>2026-04-01T15:31:18.387Z</time></trkpt><trkpt lat="53.7783468" lon="-1.6697573"><ele>110.0</ele><time>2026-04-01T15:31:23.388Z</time></trkpt><trkpt lat="53.7784046" lon="-1.669628"><ele>109.99999999999999</ele><time>2026-04-01T15:31:25.387Z</time></trkpt><trkpt lat="53.7784744" lon="-1.6694663"><ele>110.0</ele><time>2026-04-01T15:31:27.388Z</time></trkpt><trkpt lat="53.7784814" lon="-1.6693582"><ele>110.0</ele><time>2026-04-01T15:31:28.386Z</time></trkpt><trkpt lat="53.7784293" lon="-1.6691753"><ele>110.0</ele><time>2026-04-01T15:31:30.387Z</time></trkpt><trkpt lat="53.7784029" lon="-1.6690679"><ele>109.99999999999999</ele><time>2026-04-01T15:31:32.385Z</time></trkpt><trkpt lat="53.7783754" lon="-1.6689477"><ele>110.0</ele><time>2026-04-01T15:31:35.385Z</time></trkpt><trkpt lat="53.7783439" lon="-1.668795"><ele>110.0</ele><time>2026-04-01T15:31:37.386Z</time></trkpt><trkpt lat="53.7783136" lon="-1.668652"><ele>110.0</ele><time>2026-04-01T15:31:39.376Z</time></trkpt><trkpt lat="53.7782944" lon="-1.6685218"><ele>110.0</ele><time>2026-04-01T15:32:11.385Z</time></trkpt><trkpt lat="53.7782141" lon="-1.6684389"><ele>110.0</ele><time>2026-04-01T15:32:14.389Z</time></trkpt><trkpt lat="53.7781173" lon="-1.6683813"><ele>110.0</ele><time>2026-04-01T15:32:17.389Z</time></trkpt><trkpt lat="53.7780273" lon="-1.6683542"><ele>109.66666666666666</ele><time>2026-04-01T15:32:19.388Z</time></trkpt><trkpt lat="53.777932" lon="-1.6683307"><ele>109.33333333333333</ele><time>2026-04-01T15:32:21.387Z</time></trkpt><trkpt lat="53.7778565" lon="-1.6683484"><ele>109.0</ele><time>2026-04-01T15:32:23.388Z</time></trkpt><trkpt lat="53.7777909" lon="-1.668373"><ele>108.66666666666666</ele><time>2026-04-01T15:32:25.388Z</time></trkpt><trkpt lat="53.7777186" lon="-1.6684616"><ele>108.33333333333333</ele><time>2026-04-01T15:32:28.385Z</time></trkpt><trkpt lat="53.7776549" lon="-1.6685169"><ele>108.0</ele><time>2026-04-01T15:32:30.386Z</time></trkpt><trkpt lat="53.7776383" lon="-1.6686411"><ele>108.4</ele><time>2026-04-01T15:32:32.386Z</time></trkpt><trkpt lat="53.7776654" lon="-1.6688165"><ele>108.80000000000001</ele><time>2026-04-01T15:32:34.385Z</time></trkpt><trkpt lat="53.7776925" lon="-1.6689512"><ele>109.2</ele><time>2026-04-01T15:32:36.388Z</time></trkpt><trkpt lat="53.7777713" lon="-1.6690273"><ele>109.6</ele><time>2026-04-01T15:32:38.389Z</time></trkpt><trkpt lat="53.7778501" lon="-1.6690596"><ele>110.0</ele><time>2026-04-01T15:32:39.387Z</time></trkpt><trkpt lat="53.7779348" lon="-1.6691059"><ele>109.99999999999999</ele><time>2026-04-01T15:32:40.387Z</time></trkpt><trkpt lat="53.7780286" lon="-1.6691496"><ele>110.0</ele><time>2026-04-01T15:32:41.389Z</time></trkpt><trkpt lat="53.7781077" lon="-1.6691873"><ele>110.0</ele><time>2026-04-01T15:32:42.388Z</time></trkpt><trkpt lat="53.7781697" lon="-1.6692217"><ele>110.0</ele><time>2026-04-01T15:32:43.389Z</time></trkpt><trkpt lat="53.7782593" lon="-1.669281"><ele>109.99999999999999</ele><time>2026-04-01T15:32:45.389Z</time></trkpt><trkpt lat="53.7782856" lon="-1.6694158"><ele>110.0</ele><time>2026-04-01T15:36:17.391Z</time></trkpt><trkpt lat="53.7783356" lon="-1.6695746"><ele>109.99999999999999</ele><time>2026-04-01T15:36:19.392Z</time></trkpt><trkpt lat="53.7783537" lon="-1.6696851"><ele>110.0</ele><time>2026-04-01T15:36:20.392Z</time></trkpt><trkpt lat="53.7783607" lon="-1.6697915"><ele>110.0</ele><time>2026-04-01T15:36:21.39Z</time></trkpt><trkpt lat="53.778363" lon="-1.669946"><ele>110.0</ele><time>2026-04-01T15:36:23.39Z</time></trkpt><trkpt lat="53.7783692" lon="-1.670054"><ele>109.99999999999999</ele><time>2026-04-01T15:36:25.387Z</time></trkpt><trkpt lat="53.7784174" lon="-1.6701608"><ele>110.0</ele><time>2026-04-01T15:36:27.394Z</time></trkpt><trkpt lat="53.7785096" lon="-1.6702485"><ele>108.33333333333333</ele><time>2026-04-01T15:36:29.393Z</time></trkpt><trkpt lat="53.7786116" lon="-1.6703831"><ele>106.66666666666666</ele><time>2026-04-01T15:36:31.387Z</time></trkpt><trkpt lat="53.7786595" lon="-1.670465"><ele>105.0</ele><time>2026-04-01T15:36:32.393Z</time></trkpt><trkpt lat="53.778689" lon="-1.6705611"><ele>103.33333333333334</ele><time>2026-04-01T15:36:33.391Z</time></trkpt><trkpt lat="53.7786978" lon="-1.670678"><ele>101.66666666666667</ele><time>2026-04-01T15:36:34.393Z</time></trkpt><trkpt lat="53.77869" lon="-1.6707964"><ele>100.0</ele><time>2026-04-01T15:36:35.393Z</time></trkpt><trkpt lat="53.7786721" lon="-1.6709008"><ele>100.00000000000001</ele><time>2026-04-01T15:36:36.391Z</time></trkpt><trkpt lat="53.7786264" lon="-1.6710828"><ele>100.0</ele><time>2026-04-01T15:36:38.393Z</time></trkpt><trkpt lat="53.7785937" lon="-1.6711813"><ele>100.0</ele><time>2026-04-01T15:36:39.391Z</time></trkpt><trkpt lat="53.7785548" lon="-1.6712815"><ele>100.0</ele><time>2026-04-01T15:36:40.393Z</time></trkpt><trkpt lat="53.7785089" lon="-1.6713865"><ele>100.00000000000001</ele><time>2026-04-01T15:36:41.396Z</time></trkpt><trkpt lat="53.7784548" lon="-1.6715054"><ele>100.0</ele><time>2026-04-01T15:36:42.39Z</time></trkpt><trkpt lat="53.7783968" lon="-1.6716236"><ele>101.0</ele><time>2026-04-01T15:36:43.394Z</time></trkpt><trkpt lat="53.778332" lon="-1.6717447"><ele>102.0</ele><time>2026-04-01T15:36:44.395Z</time></trkpt><trkpt lat="53.7782603" lon="-1.6718662"><ele>103.0</ele><time>2026-04-01T15:36:45.39Z</time></trkpt><trkpt lat="53.7781861" lon="-1.6719854"><ele>104.0</ele><time>2026-04-01T15:36:46.394Z</time></trkpt><trkpt lat="53.7781172" lon="-1.6720902"><ele>105.0</ele><time>2026-04-01T15:36:47.392Z</time></trkpt><trkpt lat="53.7780571" lon="-1.6721869"><ele>105.14285714285714</ele><time>2026-04-01T15:36:48.392Z</time></trkpt><trkpt lat="53.7780064" lon="-1.6722682"><ele>105.28571428571428</ele><time>2026-04-01T15:36:49.392Z</time></trkpt><trkpt lat="53.7779609" lon="-1.6723459"><ele>105.42857142857143</ele><time>2026-04-01T15:36:50.39Z</time></trkpt><trkpt lat="53.7779142" lon="-1.6724352"><ele>105.57142857142857</ele><time>2026-04-01T15:36:51.391Z</time></trkpt><trkpt lat="53.7778665" lon="-1.6725312"><ele>105.71428571428571</ele><time>2026-04-01T15:36:52.391Z</time></trkpt><trkpt lat="53.7778266" lon="-1.6726328"><ele>105.85714285714286</ele><time>2026-04-01T15:36:53.39Z</time></trkpt><trkpt lat="53.7777932" lon="-1.6727315"><ele>106.0</ele><time>2026-04-01T15:36:54.388Z</time></trkpt><trkpt lat="53.7777428" lon="-1.672882"><ele>106.16666666666667</ele><time>2026-04-01T15:36:56.389Z</time></trkpt><trkpt lat="53.777704" lon="-1.6730136"><ele>106.33333333333334</ele><time>2026-04-01T15:36:59.39Z</time></trkpt><trkpt lat="53.7776724" lon="-1.6731224"><ele>106.5</ele><time>2026-04-01T15:37:02.391Z</time></trkpt><trkpt lat="53.777607" lon="-1.6732341"><ele>106.66666666666666</ele><time>2026-04-01T15:37:14.391Z</time></trkpt><trkpt lat="53.7775671" lon="-1.6733843"><ele>106.83333333333333</ele><time>2026-04-01T15:37:16.39Z</time></trkpt><trkpt lat="53.7775387" lon="-1.6735142"><ele>107.0</ele><time>2026-04-01T15:37:19.39Z</time></trkpt><trkpt lat="53.777489" lon="-1.6736059"><ele>106.99999999999999</ele><time>2026-04-01T15:37:22.389Z</time></trkpt><trkpt lat="53.7774464" lon="-1.6737334"><ele>107.0</ele><time>2026-04-01T15:37:24.394Z</time></trkpt><trkpt lat="53.777396" lon="-1.6738863"><ele>107.0</ele><time>2026-04-01T15:37:26.392Z</time></trkpt><trkpt lat="53.7773399" lon="-1.6739571"><ele>107.0</ele><time>2026-04-01T15:37:28.389Z</time></trkpt><trkpt lat="53.7772635" lon="-1.673876"><ele>106.99999999999999</ele><time>2026-04-01T15:37:31.391Z</time></trkpt><trkpt lat="53.7772956" lon="-1.673772"><ele>107.0</ele><time>2026-04-01T15:37:37.391Z</time></trkpt><trkpt lat="53.7773516" lon="-1.6736933"><ele>107.00000000000001</ele><time>2026-04-01T15:37:40.391Z</time></trkpt><trkpt lat="53.7773046" lon="-1.6736213"><ele>107.0</ele><time>2026-04-01T15:37:56.39Z</time></trkpt><trkpt lat="53.7772362" lon="-1.6736411"><ele>107.0</ele><time>2026-04-01T15:38:00.389Z</time></trkpt><trkpt lat="53.7771603" lon="-1.6736646"><ele>107.0</ele><time>2026-04-01T15:38:03.391Z</time></trkpt><trkpt lat="53.7771749" lon="-1.6735554"><ele>107.0</ele><time>2026-04-01T15:38:09.39Z</time></trkpt><trkpt lat="53.7771955" lon="-1.6734212"><ele>107.00000000000001</ele><time>2026-04-01T15:38:13.391Z</time></trkpt><trkpt lat="53.7771617" lon="-1.6733009"><ele>107.0</ele><time>2026-04-01T15:38:16.308Z</time></trkpt><trkpt lat="53.7771455" lon="-1.6731383"><ele>107.49999999999999</ele><time>2026-04-01T15:38:18.39Z</time></trkpt><trkpt lat="53.7771321" lon="-1.6730275"><ele>108.0</ele><time>2026-04-01T15:38:20.369Z</time></trkpt><trkpt lat="53.7770694" lon="-1.6729443"><ele>108.5</ele><time>2026-04-01T15:38:22.386Z</time></trkpt><trkpt lat="53.7770058" lon="-1.6730416"><ele>109.0</ele><time>2026-04-01T15:38:25.394Z</time></trkpt><trkpt lat="53.7769505" lon="-1.6731059"><ele>109.49999999999999</ele><time>2026-04-01T15:38:28.41Z</time></trkpt><trkpt lat="53.7768697" lon="-1.6731638"><ele>110.0</ele><time>2026-04-01T15:38:29.391Z</time></trkpt><trkpt lat="53.7768069" lon="-1.6732114"><ele>110.4</ele><time>2026-04-01T15:38:30.392Z</time></trkpt><trkpt lat="53.7767153" lon="-1.673302"><ele>110.8</ele><time>2026-04-01T15:38:32.391Z</time></trkpt><trkpt lat="53.7766371" lon="-1.6734032"><ele>111.19999999999999</ele><time>2026-04-01T15:38:34.392Z</time></trkpt><trkpt lat="53.7765345" lon="-1.6735081"><ele>111.6</ele><time>2026-04-01T15:38:36.39Z</time></trkpt><trkpt lat="53.7764431" lon="-1.6736122"><ele>112.0</ele><time>2026-04-01T15:38:38.39Z</time></trkpt><trkpt lat="53.7763665" lon="-1.6737299"><ele>112.0</ele><time>2026-04-01T15:38:40.392Z</time></trkpt><trkpt lat="53.7762849" lon="-1.6738535"><ele>111.99999999999999</ele><time>2026-04-01T15:38:42.391Z</time></trkpt><trkpt lat="53.7762714" lon="-1.6739765"><ele>111.99999999999999</ele><time>2026-04-01T15:38:44.393Z</time></trkpt><trkpt lat="53.7763256" lon="-1.6741187"><ele>112.0</ele><time>2026-04-01T15:38:46.391Z</time></trkpt><trkpt lat="53.7763969" lon="-1.6742365"><ele>112.0</ele><time>2026-04-01T15:38:48.393Z</time></trkpt><trkpt lat="53.7764509" lon="-1.6743071"><ele>112.00000000000001</ele><time>2026-04-01T15:38:50.392Z</time></trkpt><trkpt lat="53.7765416" lon="-1.6743073"><ele>112.0</ele><time>2026-04-01T15:38:53.393Z</time></trkpt><trkpt lat="53.7765925" lon="-1.6742254"><ele>112.0</ele><time>2026-04-01T15:38:55.392Z</time></trkpt><trkpt lat="53.7766412" lon="-1.6741418"><ele>112.0</ele><time>2026-04-01T15:38:57.39Z</time></trkpt><trkpt lat="53.7766953" lon="-1.6740735"><ele>112.00000000000001</ele><time>2026-04-01T15:38:59.392Z</time></trkpt><trkpt lat="53.7767719" lon="-1.6740317"><ele>112.0</ele><time>2026-04-01T15:39:02.391Z</time></trkpt><trkpt lat="53.7768436" lon="-1.6739482"><ele>111.66666666666667</ele><time>2026-04-01T15:39:05.388Z</time></trkpt><trkpt lat="53.7768871" lon="-1.6738684"><ele>111.33333333333334</ele><time>2026-04-01T15:39:07.392Z</time></trkpt><trkpt lat="53.7769605" lon="-1.6737823"><ele>111.0</ele><time>2026-04-01T15:39:10.392Z</time></trkpt><trkpt lat="53.7770241" lon="-1.6737134"><ele>110.66666666666666</ele><time>2026-04-01T15:39:13.387Z</time></trkpt><trkpt lat="53.777062" lon="-1.6735915"><ele>110.33333333333333</ele><time>2026-04-01T15:39:16.391Z</time></trkpt><trkpt lat="53.7770776" lon="-1.6734601"><ele>110.0</ele><time>2026-04-01T15:39:31.393Z</time></trkpt><trkpt lat="53.777117" lon="-1.6733399"><ele>109.99999999999999</ele><time>2026-04-01T15:39:33.393Z</time></trkpt><trkpt lat="53.7771472" lon="-1.6732209"><ele>110.0</ele><time>2026-04-01T15:39:35.392Z</time></trkpt><trkpt lat="53.7771743" lon="-1.6731107"><ele>110.0</ele><time>2026-04-01T15:39:37.394Z</time></trkpt><trkpt lat="53.7772195" lon="-1.6729819"><ele>110.0</ele><time>2026-04-01T15:39:40.394Z</time></trkpt><trkpt lat="53.7772906" lon="-1.6728926"><ele>109.99999999999999</ele><time>2026-04-01T15:39:44.396Z</time></trkpt><trkpt lat="53.777342" lon="-1.6728028"><ele>110.0</ele><time>2026-04-01T15:39:48.395Z</time></trkpt><trkpt lat="53.7773892" lon="-1.6727306"><ele>109.99999999999999</ele><time>2026-04-01T15:41:04.395Z</time></trkpt><trkpt lat="53.7773491" lon="-1.672813"><ele>110.0</ele><time>2026-04-01T15:41:54.397Z</time></trkpt><trkpt lat="53.7773715" lon="-1.6727046"><ele>110.0</ele><time>2026-04-01T15:42:57.396Z</time></trkpt><trkpt lat="53.77738" lon="-1.6725661"><ele>110.0</ele><time>2026-04-01T15:43:07.396Z</time></trkpt><trkpt lat="53.7774063" lon="-1.6724622"><ele>110.0</ele><time>2026-04-01T15:43:49.386Z</time></trkpt><trkpt lat="53.7774501" lon="-1.6723468"><ele>109.99999999999999</ele><time>2026-04-01T15:43:52.396Z</time></trkpt><trkpt lat="53.7774865" lon="-1.6722129"><ele>110.0</ele><time>2026-04-01T15:43:56.39Z</time></trkpt><trkpt lat="53.7775231" lon="-1.6721192"><ele>110.4</ele><time>2026-04-01T15:43:59.396Z</time></trkpt><trkpt lat="53.777557" lon="-1.6719976"><ele>110.8</ele><time>2026-04-01T15:44:02.393Z</time></trkpt><trkpt lat="53.7775885" lon="-1.671862"><ele>111.19999999999999</ele><time>2026-04-01T15:44:05.394Z</time></trkpt><trkpt lat="53.7776227" lon="-1.6716515"><ele>111.6</ele><time>2026-04-01T15:44:07.392Z</time></trkpt><trkpt lat="53.7776619" lon="-1.6715108"><ele>112.0</ele><time>2026-04-01T15:44:11.394Z</time></trkpt><trkpt lat="53.777689" lon="-1.6713908"><ele>112.0</ele><time>2026-04-01T15:44:14.397Z</time></trkpt><trkpt lat="53.7776191" lon="-1.6714048"><ele>112.0</ele><time>2026-04-01T15:44:18.396Z</time></trkpt><trkpt lat="53.7775851" lon="-1.6715195"><ele>112.0</ele><time>2026-04-01T15:44:20.391Z</time></trkpt><trkpt lat="53.7775488" lon="-1.6716323"><ele>112.0</ele><time>2026-04-01T15:44:21.393Z</time></trkpt><trkpt lat="53.7775102" lon="-1.6717285"><ele>112.0</ele><time>2026-04-01T15:44:22.388Z</time></trkpt><trkpt lat="53.7774548" lon="-1.671845"><ele>112.0</ele><time>2026-04-01T15:44:24.395Z</time></trkpt><trkpt lat="53.7774165" lon="-1.6719343"><ele>112.0</ele><time>2026-04-01T15:44:26.395Z</time></trkpt><trkpt lat="53.7773687" lon="-1.672058"><ele>112.0</ele><time>2026-04-01T15:44:28.395Z</time></trkpt><trkpt lat="53.7773218" lon="-1.6721878"><ele>111.99999999999999</ele><time>2026-04-01T15:44:30.393Z</time></trkpt><trkpt lat="53.7772779" lon="-1.6723056"><ele>111.99999999999999</ele><time>2026-04-01T15:44:32.394Z</time></trkpt><trkpt lat="53.7772395" lon="-1.6724148"><ele>112.0</ele><time>2026-04-01T15:44:34.394Z</time></trkpt><trkpt lat="53.7771826" lon="-1.6725424"><ele>112.0</ele><time>2026-04-01T15:44:36.39Z</time></trkpt><trkpt lat="53.7771091" lon="-1.6726765"><ele>111.66666666666667</ele><time>2026-04-01T15:44:38.391Z</time></trkpt><trkpt lat="53.7770641" lon="-1.6727801"><ele>111.33333333333334</ele><time>2026-04-01T15:44:41.391Z</time></trkpt><trkpt lat="53.7770107" lon="-1.6728673"><ele>111.0</ele><time>2026-04-01T15:44:43.386Z</time></trkpt><trkpt lat="53.7769242" lon="-1.6730071"><ele>110.66666666666666</ele><time>2026-04-01T15:44:45.395Z</time></trkpt><trkpt lat="53.7768498" lon="-1.6731072"><ele>110.33333333333333</ele><time>2026-04-01T15:44:47.391Z</time></trkpt><trkpt lat="53.77678" lon="-1.6731846"><ele>110.0</ele><time>2026-04-01T15:44:49.392Z</time></trkpt><trkpt lat="53.7767255" lon="-1.6732474"><ele>110.4</ele><time>2026-04-01T15:44:51.393Z</time></trkpt><trkpt lat="53.7766654" lon="-1.6733204"><ele>110.8</ele><time>2026-04-01T15:44:53.391Z</time></trkpt><trkpt lat="53.7765834" lon="-1.6734018"><ele>111.19999999999999</ele><time>2026-04-01T15:44:55.392Z</time></trkpt><trkpt lat="53.7765061" lon="-1.6734784"><ele>111.6</ele><time>2026-04-01T15:44:57.391Z</time></trkpt><trkpt lat="53.7764421" lon="-1.6735661"><ele>112.0</ele><time>2026-04-01T15:44:59.392Z</time></trkpt><trkpt lat="53.7763549" lon="-1.6736838"><ele>112.0</ele><time>2026-04-01T15:45:01.395Z</time></trkpt><trkpt lat="53.7762756" lon="-1.6738035"><ele>111.99999999999999</ele><time>2026-04-01T15:45:03.391Z</time></trkpt><trkpt lat="53.776231" lon="-1.6738788"><ele>111.99999999999999</ele><time>2026-04-01T15:45:05.393Z</time></trkpt><trkpt lat="53.7761258" lon="-1.6738746"><ele>112.0</ele><time>2026-04-01T15:45:09.392Z</time></trkpt><trkpt lat="53.7760188" lon="-1.6739443"><ele>112.0</ele><time>2026-04-01T15:45:11.393Z</time></trkpt><trkpt lat="53.7759168" lon="-1.6740554"><ele>113.0</ele><time>2026-04-01T15:45:13.393Z</time></trkpt><trkpt lat="53.7758312" lon="-1.6741833"><ele>113.99999999999999</ele><time>2026-04-01T15:45:15.393Z</time></trkpt><trkpt lat="53.7757782" lon="-1.6743245"><ele>114.99999999999999</ele><time>2026-04-01T15:45:17.391Z</time></trkpt><trkpt lat="53.7757793" lon="-1.6745032"><ele>116.0</ele><time>2026-04-01T15:45:19.393Z</time></trkpt><trkpt lat="53.7758146" lon="-1.6746324"><ele>117.0</ele><time>2026-04-01T15:45:21.391Z</time></trkpt><trkpt lat="53.7757654" lon="-1.6747814"><ele>117.0</ele><time>2026-04-01T15:45:58.39Z</time></trkpt><trkpt lat="53.7757512" lon="-1.6748949"><ele>117.00000000000001</ele><time>2026-04-01T15:45:59.392Z</time></trkpt><trkpt lat="53.77574" lon="-1.6750025"><ele>117.0</ele><time>2026-04-01T15:46:00.389Z</time></trkpt><trkpt lat="53.7757193" lon="-1.6751084"><ele>117.0</ele><time>2026-04-01T15:46:01.389Z</time></trkpt><trkpt lat="53.7756878" lon="-1.6752052"><ele>117.00000000000001</ele><time>2026-04-01T15:46:02.391Z</time></trkpt><trkpt lat="53.7756446" lon="-1.6753004"><ele>117.0</ele><time>2026-04-01T15:46:03.391Z</time></trkpt><trkpt lat="53.7755946" lon="-1.6753849"><ele>117.0</ele><time>2026-04-01T15:46:04.39Z</time></trkpt><trkpt lat="53.775486" lon="-1.6755117"><ele>116.33333333333333</ele><time>2026-04-01T15:46:06.39Z</time></trkpt><trkpt lat="53.7754121" lon="-1.6755537"><ele>115.66666666666666</ele><time>2026-04-01T15:46:07.392Z</time></trkpt><trkpt lat="53.7753361" lon="-1.6755693"><ele>115.0</ele><time>2026-04-01T15:46:08.39Z</time></trkpt><trkpt lat="53.7752712" lon="-1.6755607"><ele>114.33333333333333</ele><time>2026-04-01T15:46:09.394Z</time></trkpt><trkpt lat="53.7751776" lon="-1.6755203"><ele>113.66666666666666</ele><time>2026-04-01T15:46:11.386Z</time></trkpt><trkpt lat="53.7751056" lon="-1.675488"><ele>113.0</ele><time>2026-04-01T15:46:15.392Z</time></trkpt><trkpt lat="53.7750363" lon="-1.6753958"><ele>115.16666666666666</ele><time>2026-04-01T15:46:18.392Z</time></trkpt><trkpt lat="53.7749814" lon="-1.6753436"><ele>117.33333333333333</ele><time>2026-04-01T15:46:20.39Z</time></trkpt><trkpt lat="53.7750199" lon="-1.6754824"><ele>119.5</ele><time>2026-04-01T15:46:24.39Z</time></trkpt><trkpt lat="53.7750687" lon="-1.6756026"><ele>121.66666666666666</ele><time>2026-04-01T15:46:27.393Z</time></trkpt><trkpt lat="53.775094" lon="-1.6757259"><ele>123.83333333333333</ele><time>2026-04-01T15:46:29.391Z</time></trkpt><trkpt lat="53.77512" lon="-1.6758374"><ele>126.0</ele><time>2026-04-01T15:46:31.391Z</time></trkpt><trkpt lat="53.7751655" lon="-1.6759264"><ele>125.83333333333333</ele><time>2026-04-01T15:46:33.393Z</time></trkpt><trkpt lat="53.7752141" lon="-1.6760279"><ele>125.66666666666666</ele><time>2026-04-01T15:46:36.394Z</time></trkpt><trkpt lat="53.7752431" lon="-1.676139"><ele>125.5</ele><time>2026-04-01T15:46:57.39Z</time></trkpt><trkpt lat="53.7752377" lon="-1.6762594"><ele>125.33333333333333</ele><time>2026-04-01T15:47:03.395Z</time></trkpt><trkpt lat="53.7752162" lon="-1.6763756"><ele>125.16666666666666</ele><time>2026-04-01T15:47:09.39Z</time></trkpt><trkpt lat="53.7751812" lon="-1.6764968"><ele>125.0</ele><time>2026-04-01T15:47:12.392Z</time></trkpt><trkpt lat="53.7751499" lon="-1.676627"><ele>124.99999999999999</ele><time>2026-04-01T15:47:15.395Z</time></trkpt><trkpt lat="53.7750847" lon="-1.676693"><ele>125.0</ele><time>2026-04-01T15:47:18.396Z</time></trkpt><trkpt lat="53.7750153" lon="-1.6767342"><ele>125.0</ele><time>2026-04-01T15:47:21.396Z</time></trkpt><trkpt lat="53.7749165" lon="-1.6767716"><ele>125.0</ele><time>2026-04-01T15:47:24.395Z</time></trkpt><trkpt lat="53.7748566" lon="-1.6767272"><ele>124.99999999999999</ele><time>2026-04-01T15:47:26.396Z</time></trkpt><trkpt lat="53.7747885" lon="-1.6766876"><ele>125.0</ele><time>2026-04-01T15:47:40.396Z</time></trkpt><trkpt lat="53.7747151" lon="-1.6767145"><ele>124.99999999999999</ele><time>2026-04-01T15:47:43.397Z</time></trkpt><trkpt lat="53.7746484" lon="-1.6766845"><ele>125.0</ele><time>2026-04-01T15:47:45.396Z</time></trkpt><trkpt lat="53.7745652" lon="-1.6766201"><ele>125.0</ele><time>2026-04-01T15:47:47.394Z</time></trkpt><trkpt lat="53.7744844" lon="-1.6765509"><ele>125.0</ele><time>2026-04-01T15:47:49.396Z</time></trkpt><trkpt lat="53.7743972" lon="-1.6764703"><ele>124.99999999999999</ele><time>2026-04-01T15:47:51.396Z</time></trkpt><trkpt lat="53.7743216" lon="-1.6764191"><ele>125.0</ele><time>2026-04-01T15:47:53.396Z</time></trkpt><trkpt lat="53.7742616" lon="-1.6763211"><ele>124.99999999999999</ele><time>2026-04-01T15:47:56.396Z</time></trkpt><trkpt lat="53.7742843" lon="-1.6762205"><ele>125.0</ele><time>2026-04-01T15:47:59.394Z</time></trkpt><trkpt lat="53.7743472" lon="-1.6762577"><ele>125.0</ele><time>2026-04-01T15:48:02.395Z</time></trkpt><trkpt lat="53.7744322" lon="-1.6762719"><ele>125.0</ele><time>2026-04-01T15:48:05.395Z</time></trkpt><trkpt lat="53.7745031" lon="-1.6763025"><ele>124.99999999999999</ele><time>2026-04-01T15:48:07.397Z</time></trkpt><trkpt lat="53.7745662" lon="-1.6763683"><ele>125.0</ele><time>2026-04-01T15:48:09.394Z</time></trkpt><trkpt lat="53.7746182" lon="-1.6764897"><ele>124.99999999999999</ele><time>2026-04-01T15:48:11.394Z</time></trkpt><trkpt lat="53.7746602" lon="-1.6766135"><ele>125.0</ele><time>2026-04-01T15:48:13.395Z</time></trkpt><trkpt lat="53.774706" lon="-1.6767177"><ele>125.0</ele><time>2026-04-01T15:48:15.396Z</time></trkpt><trkpt lat="53.7747613" lon="-1.6767988"><ele>125.0</ele><time>2026-04-01T15:48:24.398Z</time></trkpt><trkpt lat="53.7748379" lon="-1.6768725"><ele>124.99999999999999</ele><time>2026-04-01T15:48:27.394Z</time></trkpt><trkpt lat="53.7749106" lon="-1.6768859"><ele>125.0</ele><time>2026-04-01T15:48:31.395Z</time></trkpt><trkpt lat="53.7749804" lon="-1.6768281"><ele>125.0</ele><time>2026-04-01T15:48:34.403Z</time></trkpt><trkpt lat="53.7750454" lon="-1.6767764"><ele>125.0</ele><time>2026-04-01T15:48:36.4Z</time></trkpt><trkpt lat="53.7751049" lon="-1.676713"><ele>125.0</ele><time>2026-04-01T15:48:38.395Z</time></trkpt><trkpt lat="53.7751633" lon="-1.6766237"><ele>125.0</ele><time>2026-04-01T15:48:40.397Z</time></trkpt><trkpt lat="53.7751936" lon="-1.6765073"><ele>125.0</ele><time>2026-04-01T15:48:43.393Z</time></trkpt><trkpt lat="53.7752317" lon="-1.676409"><ele>125.0</ele><time>2026-04-01T15:48:46.396Z</time></trkpt><trkpt lat="53.7752838" lon="-1.6763357"><ele>125.0</ele><time>2026-04-01T15:48:48.396Z</time></trkpt><trkpt lat="53.7752912" lon="-1.6762032"><ele>124.99999999999999</ele><time>2026-04-01T15:49:14.396Z</time></trkpt><trkpt lat="53.7752627" lon="-1.6763236"><ele>125.0</ele><time>2026-04-01T15:49:29.397Z</time></trkpt><trkpt lat="53.7752275" lon="-1.676433"><ele>125.0</ele><time>2026-04-01T15:49:32.399Z</time></trkpt><trkpt lat="53.7751888" lon="-1.6765713"><ele>125.0</ele><time>2026-04-01T15:49:35.397Z</time></trkpt><trkpt lat="53.7751022" lon="-1.6766439"><ele>124.99999999999999</ele><time>2026-04-01T15:49:38.398Z</time></trkpt><trkpt lat="53.7750211" lon="-1.6767064"><ele>125.0</ele><time>2026-04-01T15:49:40.398Z</time></trkpt><trkpt lat="53.7749218" lon="-1.6767193"><ele>125.0</ele><time>2026-04-01T15:49:42.393Z</time></trkpt><trkpt lat="53.7748306" lon="-1.6766984"><ele>125.0</ele><time>2026-04-01T15:49:44.397Z</time></trkpt><trkpt lat="53.7747524" lon="-1.6766462"><ele>125.0</ele><time>2026-04-01T15:49:46.395Z</time></trkpt><trkpt lat="53.774814" lon="-1.676696"><ele>125.0</ele><time>2026-04-01T15:49:57.397Z</time></trkpt><trkpt lat="53.7749027" lon="-1.6768439"><ele>125.0</ele><time>2026-04-01T15:50:00.4Z</time></trkpt><trkpt lat="53.7750074" lon="-1.6768845"><ele>125.0</ele><time>2026-04-01T15:50:02.399Z</time></trkpt><trkpt lat="53.7750769" lon="-1.6768285"><ele>125.0</ele><time>2026-04-01T15:50:04.405Z</time></trkpt><trkpt lat="53.7751411" lon="-1.6767793"><ele>125.0</ele><time>2026-04-01T15:50:06.4Z</time></trkpt><trkpt lat="53.7751936" lon="-1.6767126"><ele>125.0</ele><time>2026-04-01T15:50:08.4Z</time></trkpt><trkpt lat="53.7752181" lon="-1.6766115"><ele>125.0</ele><time>2026-04-01T15:50:10.4Z</time></trkpt><trkpt lat="53.7752279" lon="-1.6764782"><ele>125.0</ele><time>2026-04-01T15:50:13.394Z</time></trkpt><trkpt lat="53.7752894" lon="-1.6763855"><ele>125.0</ele><time>2026-04-01T15:50:17.395Z</time></trkpt><trkpt lat="53.7753106" lon="-1.6762829"><ele>125.2</ele><time>2026-04-01T15:50:19.397Z</time></trkpt><trkpt lat="53.7752979" lon="-1.6761737"><ele>125.4</ele><time>2026-04-01T15:50:29.398Z</time></trkpt><trkpt lat="53.7752948" lon="-1.6760609"><ele>125.6</ele><time>2026-04-01T15:53:40.399Z</time></trkpt><trkpt lat="53.7752531" lon="-1.6759493"><ele>125.8</ele><time>2026-04-01T15:53:42.398Z</time></trkpt><trkpt lat="53.7751999" lon="-1.6758093"><ele>126.0</ele><time>2026-04-01T15:53:44.398Z</time></trkpt><trkpt lat="53.7750706" lon="-1.6756293"><ele>126.0</ele><time>2026-04-01T15:53:45.394Z</time></trkpt><trkpt lat="53.7749897" lon="-1.6754731"><ele>126.0</ele><time>2026-04-01T15:53:47.396Z</time></trkpt><trkpt lat="53.7748972" lon="-1.6753436"><ele>126.0</ele><time>2026-04-01T15:53:49.398Z</time></trkpt><trkpt lat="53.7748379" lon="-1.6753048"><ele>126.0</ele><time>2026-04-01T15:53:50.398Z</time></trkpt><trkpt lat="53.7747715" lon="-1.6752927"><ele>126.0</ele><time>2026-04-01T15:53:51.394Z</time></trkpt><trkpt lat="53.7746649" lon="-1.6753129"><ele>126.19999999999999</ele><time>2026-04-01T15:53:53.396Z</time></trkpt><trkpt lat="53.7745896" lon="-1.675258"><ele>126.39999999999999</ele><time>2026-04-01T15:53:57.392Z</time></trkpt><trkpt lat="53.7745037" lon="-1.6751365"><ele>126.6</ele><time>2026-04-01T15:53:59.398Z</time></trkpt><trkpt lat="53.7744521" lon="-1.6750302"><ele>126.8</ele><time>2026-04-01T15:54:00.397Z</time></trkpt><trkpt lat="53.7744028" lon="-1.6749095"><ele>127.0</ele><time>2026-04-01T15:54:01.395Z</time></trkpt><trkpt lat="53.7743047" lon="-1.6748386"><ele>128.2</ele><time>2026-04-01T15:54:03.392Z</time></trkpt><trkpt lat="53.7742041" lon="-1.67497"><ele>129.39999999999998</ele><time>2026-04-01T15:54:05.398Z</time></trkpt><trkpt lat="53.7741658" lon="-1.6750835"><ele>130.60000000000002</ele><time>2026-04-01T15:54:06.397Z</time></trkpt><trkpt lat="53.7741247" lon="-1.6752307"><ele>131.8</ele><time>2026-04-01T15:54:07.399Z</time></trkpt><trkpt lat="53.7740985" lon="-1.6753985"><ele>133.0</ele><time>2026-04-01T15:54:08.397Z</time></trkpt><trkpt lat="53.7740817" lon="-1.675556"><ele>133.0</ele><time>2026-04-01T15:54:09.397Z</time></trkpt><trkpt lat="53.7740843" lon="-1.6756844"><ele>133.0</ele><time>2026-04-01T15:54:10.396Z</time></trkpt><trkpt lat="53.7741023" lon="-1.6758225"><ele>133.0</ele><time>2026-04-01T15:54:12.398Z</time></trkpt><trkpt lat="53.7740352" lon="-1.6759307"><ele>133.0</ele><time>2026-04-01T15:54:16.396Z</time></trkpt><trkpt lat="53.7739414" lon="-1.6759639"><ele>133.0</ele><time>2026-04-01T15:54:18.395Z</time></trkpt><trkpt lat="53.773871" lon="-1.6760497"><ele>133.0</ele><time>2026-04-01T15:54:20.395Z</time></trkpt><trkpt lat="53.7738207" lon="-1.6761986"><ele>133.33333333333334</ele><time>2026-04-01T15:54:22.396Z</time></trkpt><trkpt lat="53.7737668" lon="-1.6763072"><ele>133.66666666666669</ele><time>2026-04-01T15:54:24.396Z</time></trkpt><trkpt lat="53.7736821" lon="-1.6763268"><ele>134.0</ele><time>2026-04-01T15:54:26.395Z</time></trkpt><trkpt lat="53.7736112" lon="-1.6763146"><ele>134.33333333333334</ele><time>2026-04-01T15:54:28.398Z</time></trkpt><trkpt lat="53.7735466" lon="-1.6762593"><ele>134.66666666666666</ele><time>2026-04-01T15:54:30.395Z</time></trkpt><trkpt lat="53.7734696" lon="-1.6762544"><ele>135.0</ele><time>2026-04-01T15:54:33.398Z</time></trkpt><trkpt lat="53.7734524" lon="-1.6763741"><ele>136.6</ele><time>2026-04-01T15:54:44.399Z</time></trkpt><trkpt lat="53.7734366" lon="-1.6765199"><ele>138.2</ele><time>2026-04-01T15:54:46.398Z</time></trkpt><trkpt lat="53.7734258" lon="-1.6766334"><ele>139.8</ele><time>2026-04-01T15:54:47.401Z</time></trkpt><trkpt lat="53.7733947" lon="-1.6768153"><ele>141.4</ele><time>2026-04-01T15:54:49.397Z</time></trkpt><trkpt lat="53.7733583" lon="-1.6769152"><ele>143.0</ele><time>2026-04-01T15:54:51.398Z</time></trkpt><trkpt lat="53.7732283" lon="-1.6770082"><ele>143.0</ele><time>2026-04-01T15:54:53.396Z</time></trkpt><trkpt lat="53.7731484" lon="-1.6770778"><ele>143.0</ele><time>2026-04-01T15:54:54.399Z</time></trkpt><trkpt lat="53.7730556" lon="-1.6771796"><ele>143.0</ele><time>2026-04-01T15:54:55.395Z</time></trkpt><trkpt lat="53.772957" lon="-1.6773082"><ele>143.0</ele><time>2026-04-01T15:54:56.396Z</time></trkpt><trkpt lat="53.7728751" lon="-1.6774383"><ele>143.0</ele><time>2026-04-01T15:54:57.398Z</time></trkpt><trkpt lat="53.7728174" lon="-1.6775427"><ele>143.0</ele><time>2026-04-01T15:54:58.399Z</time></trkpt><trkpt lat="53.7727742" lon="-1.6776245"><ele>143.0</ele><time>2026-04-01T15:54:59.403Z</time></trkpt><trkpt lat="53.7727239" lon="-1.6776954"><ele>143.0</ele><time>2026-04-01T15:55:00.401Z</time></trkpt><trkpt lat="53.7726623" lon="-1.6777763"><ele>143.0</ele><time>2026-04-01T15:55:01.398Z</time></trkpt><trkpt lat="53.7725942" lon="-1.6778672"><ele>143.0</ele><time>2026-04-01T15:55:02.396Z</time></trkpt><trkpt lat="53.7725206" lon="-1.6779685"><ele>143.0</ele><time>2026-04-01T15:55:03.394Z</time></trkpt><trkpt lat="53.7724419" lon="-1.678085"><ele>143.6</ele><time>2026-04-01T15:55:04.397Z</time></trkpt><trkpt lat="53.7723689" lon="-1.67822"><ele>144.20000000000002</ele><time>2026-04-01T15:55:05.395Z</time></trkpt><trkpt lat="53.7723074" lon="-1.678367"><ele>144.8</ele><time>2026-04-01T15:55:06.398Z</time></trkpt><trkpt lat="53.7722542" lon="-1.6785296"><ele>145.4</ele><time>2026-04-01T15:55:07.397Z</time></trkpt><trkpt lat="53.7722064" lon="-1.6786943"><ele>146.0</ele><time>2026-04-01T15:55:08.398Z</time></trkpt><trkpt lat="53.7721615" lon="-1.6788528"><ele>146.0</ele><time>2026-04-01T15:55:09.396Z</time></trkpt><trkpt lat="53.7721257" lon="-1.678989"><ele>146.0</ele><time>2026-04-01T15:55:10.395Z</time></trkpt><trkpt lat="53.7720916" lon="-1.6790984"><ele>146.0</ele><time>2026-04-01T15:55:11.396Z</time></trkpt><trkpt lat="53.7720599" lon="-1.6791962"><ele>146.0</ele><time>2026-04-01T15:55:12.395Z</time></trkpt><trkpt lat="53.7719972" lon="-1.6793691"><ele>146.0</ele><time>2026-04-01T15:55:14.398Z</time></trkpt><trkpt lat="53.7719266" lon="-1.6795671"><ele>145.33333333333331</ele><time>2026-04-01T15:55:16.396Z</time></trkpt><trkpt lat="53.7718884" lon="-1.679672"><ele>144.66666666666666</ele><time>2026-04-01T15:55:17.395Z</time></trkpt><trkpt lat="53.7718196" lon="-1.6797492"><ele>144.0</ele><time>2026-04-01T15:55:19.393Z</time></trkpt><trkpt lat="53.771728" lon="-1.6796674"><ele>143.33333333333334</ele><time>2026-04-01T15:55:21.399Z</time></trkpt><trkpt lat="53.7716682" lon="-1.6796199"><ele>142.66666666666669</ele><time>2026-04-01T15:55:22.395Z</time></trkpt><trkpt lat="53.7716044" lon="-1.6795798"><ele>142.0</ele><time>2026-04-01T15:55:23.396Z</time></trkpt><trkpt lat="53.7715352" lon="-1.6795314"><ele>143.79999999999998</ele><time>2026-04-01T15:55:24.397Z</time></trkpt><trkpt lat="53.7714748" lon="-1.6794895"><ele>145.6</ele><time>2026-04-01T15:55:25.398Z</time></trkpt><trkpt lat="53.7714204" lon="-1.6793855"><ele>147.39999999999998</ele><time>2026-04-01T15:55:27.398Z</time></trkpt><trkpt lat="53.7714594" lon="-1.6791629"><ele>149.2</ele><time>2026-04-01T15:55:29.396Z</time></trkpt><trkpt lat="53.7714879" lon="-1.6790188"><ele>151.0</ele><time>2026-04-01T15:55:30.399Z</time></trkpt><trkpt lat="53.7715099" lon="-1.6788793"><ele>151.42857142857144</ele><time>2026-04-01T15:55:31.398Z</time></trkpt><trkpt lat="53.7715225" lon="-1.6787499"><ele>151.85714285714286</ele><time>2026-04-01T15:55:32.396Z</time></trkpt><trkpt lat="53.7715297" lon="-1.6786319"><ele>152.28571428571428</ele><time>2026-04-01T15:55:33.396Z</time></trkpt><trkpt lat="53.7715311" lon="-1.6785137"><ele>152.71428571428572</ele><time>2026-04-01T15:55:34.401Z</time></trkpt><trkpt lat="53.7715293" lon="-1.6783825"><ele>153.14285714285714</ele><time>2026-04-01T15:55:35.399Z</time></trkpt><trkpt lat="53.7715306" lon="-1.6782499"><ele>153.57142857142858</ele><time>2026-04-01T15:55:36.4Z</time></trkpt><trkpt lat="53.7715361" lon="-1.6781369"><ele>154.0</ele><time>2026-04-01T15:55:37.398Z</time></trkpt><trkpt lat="53.7715728" lon="-1.6779411"><ele>154.16666666666669</ele><time>2026-04-01T15:55:39.399Z</time></trkpt><trkpt lat="53.7716242" lon="-1.6777897"><ele>154.33333333333334</ele><time>2026-04-01T15:55:41.4Z</time></trkpt><trkpt lat="53.7716808" lon="-1.6776436"><ele>154.5</ele><time>2026-04-01T15:55:43.396Z</time></trkpt><trkpt lat="53.7717046" lon="-1.677522"><ele>154.66666666666666</ele><time>2026-04-01T15:55:45.397Z</time></trkpt><trkpt lat="53.7717296" lon="-1.6774218"><ele>154.83333333333331</ele><time>2026-04-01T16:15:39.405Z</time></trkpt><trkpt lat="53.7717642" lon="-1.6773233"><ele>155.0</ele><time>2026-04-01T16:15:41.403Z</time></trkpt><trkpt lat="53.7718097" lon="-1.6772137"><ele>154.5</ele><time>2026-04-01T16:15:43.403Z</time></trkpt><trkpt lat="53.7718432" lon="-1.6771054"><ele>154.0</ele><time>2026-04-01T16:15:46.405Z</time></trkpt><trkpt lat="53.7718844" lon="-1.6769856"><ele>153.5</ele><time>2026-04-01T16:15:49.404Z</time></trkpt><trkpt lat="53.7719292" lon="-1.6768766"><ele>153.0</ele><time>2026-04-01T16:15:51.397Z</time></trkpt><trkpt lat="53.7719932" lon="-1.6767464"><ele>152.5</ele><time>2026-04-01T16:15:53.407Z</time></trkpt><trkpt lat="53.7720355" lon="-1.6766595"><ele>152.0</ele><time>2026-04-01T16:15:55.404Z</time></trkpt><trkpt lat="53.7720973" lon="-1.6765442"><ele>151.33333333333331</ele><time>2026-04-01T16:15:57.403Z</time></trkpt><trkpt lat="53.7721528" lon="-1.6764656"><ele>150.66666666666666</ele><time>2026-04-01T16:16:00.403Z</time></trkpt><trkpt lat="53.7722204" lon="-1.6763805"><ele>150.0</ele><time>2026-04-01T16:16:03.405Z</time></trkpt><trkpt lat="53.7723146" lon="-1.6762119"><ele>149.33333333333334</ele><time>2026-04-01T16:16:05.404Z</time></trkpt><trkpt lat="53.7723695" lon="-1.6761259"><ele>148.66666666666669</ele><time>2026-04-01T16:16:06.4Z</time></trkpt><trkpt lat="53.7724356" lon="-1.6760505"><ele>148.0</ele><time>2026-04-01T16:16:07.405Z</time></trkpt><trkpt lat="53.7724934" lon="-1.6759712"><ele>147.66666666666669</ele><time>2026-04-01T16:16:08.404Z</time></trkpt><trkpt lat="53.7725559" lon="-1.675879"><ele>147.33333333333334</ele><time>2026-04-01T16:16:09.404Z</time></trkpt><trkpt lat="53.7726171" lon="-1.6757717"><ele>147.0</ele><time>2026-04-01T16:16:10.404Z</time></trkpt><trkpt lat="53.7726705" lon="-1.6756625"><ele>146.66666666666666</ele><time>2026-04-01T16:16:11.4Z</time></trkpt><trkpt lat="53.772722" lon="-1.6755629"><ele>146.33333333333331</ele><time>2026-04-01T16:16:12.404Z</time></trkpt><trkpt lat="53.7727813" lon="-1.6754811"><ele>146.0</ele><time>2026-04-01T16:16:13.402Z</time></trkpt><trkpt lat="53.7728357" lon="-1.675422"><ele>145.83333333333331</ele><time>2026-04-01T16:16:14.406Z</time></trkpt><trkpt lat="53.7728977" lon="-1.6753649"><ele>145.66666666666666</ele><time>2026-04-01T16:16:16.404Z</time></trkpt><trkpt lat="53.7729763" lon="-1.6753979"><ele>145.5</ele><time>2026-04-01T16:16:20.404Z</time></trkpt><trkpt lat="53.773045" lon="-1.675402"><ele>145.33333333333334</ele><time>2026-04-01T16:16:26.403Z</time></trkpt><trkpt lat="53.7730753" lon="-1.6752949"><ele>145.16666666666669</ele><time>2026-04-01T16:16:34.406Z</time></trkpt><trkpt lat="53.7731238" lon="-1.6751513"><ele>145.0</ele><time>2026-04-01T16:16:36.404Z</time></trkpt><trkpt lat="53.7731766" lon="-1.6750658"><ele>144.4</ele><time>2026-04-01T16:16:38.405Z</time></trkpt><trkpt lat="53.7732447" lon="-1.6750189"><ele>143.8</ele><time>2026-04-01T16:16:40.404Z</time></trkpt><trkpt lat="53.7733546" lon="-1.6749892"><ele>143.2</ele><time>2026-04-01T16:16:42.406Z</time></trkpt><trkpt lat="53.7734743" lon="-1.6749497"><ele>142.6</ele><time>2026-04-01T16:16:44.408Z</time></trkpt><trkpt lat="53.7735696" lon="-1.6748672"><ele>142.0</ele><time>2026-04-01T16:16:46.406Z</time></trkpt><trkpt lat="53.7736151" lon="-1.67475"><ele>141.16666666666669</ele><time>2026-04-01T16:16:48.406Z</time></trkpt><trkpt lat="53.7736382" lon="-1.6746037"><ele>140.33333333333334</ele><time>2026-04-01T16:16:50.402Z</time></trkpt><trkpt lat="53.7736648" lon="-1.6744004"><ele>139.5</ele><time>2026-04-01T16:16:52.405Z</time></trkpt><trkpt lat="53.7736796" lon="-1.6742698"><ele>138.66666666666666</ele><time>2026-04-01T16:16:53.402Z</time></trkpt><trkpt lat="53.7736855" lon="-1.6741328"><ele>137.83333333333331</ele><time>2026-04-01T16:16:54.405Z</time></trkpt><trkpt lat="53.7736785" lon="-1.6740038"><ele>137.0</ele><time>2026-04-01T16:16:55.404Z</time></trkpt><trkpt lat="53.7736673" lon="-1.6738916"><ele>137.0</ele><time>2026-04-01T16:16:56.403Z</time></trkpt><trkpt lat="53.7736631" lon="-1.6737094"><ele>137.0</ele><time>2026-04-01T16:16:58.402Z</time></trkpt><trkpt lat="53.7736455" lon="-1.6735633"><ele>137.0</ele><time>2026-04-01T16:17:00.401Z</time></trkpt><trkpt lat="53.7735922" lon="-1.6734425"><ele>137.0</ele><time>2026-04-01T16:17:02.401Z</time></trkpt><trkpt lat="53.7735872" lon="-1.6732919"><ele>137.0</ele><time>2026-04-01T16:17:05.402Z</time></trkpt><trkpt lat="53.7736281" lon="-1.6732104"><ele>137.0</ele><time>2026-04-01T16:17:07.404Z</time></trkpt><trkpt lat="53.7736807" lon="-1.6731389"><ele>137.5</ele><time>2026-04-01T16:17:10.406Z</time></trkpt><trkpt lat="53.7737202" lon="-1.6730332"><ele>138.0</ele><time>2026-04-01T16:17:13.403Z</time></trkpt><trkpt lat="53.773734" lon="-1.6729183"><ele>138.5</ele><time>2026-04-01T16:17:17.399Z</time></trkpt><trkpt lat="53.7737551" lon="-1.6728093"><ele>139.0</ele><time>2026-04-01T16:17:19.402Z</time></trkpt><trkpt lat="53.7737743" lon="-1.6726804"><ele>139.5</ele><time>2026-04-01T16:17:21.403Z</time></trkpt><trkpt lat="53.773779" lon="-1.6725039"><ele>140.0</ele><time>2026-04-01T16:17:23.402Z</time></trkpt><trkpt lat="53.7737909" lon="-1.6723056"><ele>140.8</ele><time>2026-04-01T16:17:25.404Z</time></trkpt><trkpt lat="53.7738207" lon="-1.6721954"><ele>141.6</ele><time>2026-04-01T16:17:27.401Z</time></trkpt><trkpt lat="53.7738338" lon="-1.6720892"><ele>142.4</ele><time>2026-04-01T16:17:29.403Z</time></trkpt><trkpt lat="53.773874" lon="-1.671939"><ele>143.2</ele><time>2026-04-01T16:17:31.403Z</time></trkpt><trkpt lat="53.7739725" lon="-1.6717995"><ele>144.0</ele><time>2026-04-01T16:17:33.403Z</time></trkpt><trkpt lat="53.7740711" lon="-1.6717408"><ele>144.16666666666666</ele><time>2026-04-01T16:17:35.401Z</time></trkpt><trkpt lat="53.7741481" lon="-1.6717696"><ele>144.33333333333334</ele><time>2026-04-01T16:17:37.409Z</time></trkpt><trkpt lat="53.7742193" lon="-1.6718584"><ele>144.5</ele><time>2026-04-01T16:17:39.399Z</time></trkpt><trkpt lat="53.774306" lon="-1.6719183"><ele>144.66666666666669</ele><time>2026-04-01T16:17:41.402Z</time></trkpt><trkpt lat="53.7743995" lon="-1.6719631"><ele>144.83333333333334</ele><time>2026-04-01T16:17:43.403Z</time></trkpt><trkpt lat="53.7744506" lon="-1.672073"><ele>145.0</ele><time>2026-04-01T16:17:46.405Z</time></trkpt><trkpt lat="53.7744829" lon="-1.672214"><ele>143.83333333333334</ele><time>2026-04-01T16:17:49.402Z</time></trkpt><trkpt lat="53.7745076" lon="-1.672343"><ele>142.66666666666669</ele><time>2026-04-01T16:17:52.403Z</time></trkpt><trkpt lat="53.7745413" lon="-1.6724714"><ele>141.5</ele><time>2026-04-01T16:17:55.401Z</time></trkpt><trkpt lat="53.7746017" lon="-1.6725903"><ele>140.33333333333334</ele><time>2026-04-01T16:18:28.402Z</time></trkpt><trkpt lat="53.7746604" lon="-1.6726726"><ele>139.16666666666666</ele><time>2026-04-01T16:18:31.402Z</time></trkpt><trkpt lat="53.7746591" lon="-1.672811"><ele>138.0</ele><time>2026-04-01T16:18:35.401Z</time></trkpt><trkpt lat="53.7746591" lon="-1.6729518"><ele>137.6</ele><time>2026-04-01T16:18:37.402Z</time></trkpt><trkpt lat="53.7746677" lon="-1.6730999"><ele>137.20000000000002</ele><time>2026-04-01T16:18:39.403Z</time></trkpt><trkpt lat="53.7746877" lon="-1.6732044"><ele>136.8</ele><time>2026-04-01T16:18:41.401Z</time></trkpt><trkpt lat="53.7747319" lon="-1.6733426"><ele>136.4</ele><time>2026-04-01T16:18:44.403Z</time></trkpt><trkpt lat="53.7747566" lon="-1.6735389"><ele>136.0</ele><time>2026-04-01T16:18:46.402Z</time></trkpt><trkpt lat="53.7748285" lon="-1.6737144"><ele>135.33333333333334</ele><time>2026-04-01T16:18:48.402Z</time></trkpt><trkpt lat="53.7748551" lon="-1.6738267"><ele>134.66666666666669</ele><time>2026-04-01T16:18:50.402Z</time></trkpt><trkpt lat="53.77489" lon="-1.6739456"><ele>134.0</ele><time>2026-04-01T16:18:52.399Z</time></trkpt><trkpt lat="53.7749078" lon="-1.6740551"><ele>133.33333333333334</ele><time>2026-04-01T16:18:54.404Z</time></trkpt><trkpt lat="53.7749142" lon="-1.6741764"><ele>132.66666666666666</ele><time>2026-04-01T16:18:57.373Z</time></trkpt><trkpt lat="53.7749485" lon="-1.6742933"><ele>132.0</ele><time>2026-04-01T16:18:59.233Z</time></trkpt><trkpt lat="53.7749945" lon="-1.6744155"><ele>131.16666666666666</ele><time>2026-04-01T16:19:01.414Z</time></trkpt><trkpt lat="53.7750293" lon="-1.6745567"><ele>130.33333333333334</ele><time>2026-04-01T16:19:03.415Z</time></trkpt><trkpt lat="53.7750925" lon="-1.6746522"><ele>129.5</ele><time>2026-04-01T16:19:05.415Z</time></trkpt><trkpt lat="53.7751669" lon="-1.6746334"><ele>128.66666666666669</ele><time>2026-04-01T16:19:07.402Z</time></trkpt><trkpt lat="53.775249" lon="-1.6745963"><ele>127.83333333333334</ele><time>2026-04-01T16:19:09.415Z</time></trkpt><trkpt lat="53.7753429" lon="-1.6745233"><ele>127.0</ele><time>2026-04-01T16:19:11.403Z</time></trkpt><trkpt lat="53.7754021" lon="-1.6744658"><ele>126.0</ele><time>2026-04-01T16:19:14.401Z</time></trkpt><trkpt lat="53.7754806" lon="-1.6745141"><ele>124.99999999999999</ele><time>2026-04-01T16:19:16.404Z</time></trkpt><trkpt lat="53.775562" lon="-1.6745667"><ele>123.99999999999999</ele><time>2026-04-01T16:19:18.397Z</time></trkpt><trkpt lat="53.7756663" lon="-1.6745073"><ele>123.0</ele><time>2026-04-01T16:19:20.386Z</time></trkpt><trkpt lat="53.7757431" lon="-1.6744016"><ele>122.0</ele><time>2026-04-01T16:19:22.395Z</time></trkpt><trkpt lat="53.7758231" lon="-1.6743891"><ele>121.16666666666666</ele><time>2026-04-01T16:19:24.401Z</time></trkpt><trkpt lat="53.7758678" lon="-1.6744899"><ele>120.33333333333333</ele><time>2026-04-01T16:19:26.399Z</time></trkpt><trkpt lat="53.7758984" lon="-1.6745919"><ele>119.5</ele><time>2026-04-01T16:19:29.406Z</time></trkpt><trkpt lat="53.7759298" lon="-1.6746983"><ele>118.66666666666666</ele><time>2026-04-01T16:19:32.402Z</time></trkpt><trkpt lat="53.7759695" lon="-1.6748295"><ele>117.83333333333333</ele><time>2026-04-01T16:19:35.4Z</time></trkpt><trkpt lat="53.7760273" lon="-1.6749654"><ele>117.0</ele><time>2026-04-01T16:19:38.403Z</time></trkpt><trkpt lat="53.7760888" lon="-1.6750266"><ele>116.0</ele><time>2026-04-01T16:19:41.402Z</time></trkpt><trkpt lat="53.776149" lon="-1.6749427"><ele>115.00000000000001</ele><time>2026-04-01T16:19:45.4Z</time></trkpt><trkpt lat="53.7762038" lon="-1.6748278"><ele>114.0</ele><time>2026-04-01T16:19:47.399Z</time></trkpt><trkpt lat="53.7762647" lon="-1.6748555"><ele>113.0</ele><time>2026-04-01T16:19:52.405Z</time></trkpt><trkpt lat="53.7762814" lon="-1.6749952"><ele>112.0</ele><time>2026-04-01T16:19:58.403Z</time></trkpt><trkpt lat="53.776271" lon="-1.6751052"><ele>111.0</ele><time>2026-04-01T16:20:03.402Z</time></trkpt><trkpt lat="53.7762537" lon="-1.6752166"><ele>110.0</ele><time>2026-04-01T16:20:06.405Z</time></trkpt><trkpt lat="53.7762962" lon="-1.6753436"><ele>109.83333333333333</ele><time>2026-04-01T16:20:09.403Z</time></trkpt><trkpt lat="53.7763921" lon="-1.6753553"><ele>109.66666666666666</ele><time>2026-04-01T16:20:12.4Z</time></trkpt><trkpt lat="53.7764692" lon="-1.6754272"><ele>109.5</ele><time>2026-04-01T16:20:15.403Z</time></trkpt><trkpt lat="53.7764938" lon="-1.6755458"><ele>109.33333333333334</ele><time>2026-04-01T16:20:18.402Z</time></trkpt><trkpt lat="53.7765597" lon="-1.6755748"><ele>109.16666666666667</ele><time>2026-04-01T16:20:21.402Z</time></trkpt><trkpt lat="53.7766354" lon="-1.6755162"><ele>109.0</ele><time>2026-04-01T16:20:23.403Z</time></trkpt><trkpt lat="53.7767091" lon="-1.6754178"><ele>109.0</ele><time>2026-04-01T16:20:25.402Z</time></trkpt><trkpt lat="53.7767547" lon="-1.6753369"><ele>109.0</ele><time>2026-04-01T16:20:28.402Z</time></trkpt><trkpt lat="53.7767822" lon="-1.6752235"><ele>109.0</ele><time>2026-04-01T16:20:31.402Z</time></trkpt><trkpt lat="53.7768034" lon="-1.6750987"><ele>109.0</ele><time>2026-04-01T16:20:33.402Z</time></trkpt><trkpt lat="53.7768165" lon="-1.6749796"><ele>109.0</ele><time>2026-04-01T16:20:35.403Z</time></trkpt><trkpt lat="53.7768525" lon="-1.6748698"><ele>109.0</ele><time>2026-04-01T16:20:47.404Z</time></trkpt><trkpt lat="53.7768939" lon="-1.6747454"><ele>109.0</ele><time>2026-04-01T16:20:49.402Z</time></trkpt><trkpt lat="53.7769497" lon="-1.6746532"><ele>108.2</ele><time>2026-04-01T16:20:53.404Z</time></trkpt><trkpt lat="53.7770053" lon="-1.674589"><ele>107.4</ele><time>2026-04-01T16:21:01.401Z</time></trkpt><trkpt lat="53.7770702" lon="-1.6745165"><ele>106.6</ele><time>2026-04-01T16:21:06.404Z</time></trkpt><trkpt lat="53.7771538" lon="-1.6746167"><ele>105.8</ele><time>2026-04-01T16:21:09.404Z</time></trkpt><trkpt lat="53.777244" lon="-1.6747164"><ele>105.0</ele><time>2026-04-01T16:21:11.403Z</time></trkpt><trkpt lat="53.7773445" lon="-1.6748327"><ele>105.0</ele><time>2026-04-01T16:21:13.403Z</time></trkpt><trkpt lat="53.7774052" lon="-1.6749694"><ele>105.0</ele><time>2026-04-01T16:21:15.401Z</time></trkpt><trkpt lat="53.7773808" lon="-1.6751219"><ele>105.0</ele><time>2026-04-01T16:21:17.401Z</time></trkpt><trkpt lat="53.7773004" lon="-1.6752676"><ele>105.0</ele><time>2026-04-01T16:21:19.4Z</time></trkpt><trkpt lat="53.7772056" lon="-1.6753473"><ele>105.0</ele><time>2026-04-01T16:21:21.393Z</time></trkpt><trkpt lat="53.7770779" lon="-1.6753913"><ele>105.33333333333333</ele><time>2026-04-01T16:21:23.396Z</time></trkpt><trkpt lat="53.7770146" lon="-1.6754185"><ele>105.66666666666666</ele><time>2026-04-01T16:21:24.4Z</time></trkpt><trkpt lat="53.7769165" lon="-1.6753894"><ele>106.0</ele><time>2026-04-01T16:21:26.399Z</time></trkpt><trkpt lat="53.7768226" lon="-1.675332"><ele>106.33333333333333</ele><time>2026-04-01T16:21:28.4Z</time></trkpt><trkpt lat="53.7767291" lon="-1.675399"><ele>106.66666666666666</ele><time>2026-04-01T16:21:30.401Z</time></trkpt><trkpt lat="53.7766685" lon="-1.6754618"><ele>107.0</ele><time>2026-04-01T16:21:31.402Z</time></trkpt><trkpt lat="53.7765998" lon="-1.6755204"><ele>107.33333333333333</ele><time>2026-04-01T16:21:32.403Z</time></trkpt><trkpt lat="53.7765352" lon="-1.6755561"><ele>107.66666666666666</ele><time>2026-04-01T16:21:33.401Z</time></trkpt><trkpt lat="53.7764702" lon="-1.675582"><ele>108.0</ele><time>2026-04-01T16:21:34.399Z</time></trkpt><trkpt lat="53.7763646" lon="-1.6756258"><ele>108.33333333333334</ele><time>2026-04-01T16:21:36.4Z</time></trkpt><trkpt lat="53.7763093" lon="-1.6756994"><ele>108.66666666666667</ele><time>2026-04-01T16:21:38.4Z</time></trkpt><trkpt lat="53.7762735" lon="-1.6758614"><ele>109.0</ele><time>2026-04-01T16:21:41.402Z</time></trkpt><trkpt lat="53.7762061" lon="-1.6759651"><ele>109.00000000000001</ele><time>2026-04-01T16:21:43.401Z</time></trkpt><trkpt lat="53.7761344" lon="-1.6760542"><ele>109.0</ele><time>2026-04-01T16:21:45.401Z</time></trkpt><trkpt lat="53.7760843" lon="-1.676137"><ele>109.0</ele><time>2026-04-01T16:21:47.401Z</time></trkpt><trkpt lat="53.7760282" lon="-1.6762262"><ele>109.0</ele><time>2026-04-01T16:21:49.4Z</time></trkpt><trkpt lat="53.7759341" lon="-1.6762949"><ele>109.00000000000001</ele><time>2026-04-01T16:21:51.402Z</time></trkpt><trkpt lat="53.7758686" lon="-1.6763001"><ele>109.0</ele><time>2026-04-01T16:21:52.403Z</time></trkpt><trkpt lat="53.7757656" lon="-1.6763634"><ele>109.33333333333334</ele><time>2026-04-01T16:21:54.402Z</time></trkpt><trkpt lat="53.775683" lon="-1.6764423"><ele>109.66666666666667</ele><time>2026-04-01T16:21:56.4Z</time></trkpt><trkpt lat="53.77562" lon="-1.6765055"><ele>110.0</ele><time>2026-04-01T16:21:58.402Z</time></trkpt><trkpt lat="53.7755438" lon="-1.6765524"><ele>110.33333333333334</ele><time>2026-04-01T16:22:01.4Z</time></trkpt><trkpt lat="53.7754882" lon="-1.6764263"><ele>110.66666666666667</ele><time>2026-04-01T16:22:03.402Z</time></trkpt><trkpt lat="53.7754708" lon="-1.6763207"><ele>111.0</ele><time>2026-04-01T16:22:04.403Z</time></trkpt><trkpt lat="53.7754426" lon="-1.6762147"><ele>111.0</ele><time>2026-04-01T16:22:05.4Z</time></trkpt><trkpt lat="53.7754012" lon="-1.6761157"><ele>111.0</ele><time>2026-04-01T16:22:06.401Z</time></trkpt><trkpt lat="53.7753567" lon="-1.6760211"><ele>111.0</ele><time>2026-04-01T16:22:07.402Z</time></trkpt><trkpt lat="53.7753089" lon="-1.6759349"><ele>111.0</ele><time>2026-04-01T16:22:08.403Z</time></trkpt><trkpt lat="53.7752609" lon="-1.6758584"><ele>111.0</ele><time>2026-04-01T16:22:09.401Z</time></trkpt><trkpt lat="53.7751807" lon="-1.6757242"><ele>111.0</ele><time>2026-04-01T16:22:11.402Z</time></trkpt><trkpt lat="53.7751294" lon="-1.6755538"><ele>114.0</ele><time>2026-04-01T16:22:13.402Z</time></trkpt><trkpt lat="53.7750714" lon="-1.6754118"><ele>117.0</ele><time>2026-04-01T16:22:15.401Z</time></trkpt><trkpt lat="53.7749575" lon="-1.6753067"><ele>120.0</ele><time>2026-04-01T16:22:17.401Z</time></trkpt><trkpt lat="53.7748956" lon="-1.675273"><ele>123.0</ele><time>2026-04-01T16:22:18.402Z</time></trkpt><trkpt lat="53.7747948" lon="-1.6752685"><ele>126.0</ele><time>2026-04-01T16:22:20.4Z</time></trkpt><trkpt lat="53.7747224" lon="-1.6753152"><ele>126.0</ele><time>2026-04-01T16:22:22.4Z</time></trkpt><trkpt lat="53.7746445" lon="-1.6753178"><ele>126.0</ele><time>2026-04-01T16:22:24.401Z</time></trkpt><trkpt lat="53.774586" lon="-1.6752476"><ele>126.0</ele><time>2026-04-01T16:22:26.401Z</time></trkpt><trkpt lat="53.774563" lon="-1.6751428"><ele>126.0</ele><time>2026-04-01T16:22:28.401Z</time></trkpt><trkpt lat="53.7745473" lon="-1.6749923"><ele>126.0</ele><time>2026-04-01T16:22:30.401Z</time></trkpt><trkpt lat="53.7745285" lon="-1.674808"><ele>126.0</ele><time>2026-04-01T16:22:32.403Z</time></trkpt><trkpt lat="53.7745426" lon="-1.6746861"><ele>126.16666666666667</ele><time>2026-04-01T16:22:34.401Z</time></trkpt><trkpt lat="53.7745804" lon="-1.6745914"><ele>126.33333333333334</ele><time>2026-04-01T16:22:37.398Z</time></trkpt><trkpt lat="53.7745591" lon="-1.6744709"><ele>126.5</ele><time>2026-04-01T16:22:44.401Z</time></trkpt><trkpt lat="53.7745456" lon="-1.6743262"><ele>126.66666666666667</ele><time>2026-04-01T16:22:46.398Z</time></trkpt><trkpt lat="53.7745462" lon="-1.6741876"><ele>126.83333333333334</ele><time>2026-04-01T16:22:48.399Z</time></trkpt><trkpt lat="53.7745363" lon="-1.6740451"><ele>127.0</ele><time>2026-04-01T16:22:50.4Z</time></trkpt><trkpt lat="53.7745172" lon="-1.6739016"><ele>127.83333333333334</ele><time>2026-04-01T16:22:52.4Z</time></trkpt><trkpt lat="53.7744365" lon="-1.6738258"><ele>128.66666666666669</ele><time>2026-04-01T16:22:54.401Z</time></trkpt><trkpt lat="53.7743638" lon="-1.6738926"><ele>129.5</ele><time>2026-04-01T16:22:56.398Z</time></trkpt><trkpt lat="53.7744175" lon="-1.6740012"><ele>130.33333333333334</ele><time>2026-04-01T16:23:00.4Z</time></trkpt><trkpt lat="53.7744905" lon="-1.6740372"><ele>131.16666666666666</ele><time>2026-04-01T16:23:03.404Z</time></trkpt><trkpt lat="53.7745579" lon="-1.6740992"><ele>132.0</ele><time>2026-04-01T16:23:06.401Z</time></trkpt><trkpt lat="53.7745728" lon="-1.6742585"><ele>132.0</ele><time>2026-04-01T16:23:09.4Z</time></trkpt><trkpt lat="53.7745762" lon="-1.6743688"><ele>132.0</ele><time>2026-04-01T16:23:11.4Z</time></trkpt><trkpt lat="53.7746562" lon="-1.6744688"><ele>132.0</ele><time>2026-04-01T16:23:13.402Z</time></trkpt><trkpt lat="53.7747277" lon="-1.6744822"><ele>132.0</ele><time>2026-04-01T16:23:15.403Z</time></trkpt><trkpt lat="53.7747949" lon="-1.6744812"><ele>132.0</ele><time>2026-04-01T16:23:17.401Z</time></trkpt><trkpt lat="53.7748793" lon="-1.674412"><ele>132.0</ele><time>2026-04-01T16:23:20.401Z</time></trkpt><trkpt lat="53.7749445" lon="-1.6743524"><ele>132.0</ele><time>2026-04-01T16:23:22.4Z</time></trkpt><trkpt lat="53.7750127" lon="-1.6743252"><ele>132.0</ele><time>2026-04-01T16:23:24.397Z</time></trkpt><trkpt lat="53.7750895" lon="-1.6742664"><ele>132.0</ele><time>2026-04-01T16:23:27.402Z</time></trkpt><trkpt lat="53.7751691" lon="-1.6742132"><ele>132.0</ele><time>2026-04-01T16:23:30.402Z</time></trkpt><trkpt lat="53.7752341" lon="-1.674214"><ele>132.0</ele><time>2026-04-01T16:23:31.402Z</time></trkpt><trkpt lat="53.7753059" lon="-1.6742824"><ele>132.0</ele><time>2026-04-01T16:23:33.403Z</time></trkpt><trkpt lat="53.7754087" lon="-1.6743816"><ele>130.0</ele><time>2026-04-01T16:23:35.402Z</time></trkpt><trkpt lat="53.7754838" lon="-1.6744864"><ele>127.99999999999999</ele><time>2026-04-01T16:23:37.4Z</time></trkpt><trkpt lat="53.7755546" lon="-1.6745208"><ele>125.99999999999999</ele><time>2026-04-01T16:23:39.402Z</time></trkpt><trkpt lat="53.7756567" lon="-1.6744576"><ele>124.0</ele><time>2026-04-01T16:23:41.401Z</time></trkpt><trkpt lat="53.7757365" lon="-1.6743584"><ele>122.0</ele><time>2026-04-01T16:23:43.402Z</time></trkpt><trkpt lat="53.7758008" lon="-1.6742758"><ele>121.99999999999999</ele><time>2026-04-01T16:23:45.401Z</time></trkpt><trkpt lat="53.7758693" lon="-1.6741841"><ele>122.0</ele><time>2026-04-01T16:23:47.403Z</time></trkpt><trkpt lat="53.7759409" lon="-1.6740953"><ele>122.0</ele><time>2026-04-01T16:23:49.402Z</time></trkpt><trkpt lat="53.7760171" lon="-1.6740464"><ele>122.0</ele><time>2026-04-01T16:23:51.401Z</time></trkpt><trkpt lat="53.7760873" lon="-1.6740112"><ele>121.99999999999999</ele><time>2026-04-01T16:23:53.4Z</time></trkpt><trkpt lat="53.7761191" lon="-1.6739088"><ele>122.0</ele><time>2026-04-01T16:24:05.4Z</time></trkpt><trkpt lat="53.7761857" lon="-1.6740541"><ele>120.33333333333333</ele><time>2026-04-01T16:24:10.401Z</time></trkpt><trkpt lat="53.77623" lon="-1.6741298"><ele>118.66666666666666</ele><time>2026-04-01T16:24:11.404Z</time></trkpt><trkpt lat="53.7763048" lon="-1.6742524"><ele>117.0</ele><time>2026-04-01T16:24:13.406Z</time></trkpt><trkpt lat="53.776366" lon="-1.6743265"><ele>115.33333333333334</ele><time>2026-04-01T16:24:15.403Z</time></trkpt><trkpt lat="53.7764702" lon="-1.6742893"><ele>113.66666666666667</ele><time>2026-04-01T16:24:17.405Z</time></trkpt><trkpt lat="53.7765174" lon="-1.6741863"><ele>112.0</ele><time>2026-04-01T16:24:19.403Z</time></trkpt><trkpt lat="53.7765518" lon="-1.674069"><ele>112.0</ele><time>2026-04-01T16:24:21.402Z</time></trkpt><trkpt lat="53.7766628" lon="-1.6739544"><ele>112.0</ele><time>2026-04-01T16:24:22.403Z</time></trkpt><trkpt lat="53.7767007" lon="-1.6737786"><ele>112.0</ele><time>2026-04-01T16:24:24.403Z</time></trkpt><trkpt lat="53.7767127" lon="-1.6735824"><ele>112.0</ele><time>2026-04-01T16:24:26.401Z</time></trkpt><trkpt lat="53.7767035" lon="-1.6734066"><ele>112.50000000000001</ele><time>2026-04-01T16:24:28.401Z</time></trkpt><trkpt lat="53.7766582" lon="-1.6732617"><ele>113.0</ele><time>2026-04-01T16:24:30.403Z</time></trkpt><trkpt lat="53.7766026" lon="-1.6731522"><ele>113.5</ele><time>2026-04-01T16:24:32.401Z</time></trkpt><trkpt lat="53.7765451" lon="-1.673212"><ele>114.0</ele><time>2026-04-01T16:24:52.395Z</time></trkpt><trkpt lat="53.7764864" lon="-1.6732889"><ele>114.50000000000001</ele><time>2026-04-01T16:24:56.407Z</time></trkpt><trkpt lat="53.7764321" lon="-1.6733519"><ele>115.0</ele><time>2026-04-01T16:24:59.407Z</time></trkpt><trkpt lat="53.7763999" lon="-1.6734569"><ele>115.0</ele><time>2026-04-01T16:25:02.413Z</time></trkpt><trkpt lat="53.7764598" lon="-1.6735906"><ele>115.0</ele><time>2026-04-01T16:25:05.404Z</time></trkpt><trkpt lat="53.7765452" lon="-1.6734793"><ele>115.0</ele><time>2026-04-01T16:25:09.401Z</time></trkpt><trkpt lat="53.7766184" lon="-1.6733822"><ele>115.0</ele><time>2026-04-01T16:25:11.403Z</time></trkpt><trkpt lat="53.7766842" lon="-1.6733146"><ele>115.0</ele><time>2026-04-01T16:25:13.403Z</time></trkpt><trkpt lat="53.7767662" lon="-1.6732212"><ele>115.00000000000001</ele><time>2026-04-01T16:25:15.406Z</time></trkpt><trkpt lat="53.7768184" lon="-1.6731613"><ele>115.0</ele><time>2026-04-01T16:25:16.397Z</time></trkpt><trkpt lat="53.7768976" lon="-1.6730776"><ele>115.0</ele><time>2026-04-01T16:25:18.403Z</time></trkpt><trkpt lat="53.7769538" lon="-1.6730014"><ele>115.0</ele><time>2026-04-01T16:25:21.404Z</time></trkpt><trkpt lat="53.7770078" lon="-1.6729313"><ele>115.00000000000001</ele><time>2026-04-01T16:25:50.394Z</time></trkpt><trkpt lat="53.7769323" lon="-1.6728515"><ele>115.0</ele><time>2026-04-01T16:26:01.401Z</time></trkpt><trkpt lat="53.7768266" lon="-1.6727988"><ele>115.00000000000001</ele><time>2026-04-01T16:26:03.403Z</time></trkpt><trkpt lat="53.776726" lon="-1.6727371"><ele>115.0</ele><time>2026-04-01T16:26:05.397Z</time></trkpt><trkpt lat="53.7766474" lon="-1.6727804"><ele>115.0</ele><time>2026-04-01T16:26:08.404Z</time></trkpt><trkpt lat="53.7766473" lon="-1.6729024"><ele>115.0</ele><time>2026-04-01T16:26:12.405Z</time></trkpt><trkpt lat="53.7765752" lon="-1.6729893"><ele>115.00000000000001</ele><time>2026-04-01T16:26:23.408Z</time></trkpt><trkpt lat="53.7765898" lon="-1.6731123"><ele>115.0</ele><time>2026-04-01T16:26:27.413Z</time></trkpt><trkpt lat="53.7766196" lon="-1.6732101"><ele>115.00000000000001</ele><time>2026-04-01T16:26:29.41Z</time></trkpt><trkpt lat="53.7766839" lon="-1.6733364"><ele>115.0</ele><time>2026-04-01T16:26:31.404Z</time></trkpt><trkpt lat="53.7767378" lon="-1.6734098"><ele>115.0</ele><time>2026-04-01T16:26:34.398Z</time></trkpt><trkpt lat="53.7768135" lon="-1.6733774"><ele>115.0</ele><time>2026-04-01T16:26:38.4Z</time></trkpt><trkpt lat="53.7768804" lon="-1.6733924"><ele>115.00000000000001</ele><time>2026-04-01T16:26:41.403Z</time></trkpt><trkpt lat="53.7769411" lon="-1.6733504"><ele>115.0</ele><time>2026-04-01T16:26:44.407Z</time></trkpt><trkpt lat="53.7770074" lon="-1.673252"><ele>114.50000000000001</ele><time>2026-04-01T16:26:47.405Z</time></trkpt><trkpt lat="53.7770679" lon="-1.6731724"><ele>114.0</ele><time>2026-04-01T16:26:49.401Z</time></trkpt><trkpt lat="53.777142" lon="-1.6730927"><ele>113.5</ele><time>2026-04-01T16:26:52.405Z</time></trkpt><trkpt lat="53.7772022" lon="-1.6729885"><ele>113.0</ele><time>2026-04-01T16:26:55.403Z</time></trkpt><trkpt lat="53.777243" lon="-1.6729011"><ele>112.50000000000001</ele><time>2026-04-01T16:26:57.407Z</time></trkpt><trkpt lat="53.7773003" lon="-1.6728014"><ele>112.0</ele><time>2026-04-01T16:26:59.404Z</time></trkpt><trkpt lat="53.7773499" lon="-1.6727333"><ele>112.0</ele><time>2026-04-01T16:27:18.404Z</time></trkpt><trkpt lat="53.7773792" lon="-1.6726375"><ele>112.0</ele><time>2026-04-01T16:27:23.401Z</time></trkpt><trkpt lat="53.7773744" lon="-1.6725272"><ele>112.0</ele><time>2026-04-01T16:28:00.395Z</time></trkpt><trkpt lat="53.7773963" lon="-1.6724134"><ele>112.0</ele><time>2026-04-01T16:28:08.404Z</time></trkpt><trkpt lat="53.7774529" lon="-1.6723012"><ele>112.0</ele><time>2026-04-01T16:28:11.4Z</time></trkpt><trkpt lat="53.7774959" lon="-1.6722062"><ele>112.0</ele><time>2026-04-01T16:28:13.402Z</time></trkpt><trkpt lat="53.7775326" lon="-1.6720951"><ele>112.0</ele><time>2026-04-01T16:28:15.401Z</time></trkpt><trkpt lat="53.7775643" lon="-1.6719713"><ele>112.28571428571428</ele><time>2026-04-01T16:28:17.401Z</time></trkpt><trkpt lat="53.7775834" lon="-1.671869"><ele>112.57142857142857</ele><time>2026-04-01T16:28:19.401Z</time></trkpt><trkpt lat="53.7776045" lon="-1.6717654"><ele>112.85714285714286</ele><time>2026-04-01T16:28:25.402Z</time></trkpt><trkpt lat="53.7776662" lon="-1.6717091"><ele>113.14285714285714</ele><time>2026-04-01T16:28:56.402Z</time></trkpt><trkpt lat="53.7776781" lon="-1.6715899"><ele>113.42857142857142</ele><time>2026-04-01T16:29:00.407Z</time></trkpt><trkpt lat="53.7776873" lon="-1.6714674"><ele>113.71428571428571</ele><time>2026-04-01T16:29:15.405Z</time></trkpt><trkpt lat="53.777656" lon="-1.671573"><ele>114.0</ele><time>2026-04-01T16:32:59.407Z</time></trkpt><trkpt lat="53.777621" lon="-1.6716698"><ele>114.0</ele><time>2026-04-01T16:33:03.405Z</time></trkpt><trkpt lat="53.7775531" lon="-1.6717761"><ele>114.0</ele><time>2026-04-01T16:33:06.405Z</time></trkpt><trkpt lat="53.7775054" lon="-1.6718517"><ele>114.0</ele><time>2026-04-01T16:33:08.404Z</time></trkpt><trkpt lat="53.7774112" lon="-1.6718873"><ele>114.0</ele><time>2026-04-01T16:33:11.406Z</time></trkpt><trkpt lat="53.7773513" lon="-1.671923"><ele>114.0</ele><time>2026-04-01T16:33:13.404Z</time></trkpt><trkpt lat="53.7772568" lon="-1.6720136"><ele>114.0</ele><time>2026-04-01T16:33:15.404Z</time></trkpt><trkpt lat="53.7771517" lon="-1.6720927"><ele>113.66666666666667</ele><time>2026-04-01T16:33:17.404Z</time></trkpt><trkpt lat="53.7770656" lon="-1.6721572"><ele>113.33333333333334</ele><time>2026-04-01T16:33:19.4Z</time></trkpt><trkpt lat="53.7769855" lon="-1.6722489"><ele>113.0</ele><time>2026-04-01T16:33:21.402Z</time></trkpt><trkpt lat="53.7768943" lon="-1.6723315"><ele>112.66666666666667</ele><time>2026-04-01T16:33:23.406Z</time></trkpt><trkpt lat="53.7768437" lon="-1.6724066"><ele>112.33333333333334</ele><time>2026-04-01T16:33:24.405Z</time></trkpt><trkpt lat="53.776787" lon="-1.6725016"><ele>112.0</ele><time>2026-04-01T16:33:25.405Z</time></trkpt><trkpt lat="53.7767209" lon="-1.6726151"><ele>112.50000000000001</ele><time>2026-04-01T16:33:26.401Z</time></trkpt><trkpt lat="53.77666" lon="-1.6727334"><ele>113.0</ele><time>2026-04-01T16:33:27.399Z</time></trkpt><trkpt lat="53.7766156" lon="-1.6728269"><ele>113.5</ele><time>2026-04-01T16:33:28.407Z</time></trkpt><trkpt lat="53.7765711" lon="-1.6729449"><ele>114.0</ele><time>2026-04-01T16:33:30.405Z</time></trkpt><trkpt lat="53.7765007" lon="-1.6730545"><ele>114.50000000000001</ele><time>2026-04-01T16:33:34.407Z</time></trkpt><trkpt lat="53.7764263" lon="-1.673152"><ele>115.0</ele><time>2026-04-01T16:33:36.405Z</time></trkpt><trkpt lat="53.7763363" lon="-1.6732334"><ele>115.00000000000001</ele><time>2026-04-01T16:33:38.406Z</time></trkpt><trkpt lat="53.7762464" lon="-1.6732946"><ele>115.0</ele><time>2026-04-01T16:33:40.405Z</time></trkpt><trkpt lat="53.7762088" lon="-1.6733972"><ele>115.0</ele><time>2026-04-01T16:33:43.405Z</time></trkpt><trkpt lat="53.7762057" lon="-1.6735316"><ele>115.0</ele><time>2026-04-01T16:33:45.411Z</time></trkpt><trkpt lat="53.7761842" lon="-1.6736918"><ele>115.00000000000001</ele><time>2026-04-01T16:33:47.404Z</time></trkpt><trkpt lat="53.776144" lon="-1.6737997"><ele>115.0</ele><time>2026-04-01T16:33:49.402Z</time></trkpt><trkpt lat="53.7761763" lon="-1.6736726"><ele>115.00000000000001</ele><time>2026-04-01T16:37:39.403Z</time></trkpt><trkpt lat="53.7761889" lon="-1.6735015"><ele>115.0</ele><time>2026-04-01T16:37:40.403Z</time></trkpt><trkpt lat="53.7761961" lon="-1.6733451"><ele>115.0</ele><time>2026-04-01T16:37:41.406Z</time></trkpt><trkpt lat="53.7762081" lon="-1.6732242"><ele>115.0</ele><time>2026-04-01T16:37:42.408Z</time></trkpt><trkpt lat="53.7762946" lon="-1.6731153"><ele>115.00000000000001</ele><time>2026-04-01T16:37:44.406Z</time></trkpt><trkpt lat="53.7763597" lon="-1.6731126"><ele>115.0</ele><time>2026-04-01T16:37:45.412Z</time></trkpt><trkpt lat="53.7764922" lon="-1.6730376"><ele>115.00000000000001</ele><time>2026-04-01T16:37:47.408Z</time></trkpt><trkpt lat="53.7765662" lon="-1.6729412"><ele>115.0</ele><time>2026-04-01T16:37:48.408Z</time></trkpt><trkpt lat="53.77664" lon="-1.672824"><ele>115.0</ele><time>2026-04-01T16:37:49.409Z</time></trkpt><trkpt lat="53.7767078" lon="-1.6727055"><ele>115.0</ele><time>2026-04-01T16:37:50.408Z</time></trkpt><trkpt lat="53.7767631" lon="-1.6726064"><ele>115.00000000000001</ele><time>2026-04-01T16:37:51.41Z</time></trkpt><trkpt lat="53.7768108" lon="-1.6725224"><ele>115.0</ele><time>2026-04-01T16:37:52.405Z</time></trkpt><trkpt lat="53.7768914" lon="-1.6723845"><ele>114.83333333333334</ele><time>2026-04-01T16:37:54.411Z</time></trkpt><trkpt lat="53.7769866" lon="-1.6722633"><ele>114.66666666666667</ele><time>2026-04-01T16:37:56.408Z</time></trkpt><trkpt lat="53.7770456" lon="-1.6722206"><ele>114.5</ele><time>2026-04-01T16:37:57.407Z</time></trkpt><trkpt lat="53.7771158" lon="-1.6721878"><ele>114.33333333333334</ele><time>2026-04-01T16:37:58.407Z</time></trkpt><trkpt lat="53.7771918" lon="-1.6721477"><ele>114.16666666666667</ele><time>2026-04-01T16:37:59.407Z</time></trkpt><trkpt lat="53.7772591" lon="-1.6720632"><ele>114.0</ele><time>2026-04-01T16:38:00.408Z</time></trkpt><trkpt lat="53.7773083" lon="-1.6719333"><ele>114.0</ele><time>2026-04-01T16:38:01.404Z</time></trkpt><trkpt lat="53.77734" lon="-1.6717846"><ele>114.0</ele><time>2026-04-01T16:38:02.406Z</time></trkpt><trkpt lat="53.7773553" lon="-1.6716441"><ele>114.0</ele><time>2026-04-01T16:38:03.405Z</time></trkpt><trkpt lat="53.7773661" lon="-1.6715009"><ele>114.0</ele><time>2026-04-01T16:38:04.404Z</time></trkpt><trkpt lat="53.77738" lon="-1.6713567"><ele>114.0</ele><time>2026-04-01T16:38:05.405Z</time></trkpt><trkpt lat="53.7773924" lon="-1.6712152"><ele>114.0</ele><time>2026-04-01T16:38:06.405Z</time></trkpt><trkpt lat="53.7774029" lon="-1.6710818"><ele>114.0</ele><time>2026-04-01T16:38:07.405Z</time></trkpt><trkpt lat="53.7774127" lon="-1.6709515"><ele>113.99999999999999</ele><time>2026-04-01T16:38:08.405Z</time></trkpt><trkpt lat="53.777411" lon="-1.6708285"><ele>114.0</ele><time>2026-04-01T16:38:09.406Z</time></trkpt><trkpt lat="53.7774067" lon="-1.6707068"><ele>114.0</ele><time>2026-04-01T16:38:10.403Z</time></trkpt><trkpt lat="53.7774136" lon="-1.67059"><ele>113.99999999999999</ele><time>2026-04-01T16:38:11.403Z</time></trkpt><trkpt lat="53.7774169" lon="-1.6704772"><ele>114.0</ele><time>2026-04-01T16:38:12.405Z</time></trkpt><trkpt lat="53.7774161" lon="-1.6703608"><ele>114.0</ele><time>2026-04-01T16:38:13.404Z</time></trkpt><trkpt lat="53.7774216" lon="-1.6702365"><ele>114.0</ele><time>2026-04-01T16:38:14.408Z</time></trkpt><trkpt lat="53.7774266" lon="-1.6701253"><ele>114.0</ele><time>2026-04-01T16:38:15.403Z</time></trkpt><trkpt lat="53.7774333" lon="-1.6699257"><ele>114.0</ele><time>2026-04-01T16:38:17.406Z</time></trkpt><trkpt lat="53.7774434" lon="-1.6698164"><ele>114.0</ele><time>2026-04-01T16:38:18.405Z</time></trkpt><trkpt lat="53.7774503" lon="-1.6697017"><ele>114.0</ele><time>2026-04-01T16:38:19.409Z</time></trkpt><trkpt lat="53.7774556" lon="-1.6695832"><ele>114.0</ele><time>2026-04-01T16:38:20.407Z</time></trkpt><trkpt lat="53.7774653" lon="-1.6694533"><ele>114.33333333333333</ele><time>2026-04-01T16:38:21.405Z</time></trkpt><trkpt lat="53.7774766" lon="-1.6693258"><ele>114.66666666666666</ele><time>2026-04-01T16:38:22.403Z</time></trkpt><trkpt lat="53.7774844" lon="-1.6692137"><ele>115.0</ele><time>2026-04-01T16:38:23.404Z</time></trkpt><trkpt lat="53.7774802" lon="-1.6690683"><ele>115.33333333333333</ele><time>2026-04-01T16:38:25.406Z</time></trkpt><trkpt lat="53.7775444" lon="-1.6690502"><ele>115.66666666666666</ele><time>2026-04-01T16:38:47.407Z</time></trkpt><trkpt lat="53.7776318" lon="-1.6690491"><ele>116.0</ele><time>2026-04-01T16:38:48.407Z</time></trkpt><trkpt lat="53.7777357" lon="-1.6690856"><ele>114.99999999999999</ele><time>2026-04-01T16:38:49.404Z</time></trkpt><trkpt lat="53.7778204" lon="-1.6691108"><ele>114.0</ele><time>2026-04-01T16:38:50.408Z</time></trkpt><trkpt lat="53.7779012" lon="-1.6691458"><ele>113.0</ele><time>2026-04-01T16:38:51.406Z</time></trkpt><trkpt lat="53.7779772" lon="-1.6691911"><ele>112.0</ele><time>2026-04-01T16:38:52.408Z</time></trkpt><trkpt lat="53.7780492" lon="-1.6692254"><ele>110.99999999999999</ele><time>2026-04-01T16:38:53.405Z</time></trkpt><trkpt lat="53.7781215" lon="-1.6692664"><ele>110.0</ele><time>2026-04-01T16:38:54.41Z</time></trkpt><trkpt lat="53.7781911" lon="-1.669327"><ele>109.99999999999999</ele><time>2026-04-01T16:38:55.408Z</time></trkpt><trkpt lat="53.7782552" lon="-1.6694051"><ele>110.0</ele><time>2026-04-01T16:38:56.407Z</time></trkpt><trkpt lat="53.7782992" lon="-1.6694971"><ele>110.0</ele><time>2026-04-01T16:38:57.405Z</time></trkpt><trkpt lat="53.7783273" lon="-1.6696073"><ele>110.0</ele><time>2026-04-01T16:38:58.404Z</time></trkpt><trkpt lat="53.7783432" lon="-1.6697212"><ele>109.99999999999999</ele><time>2026-04-01T16:38:59.405Z</time></trkpt><trkpt lat="53.7783478" lon="-1.6698292"><ele>110.0</ele><time>2026-04-01T16:39:00.405Z</time></trkpt><trkpt lat="53.7783483" lon="-1.6700236"><ele>110.0</ele><time>2026-04-01T16:39:02.405Z</time></trkpt><trkpt lat="53.7783698" lon="-1.6701694"><ele>110.0</ele><time>2026-04-01T16:39:04.405Z</time></trkpt><trkpt lat="53.7784175" lon="-1.670246"><ele>110.0</ele><time>2026-04-01T16:39:05.408Z</time></trkpt><trkpt lat="53.7785128" lon="-1.6703808"><ele>110.0</ele><time>2026-04-01T16:39:07.408Z</time></trkpt><trkpt lat="53.7785992" lon="-1.670517"><ele>110.0</ele><time>2026-04-01T16:39:09.401Z</time></trkpt><trkpt lat="53.778617" lon="-1.6707076"><ele>108.83333333333333</ele><time>2026-04-01T16:39:11.41Z</time></trkpt><trkpt lat="53.7786239" lon="-1.6708965"><ele>107.66666666666666</ele><time>2026-04-01T16:39:13.409Z</time></trkpt><trkpt lat="53.778674" lon="-1.6710057"><ele>106.5</ele><time>2026-04-01T16:39:15.408Z</time></trkpt><trkpt lat="53.7787136" lon="-1.6711095"><ele>105.33333333333334</ele><time>2026-04-01T16:39:17.408Z</time></trkpt><trkpt lat="53.7787023" lon="-1.6712257"><ele>104.16666666666667</ele><time>2026-04-01T16:39:19.404Z</time></trkpt><trkpt lat="53.7786633" lon="-1.6713518"><ele>103.0</ele><time>2026-04-01T16:39:21.404Z</time></trkpt><trkpt lat="53.7786413" lon="-1.6714905"><ele>103.0</ele><time>2026-04-01T16:39:23.407Z</time></trkpt><trkpt lat="53.7786205" lon="-1.6716242"><ele>103.0</ele><time>2026-04-01T16:39:25.409Z</time></trkpt><trkpt lat="53.7785971" lon="-1.6717664"><ele>103.0</ele><time>2026-04-01T16:39:27.405Z</time></trkpt><trkpt lat="53.7785579" lon="-1.6718936"><ele>103.0</ele><time>2026-04-01T16:39:29.406Z</time></trkpt><trkpt lat="53.7785271" lon="-1.6720394"><ele>103.0</ele><time>2026-04-01T16:39:31.404Z</time></trkpt><trkpt lat="53.778483" lon="-1.6722396"><ele>103.60000000000001</ele><time>2026-04-01T16:39:33.406Z</time></trkpt><trkpt lat="53.7784558" lon="-1.6723578"><ele>104.2</ele><time>2026-04-01T16:39:34.408Z</time></trkpt><trkpt lat="53.7784315" lon="-1.6724628"><ele>104.8</ele><time>2026-04-01T16:39:35.407Z</time></trkpt><trkpt lat="53.7783767" lon="-1.6726392"><ele>105.4</ele><time>2026-04-01T16:39:37.407Z</time></trkpt><trkpt lat="53.7783124" lon="-1.672778"><ele>106.0</ele><time>2026-04-01T16:39:39.408Z</time></trkpt><trkpt lat="53.7782251" lon="-1.6729122"><ele>106.16666666666667</ele><time>2026-04-01T16:39:41.408Z</time></trkpt><trkpt lat="53.7781904" lon="-1.6730065"><ele>106.33333333333334</ele><time>2026-04-01T16:39:42.405Z</time></trkpt><trkpt lat="53.7781635" lon="-1.6731156"><ele>106.5</ele><time>2026-04-01T16:39:43.405Z</time></trkpt><trkpt lat="53.778138" lon="-1.6732343"><ele>106.66666666666666</ele><time>2026-04-01T16:39:44.407Z</time></trkpt><trkpt lat="53.7781025" lon="-1.6733581"><ele>106.83333333333333</ele><time>2026-04-01T16:39:45.409Z</time></trkpt><trkpt lat="53.7780557" lon="-1.6734781"><ele>107.0</ele><time>2026-04-01T16:39:46.405Z</time></trkpt><trkpt lat="53.7780112" lon="-1.6735791"><ele>106.99999999999999</ele><time>2026-04-01T16:39:47.407Z</time></trkpt><trkpt lat="53.7779659" lon="-1.6736776"><ele>107.0</ele><time>2026-04-01T16:39:48.409Z</time></trkpt><trkpt lat="53.7779107" lon="-1.6737746"><ele>107.0</ele><time>2026-04-01T16:39:49.406Z</time></trkpt><trkpt lat="53.7778666" lon="-1.6738926"><ele>107.0</ele><time>2026-04-01T16:39:50.406Z</time></trkpt><trkpt lat="53.7778257" lon="-1.6740081"><ele>106.99999999999999</ele><time>2026-04-01T16:39:51.405Z</time></trkpt><trkpt lat="53.7777843" lon="-1.6741191"><ele>107.0</ele><time>2026-04-01T16:39:52.405Z</time></trkpt><trkpt lat="53.7777404" lon="-1.6742225"><ele>106.99999999999999</ele><time>2026-04-01T16:39:53.406Z</time></trkpt><trkpt lat="53.7776943" lon="-1.6743136"><ele>107.0</ele><time>2026-04-01T16:39:54.407Z</time></trkpt><trkpt lat="53.7776561" lon="-1.6744127"><ele>107.0</ele><time>2026-04-01T16:39:55.405Z</time></trkpt><trkpt lat="53.777619" lon="-1.6745078"><ele>107.0</ele><time>2026-04-01T16:39:56.406Z</time></trkpt><trkpt lat="53.7775621" lon="-1.6746802"><ele>106.99999999999999</ele><time>2026-04-01T16:39:58.405Z</time></trkpt><trkpt lat="53.7775482" lon="-1.6747934"><ele>107.0</ele><time>2026-04-01T16:40:00.407Z</time></trkpt><trkpt lat="53.7775648" lon="-1.6749028"><ele>106.99999999999999</ele><time>2026-04-01T16:41:35.407Z</time></trkpt><trkpt lat="53.7775157" lon="-1.6750313"><ele>107.0</ele><time>2026-04-01T16:41:37.409Z</time></trkpt><trkpt lat="53.7774825" lon="-1.6751227"><ele>107.0</ele><time>2026-04-01T16:41:38.408Z</time></trkpt><trkpt lat="53.7774454" lon="-1.6752192"><ele>107.0</ele><time>2026-04-01T16:41:39.407Z</time></trkpt><trkpt lat="53.7773844" lon="-1.6753554"><ele>106.99999999999999</ele><time>2026-04-01T16:41:41.409Z</time></trkpt><trkpt lat="53.7773224" lon="-1.6753885"><ele>107.0</ele><time>2026-04-01T16:41:43.411Z</time></trkpt><trkpt lat="53.777232" lon="-1.6753413"><ele>106.99999999999999</ele><time>2026-04-01T16:41:45.407Z</time></trkpt><trkpt lat="53.7771167" lon="-1.6753135"><ele>107.0</ele><time>2026-04-01T16:41:47.409Z</time></trkpt><trkpt lat="53.7770521" lon="-1.6753531"><ele>107.0</ele><time>2026-04-01T16:41:48.41Z</time></trkpt><trkpt lat="53.7769784" lon="-1.6753853"><ele>107.0</ele><time>2026-04-01T16:41:49.409Z</time></trkpt><trkpt lat="53.7769043" lon="-1.6753789"><ele>106.99999999999999</ele><time>2026-04-01T16:41:50.406Z</time></trkpt><trkpt lat="53.7767925" lon="-1.6753522"><ele>107.0</ele><time>2026-04-01T16:41:52.409Z</time></trkpt><trkpt lat="53.7767264" lon="-1.6753862"><ele>107.33333333333333</ele><time>2026-04-01T16:41:53.407Z</time></trkpt><trkpt lat="53.7766487" lon="-1.6754559"><ele>107.66666666666666</ele><time>2026-04-01T16:41:54.408Z</time></trkpt><trkpt lat="53.7765593" lon="-1.6755309"><ele>108.0</ele><time>2026-04-01T16:41:55.409Z</time></trkpt><trkpt lat="53.776472" lon="-1.675585"><ele>108.33333333333334</ele><time>2026-04-01T16:41:56.407Z</time></trkpt><trkpt lat="53.776401" lon="-1.6756125"><ele>108.66666666666667</ele><time>2026-04-01T16:41:57.409Z</time></trkpt><trkpt lat="53.7763246" lon="-1.6756399"><ele>109.0</ele><time>2026-04-01T16:41:59.407Z</time></trkpt><trkpt lat="53.7762894" lon="-1.6757308"><ele>109.00000000000001</ele><time>2026-04-01T16:42:02.41Z</time></trkpt><trkpt lat="53.7762381" lon="-1.6758186"><ele>109.0</ele><time>2026-04-01T16:42:04.409Z</time></trkpt><trkpt lat="53.7761793" lon="-1.6758906"><ele>109.0</ele><time>2026-04-01T16:42:06.407Z</time></trkpt><trkpt lat="53.7760991" lon="-1.6759678"><ele>109.0</ele><time>2026-04-01T16:42:08.41Z</time></trkpt><trkpt lat="53.7760234" lon="-1.6760709"><ele>109.00000000000001</ele><time>2026-04-01T16:42:10.409Z</time></trkpt><trkpt lat="53.7759565" lon="-1.6761866"><ele>109.0</ele><time>2026-04-01T16:42:12.405Z</time></trkpt><trkpt lat="53.775911" lon="-1.676367"><ele>109.2</ele><time>2026-04-01T16:42:14.411Z</time></trkpt><trkpt lat="53.7758943" lon="-1.676525"><ele>109.4</ele><time>2026-04-01T16:42:15.407Z</time></trkpt><trkpt lat="53.7758661" lon="-1.6767013"><ele>109.6</ele><time>2026-04-01T16:42:16.408Z</time></trkpt><trkpt lat="53.7758267" lon="-1.67688"><ele>109.8</ele><time>2026-04-01T16:42:17.407Z</time></trkpt><trkpt lat="53.7757908" lon="-1.6770388"><ele>110.0</ele><time>2026-04-01T16:42:18.405Z</time></trkpt><trkpt lat="53.7757597" lon="-1.6771879"><ele>109.99999999999999</ele><time>2026-04-01T16:42:19.406Z</time></trkpt><trkpt lat="53.7757173" lon="-1.6773269"><ele>110.0</ele><time>2026-04-01T16:42:20.406Z</time></trkpt><trkpt lat="53.7756574" lon="-1.6774556"><ele>110.0</ele><time>2026-04-01T16:42:21.41Z</time></trkpt><trkpt lat="53.7755829" lon="-1.6775512"><ele>110.0</ele><time>2026-04-01T16:42:22.413Z</time></trkpt><trkpt lat="53.7755161" lon="-1.6776291"><ele>109.99999999999999</ele><time>2026-04-01T16:42:23.409Z</time></trkpt><trkpt lat="53.7754643" lon="-1.677717"><ele>110.0</ele><time>2026-04-01T16:42:24.414Z</time></trkpt><trkpt lat="53.7753842" lon="-1.6778108"><ele>109.83333333333333</ele><time>2026-04-01T16:42:26.407Z</time></trkpt><trkpt lat="53.7753156" lon="-1.6778415"><ele>109.66666666666666</ele><time>2026-04-01T16:42:28.405Z</time></trkpt><trkpt lat="53.7752255" lon="-1.6778027"><ele>109.5</ele><time>2026-04-01T16:42:30.408Z</time></trkpt><trkpt lat="53.7751577" lon="-1.6776581"><ele>109.33333333333334</ele><time>2026-04-01T16:42:32.405Z</time></trkpt><trkpt lat="53.7751133" lon="-1.6775718"><ele>109.16666666666667</ele><time>2026-04-01T16:42:33.404Z</time></trkpt><trkpt lat="53.7750616" lon="-1.6775002"><ele>109.0</ele><time>2026-04-01T16:42:34.408Z</time></trkpt><trkpt lat="53.7750014" lon="-1.6774543"><ele>111.83333333333334</ele><time>2026-04-01T16:42:35.408Z</time></trkpt><trkpt lat="53.7749333" lon="-1.6774343"><ele>114.66666666666667</ele><time>2026-04-01T16:42:36.408Z</time></trkpt><trkpt lat="53.7748649" lon="-1.6774293"><ele>117.5</ele><time>2026-04-01T16:42:37.405Z</time></trkpt><trkpt lat="53.7747628" lon="-1.6773874"><ele>120.33333333333334</ele><time>2026-04-01T16:42:39.41Z</time></trkpt><trkpt lat="53.7746906" lon="-1.6773848"><ele>123.16666666666667</ele><time>2026-04-01T16:42:41.408Z</time></trkpt><trkpt lat="53.7746276" lon="-1.6774916"><ele>126.0</ele><time>2026-04-01T16:42:43.405Z</time></trkpt><trkpt lat="53.7745569" lon="-1.6776272"><ele>126.0</ele><time>2026-04-01T16:42:45.41Z</time></trkpt><trkpt lat="53.7745037" lon="-1.6776889"><ele>126.0</ele><time>2026-04-01T16:42:47.41Z</time></trkpt><trkpt lat="53.7744666" lon="-1.6777764"><ele>126.0</ele><time>2026-04-01T16:42:50.408Z</time></trkpt><trkpt lat="53.7744894" lon="-1.6778905"><ele>126.0</ele><time>2026-04-01T16:42:52.413Z</time></trkpt><trkpt lat="53.7745274" lon="-1.678031"><ele>126.0</ele><time>2026-04-01T16:42:55.409Z</time></trkpt><trkpt lat="53.7745829" lon="-1.6781491"><ele>126.0</ele><time>2026-04-01T16:42:58.409Z</time></trkpt><trkpt lat="53.7746309" lon="-1.6782305"><ele>126.0</ele><time>2026-04-01T16:43:00.408Z</time></trkpt><trkpt lat="53.7746784" lon="-1.678313"><ele>125.83333333333333</ele><time>2026-04-01T16:43:02.408Z</time></trkpt><trkpt lat="53.7747214" lon="-1.6784035"><ele>125.66666666666666</ele><time>2026-04-01T16:43:04.409Z</time></trkpt><trkpt lat="53.7747568" lon="-1.6784922"><ele>125.5</ele><time>2026-04-01T16:43:06.408Z</time></trkpt><trkpt lat="53.7747435" lon="-1.6786168"><ele>125.33333333333333</ele><time>2026-04-01T16:43:09.41Z</time></trkpt><trkpt lat="53.7746851" lon="-1.6787094"><ele>125.16666666666666</ele><time>2026-04-01T16:43:11.41Z</time></trkpt><trkpt lat="53.7746029" lon="-1.6787706"><ele>125.0</ele><time>2026-04-01T16:43:13.41Z</time></trkpt><trkpt lat="53.7745182" lon="-1.6788085"><ele>124.16666666666666</ele><time>2026-04-01T16:43:15.411Z</time></trkpt><trkpt lat="53.7744095" lon="-1.6787625"><ele>123.33333333333333</ele><time>2026-04-01T16:43:17.412Z</time></trkpt><trkpt lat="53.7743515" lon="-1.6787143"><ele>122.5</ele><time>2026-04-01T16:43:18.41Z</time></trkpt><trkpt lat="53.7742853" lon="-1.6786698"><ele>121.66666666666666</ele><time>2026-04-01T16:43:19.412Z</time></trkpt><trkpt lat="53.7742124" lon="-1.6786297"><ele>120.83333333333333</ele><time>2026-04-01T16:43:20.411Z</time></trkpt><trkpt lat="53.7741379" lon="-1.6785888"><ele>120.0</ele><time>2026-04-01T16:43:21.41Z</time></trkpt><trkpt lat="53.7740677" lon="-1.6785487"><ele>122.66666666666667</ele><time>2026-04-01T16:43:22.41Z</time></trkpt><trkpt lat="53.774001" lon="-1.6785108"><ele>125.33333333333334</ele><time>2026-04-01T16:43:23.411Z</time></trkpt><trkpt lat="53.7739383" lon="-1.6784738"><ele>128.0</ele><time>2026-04-01T16:43:24.407Z</time></trkpt><trkpt lat="53.7738339" lon="-1.678412"><ele>130.66666666666669</ele><time>2026-04-01T16:43:26.412Z</time></trkpt><trkpt lat="53.7737252" lon="-1.6783476"><ele>133.33333333333334</ele><time>2026-04-01T16:43:28.407Z</time></trkpt><trkpt lat="53.7736658" lon="-1.6783035"><ele>136.0</ele><time>2026-04-01T16:43:29.403Z</time></trkpt><trkpt lat="53.7736111" lon="-1.6782502"><ele>136.0</ele><time>2026-04-01T16:43:30.412Z</time></trkpt><trkpt lat="53.773525" lon="-1.6781048"><ele>136.0</ele><time>2026-04-01T16:43:32.412Z</time></trkpt><trkpt lat="53.7734682" lon="-1.6779227"><ele>136.0</ele><time>2026-04-01T16:43:34.414Z</time></trkpt><trkpt lat="53.7734392" lon="-1.6778233"><ele>136.0</ele><time>2026-04-01T16:43:35.409Z</time></trkpt><trkpt lat="53.7734124" lon="-1.6777169"><ele>136.0</ele><time>2026-04-01T16:43:36.409Z</time></trkpt><trkpt lat="53.7733835" lon="-1.6775939"><ele>137.4</ele><time>2026-04-01T16:43:37.41Z</time></trkpt><trkpt lat="53.7733478" lon="-1.6774593"><ele>138.8</ele><time>2026-04-01T16:43:38.41Z</time></trkpt><trkpt lat="53.773311" lon="-1.6773196"><ele>140.20000000000002</ele><time>2026-04-01T16:43:39.411Z</time></trkpt><trkpt lat="53.7732746" lon="-1.6771851"><ele>141.6</ele><time>2026-04-01T16:43:40.411Z</time></trkpt><trkpt lat="53.7732383" lon="-1.6770431"><ele>143.0</ele><time>2026-04-01T16:43:41.414Z</time></trkpt><trkpt lat="53.7731963" lon="-1.6768911"><ele>143.16666666666666</ele><time>2026-04-01T16:43:42.406Z</time></trkpt><trkpt lat="53.7731501" lon="-1.6767493"><ele>143.33333333333331</ele><time>2026-04-01T16:43:43.413Z</time></trkpt><trkpt lat="53.7731052" lon="-1.6766348"><ele>143.5</ele><time>2026-04-01T16:43:44.413Z</time></trkpt><trkpt lat="53.7730603" lon="-1.6765498"><ele>143.66666666666666</ele><time>2026-04-01T16:43:45.415Z</time></trkpt><trkpt lat="53.7730073" lon="-1.6764772"><ele>143.83333333333334</ele><time>2026-04-01T16:43:46.41Z</time></trkpt><trkpt lat="53.7729403" lon="-1.676397"><ele>144.0</ele><time>2026-04-01T16:43:47.411Z</time></trkpt><trkpt lat="53.7728613" lon="-1.6763005"><ele>144.0</ele><time>2026-04-01T16:43:48.413Z</time></trkpt><trkpt lat="53.7727805" lon="-1.6761912"><ele>144.0</ele><time>2026-04-01T16:43:49.407Z</time></trkpt><trkpt lat="53.7727075" lon="-1.6760968"><ele>144.0</ele><time>2026-04-01T16:43:50.413Z</time></trkpt><trkpt lat="53.7726378" lon="-1.6760214"><ele>144.0</ele><time>2026-04-01T16:43:51.414Z</time></trkpt><trkpt lat="53.7725504" lon="-1.6759917"><ele>144.0</ele><time>2026-04-01T16:43:52.411Z</time></trkpt><trkpt lat="53.7724561" lon="-1.6760162"><ele>144.4</ele><time>2026-04-01T16:43:53.411Z</time></trkpt><trkpt lat="53.7723734" lon="-1.6760777"><ele>144.8</ele><time>2026-04-01T16:43:54.412Z</time></trkpt><trkpt lat="53.7722972" lon="-1.6761732"><ele>145.2</ele><time>2026-04-01T16:43:55.408Z</time></trkpt><trkpt lat="53.7722288" lon="-1.6762837"><ele>145.6</ele><time>2026-04-01T16:43:56.41Z</time></trkpt><trkpt lat="53.772158" lon="-1.6763987"><ele>146.0</ele><time>2026-04-01T16:43:57.409Z</time></trkpt><trkpt lat="53.7720821" lon="-1.6765102"><ele>146.4</ele><time>2026-04-01T16:43:58.41Z</time></trkpt><trkpt lat="53.772008" lon="-1.6766277"><ele>146.8</ele><time>2026-04-01T16:43:59.407Z</time></trkpt><trkpt lat="53.7719512" lon="-1.6767602"><ele>147.20000000000002</ele><time>2026-04-01T16:44:00.409Z</time></trkpt><trkpt lat="53.771896" lon="-1.6768991"><ele>147.6</ele><time>2026-04-01T16:44:01.41Z</time></trkpt><trkpt lat="53.7718386" lon="-1.6770301"><ele>148.0</ele><time>2026-04-01T16:44:02.409Z</time></trkpt><trkpt lat="53.7718046" lon="-1.6771547"><ele>152.0</ele><time>2026-04-01T16:44:03.409Z</time></trkpt><trkpt lat="53.7717862" lon="-1.6772613"><ele>152.0</ele><time>2026-04-01T16:44:04.412Z</time></trkpt><trkpt lat="53.7717431" lon="-1.6773883"><ele>152.0</ele><time>2026-04-01T16:44:06.408Z</time></trkpt><trkpt lat="53.7717045" lon="-1.6774748"><ele>152.0</ele><time>2026-04-01T16:44:10.41Z</time></trkpt></trkseg></trk></gpx>